[[{"header":{"parameterUnit":"m.s-1","parameterCategory":1,"la1":30.6,"la2":29.2853,"lo1":-89.7004,"lo2":-87.6739,"dy":0.0162,"dx":0.0183,"nx":112,"ny":82,"refTime":"2023-06-19T06:00:00:Z","depth":0,"parameterNumber":2,"parameterNumberName":"U-component_of_WINDS"},"data":[0.0,0.0,0.0,0.0,0.0,0.0,0.0,0.0,0.0,0.0,0.0,0.0,0.0,0.0,0.0,0.0,0.0,0.0,0.0,0.0,0.0,0.0,0.0,0.0,0.0,0.0,0.0,0.0,0.0,0.0,0.0,0.0,0.0,0.0,0.0,0.0,0.0,0.0,0.0,0.0,0.0,0.0,0.0,0.0,0.0,0.0,0.0,0.0,0.0,0.0,0.0,0.0,0.0,0.0,0.0,0.0,0.0,0.0,0.0,0.0,0.0,0.0,0.0,0.0,0.0,0.0,0.0,0.0,0.0,0.0,0.0,0.0,0.0,0.0,0.0,0.0,0.0,0.0,0.0,0.0,0.0,0.0,0.0,0.0,0.0,0.0,0.0,0.0,0.0,0.0,-3.9175,-3.9325,-3.9782,-4.0095,-4.0163,-4.1226,-4.1701,-4.1256,0.0,0.0,0.0,0.0,0.0,0.0,0.0,0.0,0.0,0.0,0.0,0.0,0.0,0.0,0.0,0.0,0.0,0.0,0.0,0.0,0.0,0.0,0.0,0.0,0.0,0.0,0.0,0.0,0.0,0.0,0.0,0.0,0.0,0.0,0.0,0.0,0.0,0.0,0.0,0.0,0.0,0.0,0.0,0.0,0.0,0.0,0.0,0.0,0.0,0.0,0.0,0.0,0.0,0.0,0.0,0.0,0.0,0.0,0.0,0.0,0.0,0.0,0.0,0.0,0.0,0.0,0.0,0.0,0.0,0.0,0.0,0.0,0.0,0.0,0.0,0.0,0.0,0.0,0.0,0.0,0.0,0.0,0.0,0.0,0.0,0.0,0.0,0.0,0.0,0.0,0.0,0.0,0.0,0.0,0.0,0.0,0.0,0.0,0.0,0.0,0.0,0.0,0.0,0.0,-3.8701,-3.9405,-3.9441,-3.9494,-3.9616,-4.0722,-4.1422,-4.1464,0.0,0.0,0.0,0.0,0.0,0.0,0.0,0.0,0.0,0.0,0.0,0.0,0.0,0.0,0.0,0.0,0.0,0.0,0.0,0.0,0.0,0.0,0.0,0.0,0.0,0.0,0.0,0.0,0.0,0.0,0.0,0.0,0.0,0.0,0.0,0.0,0.0,0.0,0.0,0.0,0.0,0.0,0.0,0.0,0.0,0.0,0.0,0.0,0.0,0.0,0.0,0.0,0.0,0.0,0.0,0.0,0.0,0.0,0.0,0.0,0.0,0.0,0.0,0.0,0.0,0.0,0.0,0.0,0.0,0.0,0.0,0.0,0.0,0.0,0.0,0.0,0.0,0.0,0.0,0.0,0.0,0.0,0.0,0.0,0.0,0.0,0.0,0.0,0.0,0.0,0.0,0.0,0.0,0.0,0.0,0.0,0.0,0.0,0.0,0.0,0.0,0.0,0.0,-3.8306,-3.859,-3.9325,-3.969,-3.9966,-4.0074,-4.1208,-4.1885,-4.1824,-4.3512,0.0,0.0,0.0,0.0,0.0,0.0,0.0,0.0,0.0,0.0,0.0,0.0,0.0,0.0,0.0,0.0,0.0,0.0,0.0,0.0,0.0,0.0,0.0,0.0,0.0,0.0,0.0,0.0,0.0,0.0,0.0,0.0,0.0,0.0,0.0,0.0,0.0,0.0,0.0,0.0,0.0,0.0,0.0,0.0,0.0,0.0,0.0,0.0,0.0,0.0,0.0,0.0,0.0,0.0,0.0,0.0,0.0,0.0,0.0,0.0,0.0,0.0,0.0,0.0,0.0,0.0,0.0,0.0,0.0,0.0,0.0,0.0,0.0,0.0,0.0,0.0,0.0,0.0,0.0,0.0,0.0,0.0,0.0,0.0,0.0,0.0,0.0,0.0,0.0,0.0,0.0,0.0,0.0,0.0,0.0,0.0,0.0,0.0,0.0,0.0,0.0,0.0,-3.8497,-3.9006,-3.9493,-4.0227,-4.0685,-4.0768,-4.1795,-4.2378,-4.2276,-4.3898,0.0,0.0,0.0,0.0,0.0,0.0,0.0,0.0,0.0,0.0,0.0,0.0,0.0,0.0,0.0,0.0,0.0,0.0,0.0,0.0,0.0,0.0,0.0,0.0,0.0,0.0,0.0,0.0,0.0,0.0,0.0,0.0,0.0,0.0,0.0,0.0,0.0,0.0,0.0,0.0,0.0,0.0,0.0,0.0,0.0,0.0,0.0,0.0,0.0,0.0,0.0,0.0,0.0,0.0,0.0,0.0,0.0,0.0,0.0,0.0,0.0,0.0,0.0,0.0,0.0,0.0,0.0,0.0,0.0,0.0,0.0,0.0,0.0,0.0,0.0,0.0,0.0,0.0,0.0,0.0,0.0,0.0,0.0,0.0,0.0,0.0,0.0,0.0,0.0,0.0,0.0,0.0,0.0,0.0,0.0,0.0,0.0,0.0,0.0,0.0,0.0,0.0,-3.9109,-4.0271,-4.0326,-4.0928,-4.1342,-4.1342,-4.205,-4.2567,-4.2744,-4.364,0.0,0.0,0.0,0.0,0.0,0.0,0.0,0.0,0.0,0.0,0.0,0.0,0.0,0.0,0.0,0.0,0.0,0.0,0.0,0.0,0.0,0.0,0.0,0.0,0.0,0.0,0.0,0.0,0.0,0.0,0.0,0.0,0.0,0.0,0.0,0.0,0.0,0.0,0.0,0.0,0.0,0.0,0.0,0.0,0.0,0.0,0.0,0.0,0.0,0.0,0.0,0.0,0.0,0.0,0.0,0.0,0.0,0.0,0.0,0.0,0.0,0.0,0.0,0.0,0.0,0.0,0.0,0.0,0.0,0.0,0.0,0.0,0.0,0.0,0.0,0.0,0.0,0.0,0.0,0.0,0.0,0.0,0.0,0.0,0.0,0.0,0.0,0.0,0.0,0.0,0.0,0.0,0.0,0.0,0.0,0.0,0.0,0.0,0.0,0.0,0.0,0.0,-3.9998,-4.0615,0.0,-4.1674,-4.2075,-4.2075,-4.2754,-4.3273,-4.3481,0.0,0.0,0.0,0.0,0.0,0.0,0.0,0.0,0.0,0.0,0.0,0.0,0.0,0.0,0.0,0.0,0.0,0.0,0.0,0.0,0.0,0.0,0.0,0.0,0.0,0.0,0.0,0.0,0.0,0.0,0.0,0.0,0.0,0.0,0.0,0.0,0.0,0.0,0.0,0.0,0.0,0.0,0.0,0.0,0.0,0.0,0.0,0.0,0.0,0.0,0.0,0.0,0.0,0.0,0.0,0.0,0.0,0.0,0.0,0.0,0.0,0.0,0.0,0.0,0.0,0.0,0.0,0.0,0.0,0.0,0.0,0.0,0.0,0.0,0.0,0.0,0.0,0.0,0.0,0.0,0.0,0.0,0.0,0.0,0.0,0.0,0.0,0.0,0.0,0.0,0.0,0.0,0.0,0.0,0.0,0.0,0.0,0.0,0.0,0.0,0.0,0.0,-4.0025,-4.0732,-4.1307,0.0,-4.2406,-4.2837,-4.2837,-4.33,-4.3658,-4.3793,0.0,0.0,0.0,0.0,0.0,0.0,0.0,0.0,0.0,0.0,0.0,0.0,0.0,0.0,0.0,0.0,0.0,0.0,0.0,0.0,0.0,0.0,0.0,0.0,0.0,0.0,0.0,0.0,0.0,0.0,0.0,0.0,0.0,0.0,0.0,0.0,0.0,0.0,0.0,0.0,0.0,0.0,0.0,0.0,0.0,0.0,0.0,0.0,0.0,0.0,0.0,0.0,0.0,0.0,0.0,0.0,0.0,0.0,0.0,0.0,0.0,0.0,0.0,0.0,0.0,0.0,0.0,0.0,0.0,0.0,0.0,0.0,0.0,0.0,0.0,0.0,0.0,0.0,0.0,0.0,0.0,0.0,0.0,0.0,0.0,0.0,0.0,0.0,0.0,0.0,0.0,0.0,0.0,0.0,0.0,0.0,0.0,0.0,0.0,0.0,0.0,0.0,-3.9455,-4.123,-4.2506,-4.2506,-4.3151,-4.3598,-4.3598,-4.3598,-4.3598,0.0,0.0,0.0,0.0,0.0,0.0,0.0,0.0,0.0,0.0,0.0,0.0,0.0,0.0,0.0,0.0,0.0,0.0,0.0,0.0,0.0,0.0,0.0,0.0,0.0,0.0,0.0,0.0,0.0,0.0,0.0,0.0,0.0,0.0,0.0,0.0,0.0,0.0,0.0,0.0,0.0,0.0,0.0,0.0,0.0,0.0,0.0,0.0,0.0,0.0,0.0,0.0,0.0,0.0,0.0,0.0,0.0,0.0,0.0,0.0,0.0,0.0,0.0,0.0,0.0,0.0,0.0,0.0,0.0,0.0,0.0,0.0,0.0,0.0,0.0,0.0,0.0,0.0,0.0,0.0,0.0,0.0,0.0,0.0,0.0,0.0,0.0,0.0,0.0,0.0,0.0,0.0,0.0,0.0,0.0,0.0,0.0,0.0,0.0,0.0,0.0,0.0,0.0,-4.223,-4.2911,-4.3267,-4.3267,-4.3466,-4.3598,-4.3598,-4.3598,-4.3598,-4.3598,0.0,0.0,0.0,0.0,0.0,0.0,0.0,0.0,0.0,0.0,0.0,0.0,0.0,0.0,0.0,0.0,0.0,0.0,0.0,0.0,0.0,0.0,0.0,0.0,0.0,0.0,0.0,0.0,0.0,0.0,0.0,0.0,0.0,0.0,0.0,0.0,0.0,0.0,0.0,0.0,0.0,0.0,0.0,0.0,0.0,0.0,0.0,0.0,0.0,0.0,0.0,0.0,0.0,0.0,0.0,0.0,0.0,0.0,0.0,0.0,0.0,0.0,0.0,0.0,0.0,0.0,0.0,0.0,0.0,0.0,0.0,0.0,0.0,0.0,0.0,0.0,0.0,0.0,0.0,0.0,0.0,0.0,0.0,0.0,0.0,0.0,0.0,0.0,0.0,0.0,0.0,0.0,0.0,0.0,0.0,0.0,0.0,0.0,0.0,0.0,0.0,0.0,-4.2632,-4.3265,-4.3598,-4.3598,-4.3598,-4.3598,-4.3598,-4.3598,-4.3598,-4.3598,0.0,0.0,0.0,0.0,0.0,0.0,0.0,0.0,0.0,0.0,0.0,0.0,0.0,0.0,0.0,0.0,0.0,0.0,0.0,0.0,0.0,0.0,0.0,0.0,0.0,0.0,0.0,0.0,0.0,0.0,0.0,0.0,0.0,0.0,0.0,0.0,0.0,0.0,0.0,0.0,0.0,0.0,0.0,0.0,0.0,0.0,0.0,0.0,0.0,0.0,0.0,0.0,0.0,0.0,0.0,0.0,0.0,0.0,0.0,0.0,0.0,0.0,0.0,0.0,0.0,0.0,0.0,0.0,0.0,0.0,0.0,0.0,0.0,0.0,0.0,0.0,0.0,0.0,0.0,0.0,0.0,0.0,0.0,0.0,0.0,0.0,0.0,0.0,0.0,0.0,0.0,0.0,0.0,0.0,0.0,0.0,0.0,0.0,0.0,0.0,0.0,0.0,-4.188,-4.2999,-4.3797,-4.3797,-4.3797,-4.3797,-4.3797,-4.3797,-4.3797,-4.3797,0.0,0.0,0.0,0.0,0.0,0.0,0.0,0.0,0.0,0.0,0.0,0.0,0.0,0.0,0.0,0.0,0.0,0.0,0.0,0.0,0.0,0.0,0.0,0.0,0.0,0.0,0.0,0.0,0.0,0.0,0.0,0.0,0.0,0.0,0.0,0.0,0.0,0.0,0.0,0.0,0.0,0.0,0.0,0.0,0.0,0.0,0.0,0.0,0.0,0.0,0.0,0.0,0.0,0.0,0.0,0.0,0.0,0.0,0.0,0.0,-4.4293,0.0,0.0,0.0,0.0,0.0,0.0,0.0,0.0,0.0,0.0,0.0,0.0,0.0,0.0,0.0,0.0,0.0,0.0,0.0,0.0,0.0,0.0,0.0,0.0,0.0,0.0,0.0,0.0,0.0,0.0,0.0,0.0,0.0,0.0,0.0,0.0,0.0,0.0,0.0,0.0,0.0,-4.4815,-4.5146,-4.5334,-4.5334,-4.5334,-4.5334,-4.5334,-4.5334,-4.5334,-4.5334,-4.5334,0.0,0.0,0.0,0.0,0.0,0.0,0.0,0.0,0.0,0.0,0.0,0.0,0.0,0.0,0.0,0.0,0.0,0.0,0.0,0.0,0.0,0.0,0.0,0.0,0.0,0.0,0.0,0.0,0.0,0.0,0.0,0.0,0.0,0.0,0.0,0.0,0.0,0.0,0.0,0.0,0.0,0.0,0.0,0.0,0.0,0.0,0.0,0.0,0.0,0.0,0.0,0.0,0.0,0.0,0.0,0.0,0.0,0.0,0.0,0.0,-4.4615,0.0,0.0,0.0,0.0,0.0,0.0,0.0,0.0,0.0,0.0,0.0,0.0,0.0,0.0,0.0,0.0,0.0,0.0,0.0,0.0,0.0,0.0,0.0,0.0,0.0,0.0,0.0,0.0,0.0,0.0,0.0,0.0,0.0,0.0,0.0,0.0,0.0,0.0,0.0,0.0,-4.5259,-4.5593,-4.5798,-4.5798,-4.5798,-4.5798,-4.5798,-4.5798,-4.5798,-4.5798,-4.5798,0.0,0.0,0.0,0.0,0.0,0.0,0.0,0.0,0.0,0.0,0.0,0.0,0.0,0.0,0.0,0.0,0.0,0.0,0.0,0.0,0.0,0.0,0.0,0.0,0.0,0.0,0.0,0.0,0.0,0.0,0.0,0.0,0.0,0.0,0.0,0.0,0.0,0.0,0.0,0.0,0.0,0.0,0.0,0.0,0.0,0.0,0.0,0.0,0.0,0.0,0.0,0.0,0.0,-4.4733,-4.4801,-4.4801,-4.4936,-4.4987,-4.4987,-4.4987,-4.4919,-4.4818,0.0,0.0,0.0,0.0,0.0,0.0,0.0,0.0,0.0,0.0,0.0,0.0,0.0,0.0,0.0,0.0,0.0,0.0,0.0,0.0,0.0,0.0,0.0,0.0,0.0,-4.3816,-4.3909,0.0,0.0,0.0,0.0,0.0,0.0,0.0,0.0,0.0,0.0,0.0,0.0,-4.5358,-4.5845,-4.6179,-4.6179,-4.6179,-4.6179,-4.6179,-4.6179,-4.6179,-4.6179,-4.6179,-4.6179,0.0,0.0,0.0,0.0,0.0,0.0,0.0,0.0,0.0,0.0,0.0,0.0,0.0,0.0,0.0,0.0,0.0,0.0,0.0,0.0,0.0,0.0,0.0,0.0,0.0,0.0,0.0,0.0,0.0,0.0,0.0,0.0,-4.3084,-4.3768,0.0,0.0,0.0,0.0,0.0,0.0,0.0,0.0,0.0,0.0,0.0,0.0,0.0,-4.4615,-4.4615,-4.4615,-4.4615,-4.4615,-4.5246,-4.5568,-4.5585,-4.621,-4.6498,-4.6498,-4.6498,0.0,-4.5602,-4.6244,0.0,0.0,0.0,0.0,0.0,0.0,0.0,0.0,0.0,0.0,0.0,0.0,0.0,0.0,0.0,0.0,0.0,0.0,0.0,0.0,0.0,0.0,-4.5028,-4.5522,-4.5678,-4.5645,0.0,-4.4788,-4.42,-4.3677,0.0,0.0,0.0,0.0,0.0,0.0,0.0,0.0,-4.7572,-4.7654,-4.7719,-4.7719,-4.7719,-4.7719,-4.7719,-4.7719,-4.7719,-4.7719,-4.7719,-4.7719,-4.7719,-4.78,0.0,0.0,0.0,0.0,0.0,0.0,0.0,0.0,0.0,0.0,0.0,0.0,0.0,0.0,0.0,0.0,0.0,0.0,0.0,0.0,0.0,0.0,0.0,0.0,0.0,0.0,0.0,0.0,0.0,-4.3244,-4.3309,-4.3839,-4.3548,-4.3488,0.0,0.0,0.0,0.0,0.0,0.0,0.0,0.0,0.0,-4.4615,-4.4993,-4.5213,-4.5213,-4.5618,-4.585,-4.585,-4.616,-4.6312,-4.6329,-4.665,-4.6786,-4.6802,-4.7242,-4.7242,-4.6938,-4.6836,-4.6853,-4.6849,0.0,0.0,0.0,0.0,-4.4104,-4.3805,-4.4188,-4.4024,0.0,0.0,0.0,0.0,0.0,0.0,0.0,0.0,0.0,0.0,0.0,0.0,0.0,-4.6389,-4.6599,-4.6605,-4.6973,-4.6798,-4.6372,0.0,-4.5767,-4.5996,-4.6108,0.0,0.0,0.0,0.0,-4.8001,-4.8001,-4.8001,-4.8001,-4.8001,-4.8001,-4.8001,-4.8001,-4.8001,-4.8001,-4.8001,-4.8001,-4.8001,-4.8001,-4.8001,-4.8033,0.0,0.0,0.0,0.0,0.0,0.0,0.0,0.0,0.0,0.0,0.0,0.0,0.0,0.0,0.0,0.0,0.0,0.0,0.0,0.0,0.0,0.0,0.0,0.0,0.0,0.0,0.0,0.0,-4.3433,-4.3647,-4.3997,-4.4008,-4.408,0.0,0.0,0.0,0.0,0.0,0.0,-4.4886,-4.4874,-4.4987,-4.5173,-4.5686,-4.5974,-4.5974,-4.6532,-4.6786,-4.6786,-4.6989,-4.7073,-4.709,-4.7276,-4.7361,-4.7378,-4.7953,-4.8189,-4.8125,-4.7597,-4.7699,-4.8098,-4.717,-4.7128,-4.749,-4.6212,-4.545,-4.4985,-4.5167,-4.4769,-4.4113,-4.394,0.0,-4.3255,-4.2731,0.0,0.0,0.0,0.0,-4.3937,-4.4992,-4.5291,-4.5619,-4.683,-4.7156,-4.7322,-4.7885,-4.8001,-4.7835,0.0,-4.7173,-4.7355,-4.7918,0.0,0.0,0.0,0.0,-4.8067,-4.8266,-4.8282,-4.8365,-4.8547,-4.8564,-4.8564,-4.8564,-4.8564,-4.8564,-4.8564,-4.8564,-4.8564,-4.8564,-4.8564,-4.853,-4.8478,0.0,0.0,0.0,0.0,0.0,0.0,0.0,0.0,0.0,0.0,0.0,0.0,0.0,0.0,0.0,0.0,0.0,0.0,0.0,0.0,0.0,0.0,0.0,0.0,0.0,0.0,0.0,0.0,0.0,-4.46,-4.4533,0.0,0.0,0.0,0.0,-4.4803,-4.4682,-4.4919,-4.5618,-4.5652,-4.5974,-4.6667,-4.6718,-4.6735,-4.6735,-4.6769,-4.6786,-4.6802,-4.7513,-4.7821,-4.7855,-4.8578,-4.8883,-4.89,-4.8934,-4.8951,-4.8951,-4.89,-4.8917,-4.881,-4.7373,-4.6813,-4.6777,-4.6008,-4.5685,-4.5742,-4.6437,-4.6228,-4.5491,-4.4863,-4.3751,-4.2638,-4.2602,-4.3033,0.0,0.0,-4.4062,-4.469,-4.5238,-4.5818,-4.64,-4.695,-4.7539,-4.7951,-4.7984,-4.8001,-4.7984,0.0,-4.7934,-4.7968,-4.8001,0.0,-4.8001,-4.8001,-4.8001,-4.8249,-4.8961,-4.9044,-4.9326,-5.0021,-5.0104,-5.0104,-5.0104,-5.0104,-5.0104,-5.0104,-5.0104,-5.0104,-5.0104,-5.0104,-4.9808,-4.926,-4.9243,0.0,0.0,0.0,0.0,0.0,0.0,0.0,0.0,0.0,0.0,0.0,0.0,0.0,0.0,0.0,0.0,0.0,0.0,0.0,0.0,0.0,0.0,0.0,0.0,0.0,0.0,0.0,0.0,-4.4819,-4.487,0.0,-4.4879,-4.4831,-4.4952,-4.5349,-4.5326,-4.5635,-4.6363,-4.6413,-4.6532,-4.6786,-4.7259,-4.7513,-4.7513,-4.7986,-4.8223,-4.8223,-4.8494,-4.8612,-4.8629,-4.8883,-4.9001,-4.9001,-4.9001,-4.9001,-4.9001,-4.9001,-4.9001,-4.8909,-4.7901,-4.7522,-4.7489,-4.7204,-4.6518,-4.5805,-4.6534,-4.602,-4.4962,-4.4713,-4.431,-4.3879,-4.3879,-4.4033,-4.4353,-4.4804,-4.5123,-4.5515,-4.6553,-4.6896,-4.7118,-4.7671,-4.7902,-4.8133,-4.8614,-4.8713,-4.8862,-4.9326,-4.8647,-4.815,-4.863,-4.8713,-4.8879,-4.9359,-4.9425,-4.9525,-4.979,-4.9823,-4.9922,-5.0187,-5.022,-5.022,-5.022,-5.022,-5.022,-5.022,-5.022,-5.0238,-5.0341,-5.0238,-5.0207,-5.0209,-5.0076,-4.9992,0.0,0.0,0.0,0.0,0.0,0.0,0.0,0.0,0.0,0.0,0.0,0.0,0.0,0.0,0.0,0.0,0.0,0.0,0.0,0.0,0.0,0.0,0.0,0.0,0.0,0.0,-4.4377,-4.4872,-4.4886,-4.4831,-4.4737,-4.4958,-4.5275,-4.5669,-4.594,-4.6397,-4.7124,-4.7175,-4.7293,-4.753,-4.802,-4.8291,-4.8291,-4.8765,-4.9001,-4.9001,-4.9001,-4.9001,-4.9001,-4.9001,-4.9001,-4.9001,-4.9001,-4.9001,-4.9001,-4.9001,-4.9001,-4.8892,-4.7917,-4.7522,-4.7489,-4.6967,-4.6343,-4.5769,-4.6253,-4.564,-4.461,-4.461,-4.461,-4.461,-4.461,-4.461,-4.4685,-4.5179,-4.5311,-4.5515,-4.6288,-4.6711,-4.7114,-4.7681,-4.8063,-4.851,-4.9292,-4.9475,-4.9624,-5.0121,-4.9425,-4.8912,-4.9392,-4.9475,-4.9657,-5.0137,-5.022,-5.0303,-5.0535,-5.0568,-5.0667,-5.0916,-5.0949,-5.0949,-5.0949,-5.0949,-5.0949,-5.0949,-5.0967,-5.1054,-5.1124,-5.1054,-5.1057,-5.1162,-5.0844,-5.0726,-5.0809,0.0,0.0,0.0,0.0,0.0,0.0,0.0,0.0,0.0,0.0,0.0,0.0,0.0,0.0,0.0,0.0,0.0,0.0,0.0,0.0,0.0,0.0,0.0,-4.4215,-4.4507,-4.4776,-4.4776,-4.4699,-4.4632,-4.4632,-4.5297,-4.5737,-4.5771,-4.643,-4.7158,-4.7872,-4.7922,-4.8244,-4.8984,-4.9001,-4.9001,-4.9001,-4.9001,-4.9001,-4.9001,-4.9001,-4.9001,-4.9001,-4.9001,-4.9001,-4.9001,-4.9001,-4.9001,-4.9001,-4.9001,-4.9001,-4.8877,-4.7389,-4.6811,-4.6638,-4.5216,-4.5104,-4.5697,-4.566,-4.5216,-4.461,-4.461,-4.461,-4.461,-4.461,-4.461,-4.461,-4.4641,-4.4641,-4.4618,-4.4481,-4.5325,-4.636,-4.7045,-4.8104,-4.9196,-5.0048,-5.0253,-5.0253,-5.027,-5.0286,-5.027,-5.0253,-5.0237,-5.0253,-5.0286,-5.0286,0.0,-5.1249,-5.1348,-5.163,-5.2343,-5.2409,-5.2409,-5.2409,-5.2409,-5.2409,-5.2409,-5.2535,-5.2605,-5.2589,-5.2605,-5.2447,-5.2118,-5.1576,-5.1205,-5.1091,0.0,0.0,0.0,0.0,0.0,0.0,0.0,0.0,0.0,0.0,0.0,0.0,0.0,0.0,0.0,0.0,0.0,0.0,0.0,0.0,0.0,0.0,-4.5018,-4.4667,-4.4629,-4.4654,-4.4654,-4.5089,-4.5399,-4.5399,-4.6058,-4.6718,-4.7229,-4.7466,-4.7936,-4.8663,-4.8714,-4.8798,-4.9001,-4.9001,-4.9001,-4.9001,-4.9001,-4.9001,-4.9001,-4.9001,-4.9001,-4.9001,-4.9001,-4.9001,-4.9001,-4.9001,-4.9001,-4.9001,-4.9001,-4.9001,-4.8909,-4.7967,-4.7288,-4.6742,-4.6324,-4.5985,-4.5624,-4.5104,-4.4746,-4.461,-4.461,-4.461,-4.461,-4.461,-4.461,-4.4718,-4.5172,-4.5311,-4.5672,-4.7226,-4.7807,-4.8317,-4.9636,-4.9972,-5.0201,-5.0971,-5.1086,-5.1148,-5.1678,-5.1794,-5.1612,-5.1082,-5.0982,-5.1164,-5.1694,-5.1794,0.0,-5.2078,-5.2111,-5.2194,-5.2393,-5.2409,-5.2409,-5.2409,-5.2409,-5.2409,-5.2409,-5.2445,-5.2499,-5.2605,-5.2516,-5.2522,-5.2687,-5.264,-5.2707,0.0,0.0,0.0,0.0,0.0,0.0,0.0,0.0,0.0,0.0,0.0,0.0,0.0,0.0,0.0,0.0,0.0,0.0,0.0,0.0,0.0,0.0,-4.515,-4.5032,-4.4831,-4.472,-4.4772,-4.5038,-4.5432,-4.5821,-4.6126,-4.6836,-4.7445,-4.7855,-4.8176,-4.8562,-4.8984,-4.9001,-4.9001,-4.9001,-4.9001,-4.9001,-4.9001,-4.9001,-4.9001,-4.9001,-4.9001,-4.9001,-4.9001,-4.9001,-4.9001,0.0,-4.9001,-4.9001,-4.897,-4.8656,-4.8545,0.0,0.0,0.0,0.0,0.0,-4.6147,-4.5216,-4.5104,-4.4858,-4.461,-4.461,-4.481,-4.5003,-4.5003,-4.5241,-4.5573,-4.633,-4.65,-4.6884,-4.8514,-4.9034,-4.9422,-5.0603,-5.0904,-5.108,-5.1805,-5.1886,-5.1949,-5.2381,0.0,0.0,-5.1846,-5.1779,-5.1928,-5.2359,-5.2409,-5.2409,-5.2409,-5.2409,-5.2409,-5.2409,-5.2409,-5.2409,-5.2409,-5.2445,0.0,0.0,0.0,-5.2781,-5.2834,-5.2867,0.0,0.0,0.0,-5.3382,-5.3501,0.0,0.0,0.0,-5.19,-5.19,0.0,0.0,0.0,0.0,0.0,0.0,0.0,0.0,0.0,0.0,0.0,0.0,0.0,0.0,0.0,0.0,-4.5113,-4.4985,-4.4922,-4.4939,-4.5111,-4.5618,-4.5855,-4.621,-4.6853,-4.7597,-4.8007,-4.8007,-4.8646,-4.9001,-4.9001,0.0,0.0,0.0,0.0,-4.9001,-4.9001,-4.9001,-4.9001,-4.9001,-4.9001,-4.9001,-4.9001,-4.9001,-4.9001,-4.9001,-4.9001,-4.9001,-4.894,-4.8306,-4.7999,-4.7885,-4.7819,-4.7787,-4.7688,-4.6949,-4.5841,-4.4799,-4.5478,0.0,0.0,-4.4825,-4.5218,-4.5695,-4.5695,-4.6126,-4.6786,-4.7655,-4.7884,-4.8141,-4.9107,-4.9665,-5.0188,-5.0854,-5.1421,-5.1921,-5.2537,-5.2659,-5.2624,-5.2624,-5.2535,-5.2478,-5.2561,-5.2475,-5.2409,-5.2409,-5.244,-5.2489,-5.2489,-5.2572,-5.2622,-5.2622,0.0,0.0,-5.2622,-5.2748,-5.2803,-5.2838,-5.3189,-5.3431,-5.3431,-5.3602,-5.3636,-5.3465,-5.3636,-5.3754,-5.3754,-5.3754,-5.3754,-5.3754,-5.3382,-5.3348,0.0,0.0,0.0,0.0,0.0,0.0,0.0,0.0,0.0,0.0,0.0,0.0,0.0,0.0,0.0,-4.522,-4.5177,-4.5265,-4.5637,-4.5694,-4.5705,-4.5686,-4.6769,-4.7517,-4.7652,-4.8359,-4.8798,-4.8798,-4.8934,-4.9001,-4.9001,-4.9001,0.0,-4.9001,-4.9001,-4.9001,-4.9001,-4.9001,-4.9001,-4.9001,0.0,0.0,-4.9001,-4.9001,-4.9001,-4.9001,-4.9001,-4.9001,-4.9001,-4.8861,-4.845,-4.7852,-4.7254,-4.7017,-4.6914,-4.6182,-4.5733,-4.5499,-4.5592,-4.5542,-4.548,-4.6034,-4.6296,-4.6403,-4.6403,-4.6496,0.0,-4.8238,-4.8611,-4.9082,-5.1106,-5.171,-5.2004,-5.2771,-5.2924,-5.2939,-5.3041,-5.2938,-5.2834,-5.2834,-5.2799,-5.2948,-5.3354,-5.2862,-5.2409,-5.2409,-5.2854,-5.3218,-5.3218,-5.3748,-5.4096,-5.4096,-5.4096,-5.4096,-5.4096,-5.4096,-5.4206,-5.4353,-5.4606,-5.4749,-5.4749,-5.4927,-5.4998,-5.4962,-5.5172,-5.5294,-5.5294,-5.5294,-5.5294,-5.526,-5.4025,-5.3467,0.0,0.0,0.0,0.0,0.0,0.0,0.0,0.0,0.0,0.0,0.0,-4.5397,0.0,0.0,-4.5491,-4.5719,-4.5706,-4.5843,-4.6385,-4.6712,-4.6861,-4.6819,-4.7432,-4.8024,-4.8426,-4.8781,-4.9001,-4.9001,-4.9001,-4.9001,-4.9001,-4.9001,-4.9001,-4.9001,-4.9001,-4.9001,-4.9001,-4.9001,-4.9001,-4.9001,-4.9001,-4.9001,-4.9001,-4.9001,-4.9001,-4.9018,-4.939,-4.9543,-4.9514,-4.911,-4.8523,-4.7812,-4.7401,-4.7065,-4.671,-4.6328,-4.618,-4.6142,-4.6113,-4.6095,-4.6142,-4.648,-4.7121,-4.7723,-4.7723,-4.8231,-4.9104,-5.0236,-5.0573,-5.0913,-5.2507,-5.2903,-5.2989,-5.328,-5.3348,-5.3298,-5.3213,-5.3413,-5.3612,-5.3612,-5.3827,-5.409,-5.4334,-5.4028,-5.3687,-5.3486,-5.3748,-5.3964,-5.3964,-5.4295,-5.449,-5.449,-5.4584,-5.4658,-5.4658,-5.4842,-5.5041,-5.5221,-5.5329,-5.54,-5.54,-5.5488,-5.5559,-5.5559,-5.5646,-5.5681,-5.5681,-5.5681,-5.5681,-5.5664,-5.4955,-5.4617,0.0,0.0,0.0,0.0,0.0,0.0,0.0,-4.5423,-4.5397,-4.5397,-4.5397,-4.5397,-4.5397,-4.5518,-4.5774,-4.6224,-4.6326,-4.6516,-4.7121,-4.7619,-4.7939,-4.8091,-4.8091,-4.8359,-4.8951,-4.9001,-4.9001,-4.9001,-4.9001,-4.9001,-4.9001,-4.9001,-4.9001,-4.9001,-4.9001,-4.9001,-4.9001,-4.9001,-4.9001,-4.9001,-4.9001,-4.9001,-4.9001,-4.9001,-4.9086,-4.9255,-4.9982,-5.024,-5.0033,-4.9567,-4.8828,-4.8036,-4.8126,-4.7707,-4.7081,-4.6939,-4.6854,-4.6801,-4.6782,-4.6907,-4.7066,-4.7205,-4.813,-4.9254,-4.9254,-5.0111,-5.1257,-5.2076,-5.2307,-5.2501,-5.328,-5.3501,-5.3467,-5.3298,-5.3484,-5.367,-5.3517,-5.4056,-5.456,-5.456,-5.4925,-5.5255,-5.5353,-5.5386,-5.5191,-5.4691,-5.4754,-5.4837,-5.4837,-5.497,-5.5053,-5.5053,-5.5201,-5.5275,-5.5275,-5.5624,-5.5892,-5.6068,-5.6104,-5.6139,-5.6139,-5.6139,-5.6139,-5.6139,-5.6139,-5.6139,-5.6139,-5.6139,-5.6139,-5.6139,-5.6139,-5.5987,-4.6125,-4.6196,-4.6147,-4.6023,-4.5897,-4.5744,0.0,-4.5476,-4.5397,-4.5397,-4.5397,-4.5397,-4.5397,-4.5966,-4.6439,-4.6327,-4.6736,-4.7283,-4.7903,-4.7911,-4.8125,-4.8798,-4.8883,-4.8917,-4.9001,-4.9001,-4.9001,-4.9001,-4.9001,-4.9001,-4.9001,-4.9001,-4.9001,-4.9001,-4.9001,-4.9001,-4.9001,-4.9001,-4.9001,-4.9001,-4.9001,-4.9001,-4.9001,-4.9001,-4.9357,-5.0016,-5.076,-5.0658,-5.0057,-5.0693,-5.0105,-4.8828,-4.9555,-4.9296,-4.8478,-4.7839,-4.759,-4.7556,-4.7506,-4.7971,-4.8662,-4.9308,-5.0147,-5.0828,-5.0828,-5.0968,-5.1257,-5.2076,-5.2307,-5.2501,-5.328,-5.3501,-5.3501,-5.3467,-5.3991,-5.4465,-5.4465,-5.5022,-5.5546,-5.5546,-5.5579,-5.5778,-5.6275,-5.634,-5.6049,-5.5161,-5.5592,-5.601,-5.601,-5.6579,-5.7001,-5.7001,-5.7001,-5.7001,-5.7001,-5.7224,-5.7372,-5.7389,-5.7572,-5.7645,-5.7645,-5.7645,-5.7645,-5.7645,-5.7645,-5.7645,-5.7645,-5.7645,-5.7645,-5.7645,-5.7645,-5.6951,-4.6158,-4.6147,-4.6048,-4.5922,-4.577,-4.5641,-4.5528,-4.545,-4.5397,-4.5397,-4.5397,-4.5535,-4.6,-4.6291,-4.6663,0.0,-4.7636,-4.795,-4.8518,-4.8575,-4.8663,-4.8968,-4.9001,-4.9001,-4.9001,-4.9001,-4.9001,-4.9001,-4.9001,-4.9001,-4.9001,-4.9001,-4.9001,-4.9001,-4.9001,-4.9001,-4.9001,-4.9001,-4.9001,-4.9001,-4.9001,-4.9001,-4.9018,-4.9441,-5.027,-5.1403,-5.1708,-5.1932,-5.2034,-5.1881,-5.145,-5.0815,-5.0216,-5.0043,-4.9993,-4.8796,-4.862,-4.8969,-4.8953,-4.9449,-5.0197,-5.048,-5.1145,-5.1806,-5.1806,-5.2148,-5.2555,-5.2903,-5.2989,-5.3093,-5.3433,-5.3822,-5.4143,-5.4143,-5.4702,-5.5243,-5.5243,-5.5835,-5.6342,-5.6342,-5.6697,-5.7034,-5.7282,-5.7316,-5.7178,-5.6785,-5.6784,-5.6837,-5.6837,-5.7105,-5.7327,-5.7476,-5.7476,-5.7514,-5.7625,-5.7735,-5.7772,-5.7772,-5.7845,-5.7881,-5.7881,-5.7881,-5.7881,-5.7881,-5.7881,-5.7881,-5.7881,-5.7881,-5.7881,-5.7881,-5.7881,-5.756,-4.6147,-4.6073,-4.5947,-4.5795,-4.5667,-4.5563,-4.5423,-4.5397,-4.5466,-4.569,-4.5725,-4.5966,-4.6769,-4.6925,-4.7266,-4.8236,-4.8401,-4.8527,-4.8917,-4.9001,-4.9001,-4.9001,-4.9001,-4.9001,-4.9001,-4.9001,-4.9001,-4.9001,-4.9001,-4.9001,-4.9001,-4.9001,-4.9001,-4.9001,-4.9001,-4.9001,-4.9001,-4.9001,-4.9001,-4.9001,-4.9204,-4.9306,-4.934,-5.027,-5.1285,-5.2317,-5.2536,-5.2859,-5.3127,-5.2799,-5.2501,-5.22,-5.1273,-5.1124,-5.132,-5.0172,-4.9975,-5.0245,-5.0245,-5.0745,-5.1422,-5.1422,-5.2004,-5.2642,-5.2642,-5.3058,-5.3501,-5.3501,-5.3653,-5.3805,-5.3805,-5.4346,-5.4905,-5.4905,-5.548,-5.6021,-5.6021,-5.6579,-5.7103,-5.7103,-5.7526,-5.7881,-5.7881,-5.7881,-5.7881,-5.7881,-5.7662,-5.7476,-5.7476,-5.7476,-5.7514,-5.7662,-5.7698,-5.7735,-5.7881,-5.7881,-5.7881,-5.7881,-5.7881,-5.7881,-5.7881,-5.7881,-5.7881,-5.7881,-5.7881,-5.7881,-5.7881,-5.7881,-5.7881,-5.7881,-5.7881,-5.7881,-4.6048,-4.5998,-4.5922,-4.5667,-4.5589,-4.5563,-4.5423,-4.5397,-4.5621,-4.6406,-4.6562,-4.6803,-4.7517,-4.8128,-4.85,-4.8407,-4.8826,-4.9121,-4.9032,-4.9001,-4.9001,-4.9001,-4.9001,-4.9001,0.0,-4.9001,-4.9001,-4.9001,-4.9001,-4.9001,-4.9001,-4.9001,-4.9001,-4.9001,-4.9001,-4.9001,-4.9001,-4.9001,-4.9001,-4.9018,-4.9712,-5.005,-5.0101,-5.1572,-5.2266,-5.235,-5.3129,-5.3025,-5.2395,-5.3161,-5.3007,-5.2378,-5.3093,-5.2938,-5.2272,-5.2203,-5.17,-5.107,-5.107,-5.157,-5.2272,-5.2272,-5.2799,-5.3467,-5.3467,-5.3467,-5.3501,-5.3501,-5.4008,-5.4566,-5.4566,-5.5108,-5.5683,-5.5683,-5.6241,-5.6765,-5.6765,-5.734,-5.7865,-5.7865,-5.7865,-5.7881,-5.7881,-5.7881,-5.7881,-5.7881,-5.7881,-5.7881,-5.7881,-5.7881,-5.7881,-5.7881,-5.7881,-5.7881,-5.7881,-5.7881,-5.7881,-5.7881,-5.7881,-5.7881,-5.7881,-5.7881,-5.7881,-5.7881,-5.7881,-5.7881,-5.7881,-5.7881,-5.7881,-5.7881,-5.7881,-5.7881,-4.5998,-4.5871,-4.5718,-4.5615,-4.5528,-4.5588,-4.6096,-4.619,-4.6397,-4.7155,-4.731,-4.7579,-4.8275,-4.8466,-4.8607,-4.9073,-4.9076,-4.9063,-4.9001,-4.9001,-4.9001,-4.9001,-4.9001,0.0,0.0,0.0,0.0,-4.9001,-4.9001,-4.9001,-4.9001,-4.9001,-4.9001,-4.9001,-4.9001,-4.9001,-4.9001,-4.9492,-4.9729,-4.9729,-5.049,-5.1099,-5.1572,-5.208,-5.2587,-5.3112,-5.3382,-5.3365,-5.3127,-5.3399,-5.3348,-5.3058,-5.2799,-5.2868,-5.3024,-5.2501,-5.2449,-5.2626,-5.2059,-5.2414,-5.3093,-5.3093,-5.328,-5.3501,-5.3501,-5.3839,-5.4228,-5.4228,-5.4769,-5.5344,-5.5344,-5.5886,-5.6444,-5.6444,-5.6985,-5.7526,-5.7526,-5.7712,-5.7881,-5.7881,-5.7881,-5.7881,-5.7881,-5.7881,-5.7881,-5.7881,-5.7881,-5.7881,-5.7881,-5.7881,-5.7881,-5.7881,-5.7881,-5.7881,-5.7881,-5.7881,-5.7881,-5.7881,-5.7881,-5.7881,-5.7881,-5.7881,-5.7881,-5.7881,-5.7881,-5.7881,-5.7881,-5.7881,-5.7881,-5.7881,-5.7881,-5.7881,-4.5871,-4.5718,-4.5676,-4.59,-4.589,-4.6017,-4.6837,-4.6993,-4.7189,-4.7931,-4.8086,-4.8327,-4.9085,-4.8975,-4.8941,-4.9402,-4.9216,-4.9001,-4.9001,-4.9001,-4.9001,-4.9001,-4.9001,-4.9001,0.0,0.0,0.0,-4.9001,-4.9001,-4.9001,-4.9001,-4.9001,-4.9001,-4.9001,-4.9255,-4.939,-4.939,-5.0118,-5.0625,-5.0879,-5.1369,-5.1995,-5.2739,-5.2739,-5.301,-5.3501,-5.3501,-5.3501,-5.3501,-5.3501,-5.3501,-5.3433,-5.2938,-5.3058,-5.3433,-5.2903,-5.3058,-5.3433,-5.2903,-5.3058,-5.3501,-5.3501,-5.3501,-5.3551,-5.3805,-5.4211,-5.4634,-5.4921,-5.553,-5.6105,-5.6105,-5.6647,-5.7188,-5.7188,-5.7543,-5.7881,-5.7881,-5.7881,-5.7881,-5.7881,-5.7881,-5.7881,-5.7881,-5.7881,-5.7881,-5.7881,-5.7881,-5.7881,-5.7881,-5.7881,-5.7881,-5.7881,-5.7881,-5.7881,-5.7881,-5.7881,-5.7881,-5.7881,-5.7881,-5.7881,-5.7881,-5.7881,-5.7881,-5.7881,-5.7881,-5.7881,-5.7881,-5.7881,-5.7881,-5.7881,-5.7881,-5.7881,-4.5719,-4.5658,-4.5797,-4.6502,-4.6665,-4.6855,-4.7569,-4.7741,-4.7948,-4.8706,-4.8844,-4.9085,0.0,0.0,-4.9518,-4.9518,-4.9216,-4.9001,-4.9001,-4.9001,-4.9001,0.0,0.0,0.0,0.0,0.0,0.0,-4.9001,0.0,-4.9001,-4.9001,-4.9035,-4.9069,-4.9069,-4.9763,-5.0152,-5.0152,-5.0896,-5.164,-5.2367,-5.2367,-5.2756,-5.3501,-5.3501,-5.3501,-5.3501,-5.3501,-5.3501,-5.3501,-5.3501,-5.3501,-5.3501,-5.3501,-5.3501,-5.3501,-5.3501,-5.3501,-5.3501,-5.3501,-5.3501,-5.3518,-5.3551,-5.3568,-5.3687,-5.4431,-5.4668,-5.4854,-5.5581,-5.6292,-5.6867,-5.6867,-5.7374,-5.7881,-5.7881,-5.7881,-5.7881,-5.7881,-5.7881,-5.7881,-5.7881,-5.7881,-5.7881,-5.7881,-5.7881,-5.7881,-5.7881,-5.7881,-5.7881,-5.7881,-5.7881,-5.7881,-5.7881,-5.7881,-5.7881,-5.7881,-5.7881,-5.7881,-5.7881,-5.7881,-5.7881,-5.7881,-5.7881,-5.7881,-5.7881,-5.7881,-5.7881,-5.7881,-5.7881,-5.7881,-5.7881,-5.7881,-5.7881,-4.6343,-4.6436,-4.652,-4.7251,-4.7414,-4.7603,-4.8344,-4.8517,-4.8723,-4.9545,-4.97,-4.9769,-4.9959,-4.9713,-4.9518,-4.9518,-4.9216,0.0,-4.9001,-4.9001,0.0,-4.9001,-4.9001,-4.9001,-4.9001,-4.9001,0.0,0.0,-4.9001,-4.9001,-4.9001,-4.9509,-4.9813,-4.9813,-5.0541,-5.093,-5.093,-5.1657,-5.2418,-5.3196,-5.3196,-5.3298,-5.3501,-5.3501,-5.3501,-5.3501,-5.3501,-5.3501,-5.3501,-5.3501,-5.3501,-5.3501,-5.3501,-5.3501,-5.3501,-5.3501,-5.3501,-5.3501,-5.3501,-5.3501,-5.3602,-5.4143,-5.4313,-5.4448,-5.5209,-5.5801,-5.6275,-5.6478,-5.7053,-5.7611,-5.7611,-5.7746,-5.7881,-5.7881,-5.7881,-5.7881,-5.7881,-5.7881,-5.7881,-5.7881,-5.7881,-5.7881,-5.7881,-5.7881,-5.7881,-5.7881,-5.7881,-5.7881,-5.7881,-5.7881,-5.7881,-5.7881,-5.7881,-5.7881,-5.7881,-5.7881,-5.7881,-5.7881,-5.7881,-5.7881,-5.7881,-5.7881,-5.7881,-5.7881,-5.7881,-5.7881,-5.7881,-5.7881,-5.7881,-5.7881,-5.7881,-5.7881,-4.6627,-4.6892,-4.7269,-4.7982,-4.8172,-4.8379,-4.9137,-4.9338,-4.943,-4.9907,-5.0011,-4.9964,-4.9889,-4.9666,-4.9488,-4.9381,0.0,0.0,-4.9001,-4.9001,-4.9001,0.0,-4.9001,0.0,-4.9458,-4.9475,-4.9627,0.0,-4.9678,-4.9475,-4.9475,-5.0185,-5.0591,-5.0591,-5.1302,-5.186,-5.2215,-5.2621,-5.3061,-5.3501,-5.3501,-5.3501,-5.3501,-5.3501,-5.3501,-5.3501,0.0,-5.3501,-5.3501,-5.3501,-5.3501,-5.3501,-5.3501,-5.3501,-5.3501,-5.3501,-5.3501,-5.3501,-5.3501,-5.3721,-5.4042,-5.4465,-5.482,-5.5226,-5.597,-5.6478,-5.6867,-5.7188,-5.7577,-5.7881,-5.7881,-5.7881,-5.7881,-5.7881,-5.7881,-5.7881,-5.7881,-5.7881,-5.7881,-5.7881,-5.7881,-5.7881,-5.7881,-5.7881,-5.7881,-5.7881,-5.7881,-5.7881,-5.7881,-5.7881,-5.7881,-5.7881,-5.7881,-5.7881,-5.7881,-5.7881,-5.7881,-5.7881,-5.7881,-5.7881,-5.7881,-5.7881,-5.7881,-5.7881,-5.7881,-5.7881,-5.7881,-5.7881,-5.7881,-5.7881,-5.7881,-5.7881,-4.6882,-4.7372,-4.8017,-4.8758,-4.8947,-4.9137,-4.9855,-5.0011,-5.0011,-5.0011,-4.9982,-4.9906,-4.9737,-4.956,-4.9381,-4.9229,0.0,-4.9001,-4.9001,-4.9001,-4.9035,-4.9137,-4.9154,-4.9441,-5.0168,-5.0236,-5.0507,-5.1134,-5.0693,-5.0338,-5.0253,-5.0963,-5.1371,-5.1522,-5.2131,-5.279,-5.3501,-5.3501,-5.3501,-5.3501,-5.3501,-5.3501,-5.3501,-5.3501,-5.3501,-5.3501,0.0,0.0,-5.3501,-5.3501,-5.3501,-5.3501,-5.3501,-5.3501,-5.3501,-5.3501,-5.3501,-5.3518,-5.3619,-5.4126,-5.4735,-5.4735,-5.5243,-5.5987,-5.6731,-5.6951,-5.707,-5.7712,-5.7881,-5.7881,-5.7881,-5.7881,-5.7881,-5.7881,-5.7881,-5.7881,-5.7881,-5.7881,-5.7881,-5.7881,-5.7881,-5.7881,-5.7881,-5.7881,-5.7881,-5.7881,-5.7881,-5.7881,-5.7881,-5.7881,-5.7881,-5.7881,-5.7881,-5.7881,-5.7881,-5.7881,-5.7881,-5.7881,-5.7881,-5.7881,-5.7881,-5.7881,-5.7881,-5.7881,-5.7881,-5.7881,-5.7881,-5.7881,-5.7881,-5.7881,-5.7881,-5.7881,-4.8096,-4.8499,-4.8792,-4.9597,-4.9804,-4.9838,-4.9976,-5.0011,-5.0011,-5.0011,-4.986,-4.9737,-4.9708,-4.9441,-4.9229,-4.9199,-4.9094,-4.9001,-4.9001,-4.9001,-4.9221,0.0,-4.9898,-5.0202,-5.0947,-5.1014,0.0,0.0,0.0,-5.1657,-5.1048,-5.1725,-5.2418,-5.3078,-5.323,-5.3365,-5.3501,-5.3501,-5.3501,-5.3501,-5.3501,-5.3501,-5.3501,-5.3501,-5.3501,-5.3501,-5.3501,0.0,-5.3501,-5.3501,-5.3501,-5.3501,-5.3501,-5.3501,-5.3501,-5.3501,-5.3501,-5.3602,-5.4194,-5.4888,-5.553,-5.553,-5.6021,-5.6748,-5.7476,-5.7695,-5.7729,-5.7848,-5.7881,-5.7881,-5.7881,-5.7881,-5.7881,-5.7881,-5.7881,-5.7881,-5.7881,-5.7881,-5.7881,-5.7881,-5.7881,-5.7881,-5.7881,-5.7881,-5.7881,-5.7881,-5.7881,-5.7881,-5.7881,-5.7881,-5.7881,-5.7881,-5.7881,-5.7881,-5.7881,-5.7881,-5.7881,-5.7881,-5.7881,-5.7881,-5.7881,-5.7881,-5.7881,-5.7881,-5.7881,-5.7881,-5.7881,-5.7881,-5.7881,-5.7881,-5.7881,-5.7881,-4.8499,-4.9103,-4.9528,-4.9907,-5.0011,-5.0011,-5.0011,-5.0011,-4.9964,-4.986,-4.9784,-4.9649,-4.9471,-4.932,-4.9287,-4.9616,-4.93,-4.9137,-4.9509,-4.956,-4.9695,-5.005,-5.0439,-5.0963,-5.1708,-5.1775,-5.1961,0.0,0.0,-5.2587,-5.1826,-5.2503,-5.3112,-5.3501,-5.3501,-5.3501,-5.3501,-5.3501,-5.3501,-5.3501,-5.3501,-5.3501,-5.3501,-5.3501,-5.3501,-5.3501,-5.3501,0.0,-5.3501,-5.3501,-5.3501,-5.3501,-5.3501,-5.3501,-5.3501,-5.3501,-5.3501,-5.3619,-5.4329,-5.5091,-5.5784,-5.6156,-5.6765,-5.7442,-5.778,-5.7881,-5.7881,-5.7881,-5.7881,-5.7881,-5.7881,-5.7881,-5.7881,-5.7881,-5.7881,-5.7881,-5.7881,-5.7881,-5.7881,-5.7881,-5.7881,-5.7881,-5.7881,-5.7881,-5.7881,-5.7881,-5.7881,-5.7881,-5.7881,-5.7881,-5.7881,-5.7881,-5.7881,-5.7881,-5.7881,-5.7881,-5.7881,-5.7881,-5.7881,-5.7881,-5.7881,-5.7881,-5.7881,-5.7881,-5.7881,-5.7881,-5.7881,-5.7881,-5.7881,-5.7881,-5.7881,-5.7881,-4.881,-4.9528,-5.0011,-5.0011,-5.0011,-5.0011,-5.0011,-4.9964,-4.9889,-4.9737,-4.9649,-4.95,-4.926,-4.9168,-4.9345,-4.9997,-4.961,-4.9492,-5.0219,-5.0338,-5.0388,-5.0541,-5.1082,0.0,-5.2486,-5.2553,0.0,0.0,0.0,0.0,-5.2587,-5.3162,-5.3501,-5.3501,-5.3501,-5.3501,-5.3501,-5.3501,-5.3501,-5.3501,-5.3501,-5.3501,-5.3501,-5.3501,-5.3501,-5.3501,-5.3501,0.0,0.0,-5.3501,-5.3501,-5.3501,-5.3501,-5.3501,-5.3501,-5.3501,-5.3501,-5.3636,-5.4532,-5.5226,-5.5869,-5.6748,-5.7425,-5.7881,-5.7881,-5.7881,-5.7881,-5.7881,-5.7881,-5.7881,-5.7881,-5.7881,-5.7881,-5.7881,-5.7881,-5.7881,-5.7881,-5.7881,-5.7881,-5.7881,-5.7881,-5.7881,-5.7881,-5.7881,-5.7881,-5.7881,-5.7881,-5.7881,-5.7881,-5.7881,-5.7881,-5.7881,-5.7881,-5.7881,-5.7881,-5.7881,-5.7881,-5.7881,-5.7881,-5.7881,-5.7881,-5.7881,-5.7881,-5.7881,-5.7881,-5.7881,-5.7881,-5.7881,-5.7881,-5.7881,-5.7845,-5.7862,-4.9493,-4.9942,-5.0011,-5.0011,-5.0011,-5.0011,-5.0011,-4.986,-4.9708,-4.9708,-4.9471,-4.9229,-4.9199,-4.9077,-4.9269,-4.9965,-5.0033,-5.0253,-5.1014,-5.1083,-5.1352,-5.2029,0.0,0.0,-5.3315,-5.3399,0.0,0.0,0.0,0.0,-5.3399,-5.3467,-5.3501,-5.3501,-5.3501,-5.3501,-5.3501,-5.3501,-5.3501,-5.3501,-5.3501,-5.3501,-5.3501,-5.3501,-5.3501,-5.3501,-5.3501,0.0,0.0,-5.3501,-5.3501,-5.3501,-5.3501,-5.3501,-5.3501,-5.3501,-5.3501,-5.3704,-5.5124,-5.5649,-5.5953,-5.734,-5.7831,-5.7881,-5.7881,-5.7881,-5.7881,-5.7881,-5.7881,-5.7881,-5.7881,-5.7881,-5.7881,-5.7881,-5.7881,-5.7881,-5.7881,-5.7881,-5.7881,-5.7881,-5.7881,-5.7881,-5.7881,-5.7881,-5.7881,-5.7881,-5.7881,-5.7881,-5.7881,-5.7881,-5.7881,-5.7881,-5.7881,-5.7881,-5.7881,-5.7881,-5.7881,-5.7881,-5.7881,-5.7881,-5.7881,-5.7881,-5.7881,-5.7881,-5.7881,-5.7881,-5.7881,-5.7881,-5.7881,-5.7898,-5.7698,-5.7625,-4.9717,-5.0011,-5.0011,-5.0011,-5.0011,-4.9964,-4.986,-4.9755,-4.9649,-4.9441,-4.929,-4.9168,-4.9077,-4.9388,-4.9898,-5.0642,-5.076,-5.1031,-5.1775,-5.186,-5.1978,-5.2266,-5.2739,0.0,0.0,0.0,0.0,0.0,0.0,0.0,-5.3501,-5.3501,-5.3501,-5.3501,-5.3501,-5.3501,-5.3501,-5.3501,-5.3501,-5.3501,-5.3501,-5.3501,-5.3501,-5.3501,-5.3501,-5.3501,-5.3501,0.0,0.0,-5.3501,-5.3501,-5.3501,-5.3501,-5.3501,-5.3501,-5.3501,-5.3501,-5.3721,-5.5209,-5.5681,-5.5953,-5.7408,-5.7881,-5.7881,-5.7881,-5.7881,-5.7881,-5.7881,-5.7881,-5.7881,-5.7881,-5.7881,-5.7881,-5.7881,-5.7881,-5.7881,-5.7881,-5.7881,-5.7881,-5.7881,-5.7881,-5.7881,-5.7881,-5.7881,-5.7881,-5.7881,-5.7881,-5.7881,-5.7881,-5.7881,-5.7881,-5.7881,-5.7881,-5.7881,-5.7881,-5.7881,-5.7881,-5.7881,-5.7881,-5.7881,-5.7881,-5.7881,-5.7881,-5.7881,-5.7881,-5.7881,-5.7881,-5.7881,-5.7845,-5.7735,-5.7625,-5.7551,-4.9786,-5.0011,-5.0011,-5.0011,-4.9964,-4.986,-4.9737,-4.9619,-4.95,-4.926,-4.9168,-4.9107,-4.9001,-4.9593,-5.0338,-5.1099,-5.1403,-5.1792,-5.2553,-5.2655,-5.2655,-5.2655,0.0,-5.3501,0.0,0.0,0.0,0.0,0.0,0.0,0.0,-5.3501,-5.3501,-5.3501,-5.3501,-5.3501,-5.3501,-5.3501,-5.3501,-5.3501,-5.3501,-5.3501,-5.3501,-5.3501,-5.3501,-5.3501,0.0,0.0,0.0,-5.3501,-5.3501,-5.3501,-5.3501,-5.3501,-5.3501,-5.3501,-5.3501,-5.3721,-5.5209,-5.5681,-5.5953,-5.7408,-5.7881,-5.7881,-5.7881,-5.7881,-5.7881,-5.7881,-5.7881,-5.7881,-5.7881,-5.7881,-5.7881,-5.7881,-5.7881,-5.7881,-5.7881,-5.7881,-5.7881,-5.7881,-5.7881,-5.7881,-5.7881,-5.7881,-5.7881,-5.7881,-5.7881,-5.7881,-5.7881,-5.7881,-5.7881,-5.7881,-5.8082,-5.8118,-5.7918,-5.7881,-5.7881,-5.7881,-5.7881,-5.7881,-5.7881,-5.7881,-5.7881,-5.7881,-5.7881,-5.7881,-5.7881,-5.7881,-5.7808,-5.7698,-5.7551,-5.7364,-4.9786,-5.0011,-5.0011,-5.0011,-4.986,-4.9708,-4.9708,-4.9441,-4.9199,-4.9199,-4.9077,-4.9001,-4.9001,-4.9593,-5.0338,-5.1099,-5.1809,-5.257,-5.3382,-5.3501,-5.3501,0.0,0.0,-5.3501,0.0,0.0,0.0,0.0,0.0,0.0,0.0,-5.3501,-5.3501,-5.3501,-5.3501,-5.3501,-5.3501,-5.3501,-5.3501,-5.3501,-5.3501,-5.3501,-5.3501,-5.3501,-5.3501,0.0,0.0,0.0,0.0,-5.3501,-5.3501,-5.3501,-5.3501,-5.3501,-5.3501,-5.3501,-5.3501,-5.3721,-5.5209,-5.5681,-5.5953,-5.7408,-5.7881,-5.7881,-5.7881,-5.7881,-5.7881,-5.7881,-5.7881,-5.7881,-5.7881,-5.7881,-5.7881,-5.7881,-5.7881,-5.7881,-5.7881,-5.7881,-5.7881,-5.7881,-5.7881,-5.7881,-5.7881,-5.7881,-5.7881,-5.7881,-5.7881,-5.7881,-5.7881,-5.7881,-5.7881,-5.7881,-5.8476,-5.8616,-5.7954,-5.7881,-5.7881,-5.7881,-5.7881,-5.7881,-5.7881,-5.7881,-5.7881,-5.7881,-5.7881,-5.7881,-5.7881,-5.7881,-5.7881,-5.7881,-5.7476,-5.7101,-4.9744,-4.9906,-4.9935,-4.9713,-4.9696,-4.9649,-4.9411,-4.929,-4.9168,-4.9094,-4.9032,-4.9001,-4.9001,-5.0016,-5.0947,-5.1151,-5.2283,-5.3213,0.0,0.0,0.0,-5.3501,-5.3501,-5.3501,0.0,0.0,0.0,0.0,0.0,0.0,0.0,-5.3501,-5.3501,-5.3501,-5.3501,-5.3501,-5.3501,-5.3501,-5.3501,-5.3501,-5.3501,-5.3501,-5.3501,-5.3501,0.0,0.0,0.0,0.0,0.0,-5.3501,-5.3501,-5.3501,-5.3501,-5.3501,-5.3501,-5.3501,-5.3501,-5.3721,-5.5209,-5.5681,-5.5953,-5.7408,-5.7881,-5.7881,-5.7881,-5.7881,-5.7881,-5.7881,-5.7881,-5.7881,-5.7881,-5.7881,-5.7881,-5.7881,-5.7881,-5.7881,-5.7881,-5.7881,-5.7881,-5.7881,-5.8263,-5.8423,-5.7991,-5.8702,-5.9146,-5.8651,-5.9011,-5.9331,-5.9331,-5.9331,-5.9331,-5.9331,-5.9513,-5.9363,-5.8651,-5.8581,-5.8581,-5.8581,-5.8137,-5.7881,-5.7881,-5.7881,-5.7881,-5.7881,-5.7881,-5.7881,-5.7881,-5.7881,-5.7772,-5.7476,-5.7063,-5.6834,-4.9737,-4.9784,-4.983,-4.9577,-4.95,-4.9471,-4.926,-4.9168,-4.9077,-4.9001,-4.9001,-4.9001,-4.9001,-5.0219,-5.1185,-5.1185,-5.2503,-5.3501,0.0,0.0,0.0,-5.3501,0.0,0.0,0.0,0.0,0.0,0.0,0.0,0.0,0.0,-5.3501,-5.3501,-5.3501,-5.3501,-5.3501,-5.3501,-5.3501,-5.3501,-5.3501,-5.3501,-5.3501,-5.3501,-5.3501,0.0,0.0,0.0,0.0,0.0,-5.3501,-5.3501,-5.3501,-5.3501,-5.3501,-5.3501,-5.3501,-5.3501,-5.367,-5.4871,-5.548,-5.5919,-5.7103,-5.7662,-5.7881,-5.7881,-5.7881,-5.7881,-5.7881,-5.7881,-5.7881,-5.7881,-5.7881,-5.7881,-5.7881,-5.7881,-5.7881,-5.7881,-5.8118,-5.8263,-5.8263,-5.8841,-5.918,-5.8755,-5.9414,-5.9838,-5.9363,-5.9709,-5.9998,-5.9998,-5.9998,-5.9998,-5.9998,-6.0237,-6.0188,-5.9739,-5.9462,-5.9196,-5.8926,-5.8511,-5.8173,-5.7918,-5.7881,-5.7881,-5.7881,-5.7808,-5.7772,-5.7772,-5.7698,-5.7514,-5.7176,-5.6911,-5.6757,0.0,-4.9679,-4.9649,-4.9518,-4.932,-4.9199,-4.9199,-4.9094,0.0,-4.9001,-4.9001,-4.9001,-4.9001,-5.0219,-5.1185,-5.1185,-5.2503,-5.3501,0.0,-5.3501,0.0,0.0,-5.3467,0.0,0.0,0.0,0.0,0.0,0.0,0.0,0.0,-5.3501,-5.3501,-5.3501,-5.3501,-5.3501,-5.3501,-5.3501,-5.3501,-5.3501,-5.3501,-5.3501,-5.3501,-5.3501,0.0,0.0,0.0,0.0,0.0,-5.3501,-5.3501,-5.3501,-5.3501,-5.3501,-5.3501,-5.3501,-5.3501,-5.3619,-5.4329,-5.5057,-5.5767,-5.6545,-5.7289,-5.7881,-5.7881,-5.7881,-5.7881,-5.7881,-5.7881,-5.7881,-5.7881,-5.7881,-5.7881,-5.7881,-5.7881,-5.7918,-5.7954,-5.8458,-5.8926,-5.896,-5.9561,-6.0079,-5.9998,-6.0079,-6.0143,-6.0079,-6.0093,-6.0125,-6.0125,-6.0125,-6.0125,-6.0125,-6.0686,-6.1063,-6.1075,-6.0406,-5.9709,-5.9028,-5.8892,-5.8546,-5.7918,-5.7881,-5.7881,-5.7881,-5.7698,-5.7625,-5.7588,-5.7402,-5.7214,-5.6987,-5.7025,-5.6911,-4.935,0.0,-4.9488,-4.9185,-4.9168,-4.9168,0.0,-4.9032,-4.9001,-4.9001,-4.9001,-4.9001,-4.9001,-5.0219,-5.1185,-5.1185,-5.2503,-5.3501,-5.3501,0.0,0.0,-5.3264,0.0,0.0,0.0,0.0,0.0,0.0,0.0,0.0,0.0,-5.3501,-5.3501,-5.3501,-5.3501,-5.3501,-5.3501,-5.3501,-5.3501,-5.3501,-5.3501,-5.3501,-5.3501,-5.3501,0.0,0.0,0.0,0.0,-5.3501,-5.3501,-5.3501,-5.3501,-5.3501,-5.3501,-5.3501,-5.3501,-5.3501,-5.3619,-5.4329,-5.4702,-5.5074,-5.6376,-5.7289,-5.7881,-5.7881,-5.7881,-5.7881,-5.7881,-5.7881,-5.7881,-5.7881,-5.7881,-5.7881,-5.7881,-5.7881,-5.8046,-5.8546,-5.8806,-5.9062,-5.9626,-6.0313,-6.0608,-6.0093,-6.0837,-6.1343,-6.0849,-6.121,-6.1533,-6.1533,-6.1533,-6.1533,-6.1533,-6.1664,-6.1766,-6.1748,-6.0669,-5.9934,-5.9741,-5.8737,-5.8082,-5.7935,-5.7881,-5.7881,-5.7881,-5.7845,-5.7735,-5.7588,-5.7402,-5.7214,-5.7025,-5.7327,-5.7176,-4.9138,-4.9229,-4.929,-4.9063,-4.9063,-4.9094,-4.9001,-4.9001,-4.9001,-4.9001,-4.9001,-4.9001,-4.9001,-5.0219,-5.1185,-5.1185,-5.2503,0.0,0.0,0.0,-5.3348,-5.3348,0.0,0.0,0.0,0.0,0.0,0.0,0.0,0.0,0.0,-5.3501,-5.3501,-5.3501,-5.3501,-5.3501,-5.3501,-5.3501,-5.3501,-5.3501,-5.3501,-5.3501,-5.3501,-5.3501,-5.3501,0.0,0.0,0.0,-5.3501,-5.3501,-5.3501,-5.3501,-5.3501,-5.3501,-5.3501,-5.3501,-5.3501,-5.3568,-5.3957,-5.4313,-5.4837,-5.6325,-5.707,-5.7459,-5.778,-5.7881,-5.7881,-5.7881,-5.7881,-5.7881,-5.7881,-5.7881,-5.7881,-5.7881,-5.8137,-5.8458,-5.8823,-5.9412,-5.9963,-6.0375,-6.0986,-6.1343,-6.0956,-6.1505,-6.1895,-6.1487,-6.1766,-6.1996,-6.1996,-6.1996,-6.1996,-6.1996,-6.1996,-6.1895,-6.1561,-6.0897,-6.0313,-6.0016,-5.8875,-5.8084,-5.7772,-5.7662,-5.7588,-5.7476,-5.7476,-5.7402,-5.7176,-5.7063,-5.7101,-5.7289,-5.7514,-5.7439,-4.8998,-4.9077,-4.9138,-4.9032,-4.9001,-4.9001,-4.9001,-4.9001,-4.9001,-4.9001,-4.9001,-4.9001,-4.897,-5.0188,-5.1153,-5.1153,0.0,0.0,-5.3365,-5.3348,-5.3348,0.0,0.0,0.0,0.0,0.0,0.0,0.0,0.0,0.0,0.0,-5.3501,-5.3501,-5.3501,-5.3501,-5.3501,-5.3501,-5.3501,-5.3501,-5.3501,-5.3501,-5.3501,-5.3501,-5.3501,-5.3501,0.0,0.0,0.0,-5.3501,-5.3501,-5.3501,-5.3501,-5.3501,-5.3501,-5.3501,-5.3501,-5.3501,-5.3501,-5.3501,-5.3974,-5.4803,-5.6055,-5.6613,-5.6917,-5.7543,-5.7797,-5.7881,-5.7881,-5.7881,-5.7881,-5.7881,-5.7881,-5.7881,-5.7881,-5.8423,-5.8926,-5.9028,-6.0107,-6.1045,-6.1133,-6.159,-6.1996,-6.1996,-6.1996,-6.1996,-6.1996,-6.1996,-6.1996,-6.1996,-6.1996,-6.1996,-6.1996,-6.1996,-6.172,-6.1045,-6.0927,-6.0529,-5.9821,-5.9044,-5.8283,-5.7588,-5.7402,-5.7214,-5.7063,-5.7063,-5.6987,-5.6872,-5.6872,-5.716,-5.7718,-5.7718,-5.7698,-4.8849,-4.9001,-4.9032,-4.9001,-4.9001,-4.9001,-4.9001,-4.9001,-4.9001,-4.9001,-4.9001,-4.8987,-4.8832,-5.0045,-5.1039,-5.1039,0.0,-5.3127,0.0,0.0,0.0,0.0,0.0,0.0,0.0,0.0,0.0,0.0,0.0,0.0,0.0,0.0,-5.3501,-5.3501,-5.3501,-5.3501,-5.3501,-5.3501,-5.3501,-5.3501,-5.3501,-5.3501,-5.3501,-5.3501,-5.3501,0.0,0.0,-5.3501,-5.3501,-5.3501,-5.3501,-5.3501,-5.3501,-5.3501,-5.3501,-5.3501,-5.3501,-5.3501,-5.3501,-5.3974,-5.4634,-5.4854,-5.5784,-5.6816,-5.6934,-5.7391,-5.7881,-5.7881,-5.7881,-5.7881,-5.7881,-5.7881,-5.7881,-5.7881,-5.8423,-5.9062,-5.9709,-6.0437,-6.1163,-6.1738,-6.1923,-6.1996,-6.1996,-6.1996,-6.1996,-6.1996,-6.1996,-6.1996,-6.1996,-6.1996,-6.1996,-6.1996,-6.1996,-6.172,-6.1045,-6.0468,-5.9756,-5.8857,-5.8703,-5.823,-5.7385,-5.7327,-5.7289,-5.7252,-5.7252,-5.7402,-5.7698,-5.7698,-5.7901,-5.828,-5.828,-5.8029,-4.8798,-4.9001,-4.9001,-4.9001,-4.9001,-4.9001,-4.9001,-4.894,-4.8894,-4.8894,-4.8815,-4.8704,-4.8658,-4.9516,-5.0507,-5.1296,0.0,-5.2972,0.0,0.0,0.0,0.0,0.0,0.0,0.0,0.0,0.0,0.0,0.0,0.0,0.0,0.0,-5.3348,-5.3348,-5.3433,-5.3467,-5.3348,-5.3467,-5.3501,-5.3501,-5.3501,-5.3501,-5.3501,-5.3501,-5.3501,-5.3501,0.0,-5.3501,-5.3501,-5.3501,-5.3501,-5.3501,-5.3501,-5.3501,-5.3501,-5.3501,-5.3501,-5.3501,-5.3501,-5.3721,-5.4059,-5.4465,-5.5057,-5.575,-5.6562,-5.6765,-5.6884,-5.7679,-5.7881,-5.7881,-5.7881,-5.7881,-5.7991,-5.8352,-5.8977,-5.9691,-6.0375,-6.1093,-6.1636,-6.195,-6.1996,-6.1996,-6.1996,-6.1996,-6.1996,-6.1996,-6.1996,-6.1996,-6.1996,-6.1996,-6.1923,-6.1766,-6.1487,-6.0968,-6.0093,-5.9803,-5.9179,-5.7978,-5.7797,-5.75,-5.6987,-5.6987,-5.7139,-5.7476,-5.7476,-5.7681,-5.819,-5.819,-5.8422,-5.8875,-5.8545,-5.828,-4.8748,-4.9001,-4.9001,-4.9001,-4.9001,-4.9001,-4.894,-4.8863,-4.8786,-4.8738,-4.8595,-4.8483,-4.8452,-4.9172,0.0,-5.1713,-5.2431,0.0,0.0,0.0,0.0,0.0,0.0,0.0,0.0,0.0,0.0,0.0,0.0,0.0,0.0,0.0,-5.3179,-5.3179,-5.3314,-5.328,-5.311,-5.328,-5.3348,-5.3348,-5.3433,-5.3433,-5.3348,-5.3433,-5.3416,-5.3416,-5.3467,-5.3501,-5.3501,-5.3501,-5.3501,-5.3501,-5.3501,-5.3501,-5.3501,-5.3501,-5.3501,-5.3501,-5.3501,-5.3501,-5.3602,-5.416,-5.4448,-5.4803,-5.5936,-5.6021,-5.5953,-5.707,-5.7374,-5.7459,-5.7797,-5.8027,-5.8263,-5.8772,-5.9594,-6.0375,-6.0879,-6.1533,-6.1996,-6.1996,-6.1996,-6.1996,-6.1996,-6.1996,-6.1978,-6.1895,-6.195,-6.1969,-6.1812,-6.184,-6.1766,-6.1419,-6.0909,-6.0135,-5.9095,-5.8909,-5.839,-5.731,-5.7101,-5.6911,-5.6735,-5.668,-5.6987,-5.7588,-5.7476,-5.7792,-5.8597,-5.8492,-5.8702,-5.9284,-5.8702,-5.8351,-4.8612,-4.9001,-4.9001,-4.9001,-4.9001,-4.8987,-4.8832,-4.8818,-4.8738,-4.8547,-4.8515,-4.8452,-4.826,-4.9376,-5.0791,-5.213,-5.2501,0.0,0.0,0.0,0.0,0.0,0.0,0.0,0.0,0.0,0.0,0.0,0.0,0.0,0.0,0.0,0.0,-5.3179,-5.3041,-5.2938,-5.2903,-5.2938,-5.2938,-5.2955,-5.311,-5.311,-5.2938,-5.3161,-5.3213,-5.323,-5.3433,-5.3501,-5.3501,-5.3501,-5.3501,-5.3501,-5.3501,-5.3501,-5.3501,-5.3501,-5.3501,-5.3501,-5.3501,-5.3501,-5.3518,-5.3568,-5.4042,-5.4617,-5.4718,-5.5209,-5.5733,-5.5852,-5.5869,-5.619,-5.7543,-5.8352,-5.8823,-5.8892,-5.9931,-6.0939,-6.0968,-6.1533,-6.1996,-6.1996,-6.1996,-6.1996,-6.1996,-6.1996,-6.1895,-6.159,-6.1794,-6.1784,-6.1241,-6.1379,-6.1437,-6.1152,-6.0595,-5.9721,-5.846,-5.7651,-5.7122,-5.7025,-5.7025,-5.6911,-5.6735,-5.668,-5.6987,-5.7588,-5.7063,-5.7591,-5.9233,-5.865,-5.8702,-5.9284,-5.8702,-5.8137,-4.8595,-4.8956,-4.8863,-4.8863,-4.8784,-4.8721,-4.8769,-4.8612,-4.8405,-4.8324,-4.8244,-4.8297,-4.8696,0.0,-5.0587,-5.1564,0.0,0.0,0.0,0.0,0.0,0.0,0.0,0.0,0.0,0.0,0.0,0.0,0.0,0.0,0.0,0.0,0.0,-5.2834,-5.2868,-5.2834,-5.2694,-5.2834,-5.2816,-5.257,-5.2885,-5.3041,-5.3076,-5.3161,-5.3264,-5.3382,-5.3467,-5.3501,-5.3501,-5.3501,-5.3501,-5.3501,-5.3501,-5.3501,-5.3501,-5.3501,-5.3501,-5.3501,-5.3501,-5.3501,-5.3501,-5.3501,-5.3687,-5.3991,-5.4448,-5.4465,-5.4532,-5.5428,-5.5378,-5.5347,-5.6748,-5.7277,-5.7815,-5.9155,-5.9881,-6.0503,-6.1425,-6.1822,-6.1996,-6.1996,-6.1996,-6.1996,-6.1996,-6.1996,-6.1969,-6.1822,-6.172,-6.1608,-6.1379,-6.1292,-6.098,-6.0303,-5.9247,-5.8247,-5.7355,-5.6992,-5.6796,-5.6796,-5.6796,-5.6757,-5.668,-5.668,-5.716,-5.8065,-5.7534,-5.792,-5.93,-5.8702,-5.8527,-5.8737,-5.8173,-5.7792,-4.8442,-4.8784,-4.8707,-4.8707,-4.8564,-4.8452,-4.858,-4.8405,-4.8195,-4.8147,-4.8049,-4.8233,-4.8961,-4.9707,0.0,0.0,0.0,0.0,0.0,0.0,0.0,0.0,0.0,0.0,0.0,0.0,0.0,0.0,0.0,0.0,0.0,0.0,0.0,0.0,-5.2711,-5.2676,-5.2535,-5.2676,-5.264,-5.2409,-5.2676,-5.2868,-5.3007,-5.3076,-5.323,-5.3416,-5.3467,-5.3501,-5.3501,-5.3501,-5.3501,-5.3501,-5.3501,-5.3501,-5.3501,-5.3501,-5.3501,-5.3501,-5.3501,-5.3501,-5.3501,-5.3501,-5.3501,-5.3602,-5.4093,-5.3907,-5.3721,-5.4735,-5.4788,-5.4801,-5.5934,-5.6579,-5.7384,-5.9017,-5.9567,-6.0001,-6.101,-6.1245,-6.1245,-6.1245,-6.1245,-6.1245,-6.1245,-6.1435,-6.1571,-6.1488,-6.1558,-6.1608,-6.1408,-6.1223,-6.0618,-5.9431,-5.8298,-5.7364,-5.6757,-5.668,-5.668,-5.668,-5.668,-5.668,-5.668,-5.668,-5.716,-5.8137,-5.7608,-5.7884,-5.9012,-5.8422,-5.8137,-5.8137,-5.7755,-5.7514,-4.8113,-4.8515,-4.8515,-4.8515,-4.8356,-4.8195,-4.8195,-4.8195,-4.8163,-4.8033,-4.8001,-4.8233,-4.8961,-4.9707,0.0,0.0,0.0,0.0,0.0,0.0,0.0,0.0,0.0,0.0,0.0,0.0,0.0,0.0,0.0,0.0,0.0,0.0,0.0,0.0,-5.248,-5.2409,-5.2409,-5.2409,-5.2409,-5.2409,-5.2535,-5.2589,-5.2589,-5.2799,-5.3007,-5.3213,-5.3416,-5.3501,-5.3501,-5.3501,-5.3501,-5.3501,-5.3501,-5.3501,-5.3501,-5.3501,-5.3501,-5.3501,-5.3501,-5.3501,-5.3501,-5.3501,-5.3501,-5.3501,-5.3501,-5.3501,-5.3501,-5.3501,-5.3946,-5.4579,-5.5236,-5.6556,-5.7849,-5.8441,-5.9114,-5.9597,-5.9615,-5.9615,-5.9615,-5.9615,-5.9615,-5.9615,-5.9615,-6.0267,-6.0684,-6.0356,-6.1253,-6.1766,-6.1164,-6.1093,-6.0384,-5.8563,-5.7884,-5.7364,-5.6757,-5.668,-5.668,-5.668,-5.668,-5.668,-5.668,-5.668,-5.6987,-5.7588,-5.7025,-5.7256,-5.8369,-5.7865,-5.7588,-5.7588,-5.7588,-5.7289,-4.8113,-4.8388,-4.8292,-4.8292,-4.8179,-4.8049,-4.8049,-4.8049,-4.8066,-4.8001,-4.8001,-4.8233,-4.8961,-4.9293,0.0,0.0,0.0,0.0,0.0,0.0,0.0,0.0,0.0,0.0,0.0,0.0,0.0,0.0,0.0,0.0,0.0,0.0,0.0,0.0,-5.2409,-5.2409,-5.2409,-5.2409,-5.2409,-5.2409,-5.2445,-5.257,-5.2799,-5.3007,-5.323,-5.3416,-5.3467,-5.3501,-5.3501,-5.3501,-5.3501,-5.3501,-5.3501,-5.3501,-5.3501,-5.3501,-5.3501,-5.3501,-5.3501,-5.3501,-5.3501,-5.3501,-5.3501,-5.3501,-5.3501,-5.3816,-5.4139,-5.4139,-5.4596,-5.5266,-5.5876,-5.6372,-5.6993,-5.8188,-5.8615,-5.8909,-5.9488,-5.9615,-5.9615,-5.9615,-5.9615,-5.9615,-5.9615,-5.9814,-5.9932,-5.9835,-5.9899,-5.9739,-5.9136,-5.8689,-5.8235,-5.7671,-5.7214,-5.6872,-5.6719,-5.668,-5.668,-5.668,-5.668,-5.668,-5.668,-5.668,-5.6987,-5.7588,-5.7025,-5.7101,-5.7828,-5.7235,-5.6949,-5.6949,-5.6949,-5.6872,-4.7908,-4.8212,-4.8115,-4.8115,-4.8049,-4.8001,-4.8001,-4.8001,-4.8001,-4.8001,-4.8001,-4.815,-4.858,-4.8912,0.0,0.0,0.0,0.0,0.0,0.0,0.0,0.0,0.0,0.0,0.0,0.0,0.0,0.0,0.0,0.0,0.0,0.0,0.0,0.0,-5.2409,-5.2409,-5.2409,-5.2409,-5.2409,-5.2409,-5.2445,-5.257,-5.2799,-5.2972,-5.3195,-5.3382,-5.3467,-5.3501,-5.3501,-5.3501,-5.3501,-5.3501,-5.3501,-5.3501,-5.3501,-5.3501,-5.3501,-5.3501,-5.3501,-5.3501,-5.3501,-5.3501,-5.3501,-5.3517,-5.3783,-5.4106,-5.4454,-5.4734,-5.5249,-5.5848,-5.6201,-5.6474,-5.6866,-5.7727,-5.7913,-5.8058,-5.8546,-5.8655,-5.8655,-5.8655,-5.8655,-5.8629,-5.8499,-5.8752,-5.8915,-5.8826,-5.887,-5.8695,-5.8023,-5.7391,-5.6902,-5.6573,-5.6365,-5.6266,-5.6266,-5.6531,-5.668,-5.668,-5.668,-5.668,-5.668,-5.668,-5.6872,-5.7252,-5.6872,-5.6872,-5.7252,-5.6872,-5.668,-5.668,-5.668,-5.668,-4.7603,-4.8001,-4.8001,-4.8001,-4.8001,-4.8001,-4.8001,-4.8001,-4.8001,-4.8001,-4.8001,-4.8001,-4.8001,-4.8547,0.0,0.0,0.0,0.0,0.0,0.0,0.0,0.0,0.0,0.0,0.0,0.0,0.0,0.0,0.0,0.0,0.0,0.0,0.0,0.0,-5.2409,-5.2409,-5.2409,-5.2409,-5.2409,0.0,-5.2535,-5.257,-5.2589,-5.2834,-5.3041,-5.323,-5.3433,-5.3501,-5.3501,-5.3501,-5.3501,-5.3501,-5.3501,-5.3501,-5.3501,-5.3501,-5.3501,-5.3501,-5.3501,-5.3501,-5.3501,-5.3551,-5.3584,-5.3701,-5.4313,-5.4548,-5.4686,-5.5325,-5.5922,-5.6366,-5.6366,-5.6785,-5.7188,-5.7188,-5.7188,-5.7188,-5.7188,-5.7188,-5.7188,-5.7188,-5.7188,-5.7112,-5.6847,-5.7406,-5.781,-5.7527,-5.8042,-5.8165,-5.7381,-5.6802,-5.6164,-5.5373,-5.5429,-5.5483,-5.5483,-5.6183,-5.6597,-5.6597,-5.6647,-5.668,-5.668,-5.668,-5.668,-5.668,-5.668,-5.668,-5.668,-5.668,-5.668,-5.668,-5.668,-5.668,-4.7603,-4.8001,-4.8001,-4.8001,-4.8001,-4.8001,-4.8001,-4.8001,-4.8001,-4.8001,-4.8001,-4.8001,-4.8001,0.0,0.0,0.0,0.0,0.0,0.0,0.0,0.0,0.0,0.0,0.0,0.0,0.0,0.0,0.0,0.0,0.0,0.0,0.0,0.0,-5.2409,-5.2409,-5.2409,-5.2409,-5.2409,-5.2409,0.0,-5.2445,-5.2445,-5.2445,-5.292,-5.323,-5.3433,-5.3467,-5.3501,-5.3501,-5.3501,-5.3501,-5.3501,-5.3501,-5.3501,-5.3501,-5.3501,-5.3501,-5.3501,-5.3501,-5.3501,-5.3584,-5.4059,-5.4203,-5.4313,-5.4996,-5.5513,-5.5915,-5.6063,-5.6528,-5.701,-5.701,-5.7112,-5.7188,-5.7188,-5.7188,-5.7188,-5.7188,-5.7188,-5.7188,-5.7188,-5.7188,-5.7112,-5.6847,-5.6938,-5.6958,-5.6705,-5.6581,-5.6292,-5.5679,-5.5455,-5.5111,-5.4527,-5.4625,-5.4721,-5.4721,-5.54,-5.5852,-5.5852,-5.6382,-5.668,-5.668,-5.668,-5.668,-5.668,-5.668,-5.668,-5.668,-5.668,-5.668,-5.668,-5.668,-5.668,-4.7603,-4.8001,-4.8001,-4.8001,-4.8001,-4.8001,-4.8001,-4.8001,-4.8001,-4.8001,-4.8001,-4.8001,0.0,0.0,0.0,0.0,0.0,0.0,0.0,0.0,0.0,0.0,0.0,0.0,0.0,0.0,0.0,0.0,0.0,0.0,0.0,-5.2409,-5.2409,-5.2409,-5.2409,-5.2243,-5.1895,-5.1879,-5.1678,-5.1347,-5.1347,-5.1365,-5.1469,-5.2551,-5.3195,-5.3501,-5.3501,-5.3501,-5.3501,-5.3501,-5.3501,-5.3501,-5.3501,-5.3501,-5.3501,-5.3501,-5.3501,-5.3501,-5.3501,-5.3701,-5.3979,-5.4313,-5.461,-5.5009,-5.5647,-5.6063,-5.6366,-5.6635,-5.6959,-5.7188,-5.7188,-5.7188,-5.7188,-5.7188,-5.7188,-5.7188,-5.7188,-5.7105,-5.7003,-5.7003,-5.6899,-5.6715,-5.6402,-5.6255,-5.6134,-5.5982,-5.5822,-5.5408,-5.4641,-5.4497,-5.4177,-5.3421,-5.3731,-5.398,-5.398,-5.4638,-5.5201,-5.5565,-5.5968,-5.6332,-5.668,-5.668,-5.668,-5.668,-5.668,-5.668,-5.668,-5.668,-5.668,-5.668,-5.668,-5.668,-4.7603,-4.8001,-4.8001,-4.8001,-4.8001,-4.8001,-4.8001,-4.8001,-4.8001,-4.8001,-4.8001,-4.8001,0.0,0.0,0.0,0.0,0.0,0.0,0.0,0.0,0.0,0.0,0.0,0.0,0.0,0.0,0.0,0.0,0.0,0.0,-5.2227,-5.2227,-5.2125,-5.2009,-5.2009,-5.1711,-5.1133,-5.1098,-5.08,-5.022,-5.022,-5.0289,-5.0459,-5.1863,-5.2706,-5.3078,-5.3078,-5.3112,-5.3112,-5.3112,-5.3112,-5.3129,-5.3247,-5.3298,-5.3315,-5.345,-5.3501,-5.3501,-5.3501,-5.3832,-5.4281,-5.4485,-5.4948,-5.5531,-5.6257,-5.6447,-5.6555,-5.7061,-5.7188,-5.7188,-5.7188,-5.7188,-5.7188,-5.7188,-5.7188,-5.7188,-5.7188,-5.6951,-5.6742,-5.6794,-5.6546,-5.6217,-5.5947,-5.559,-5.5371,-5.5478,-5.5419,-5.5005,-5.4042,-5.3912,-5.3533,-5.2516,-5.2904,-5.3235,-5.3235,-5.3914,-5.4605,-5.535,-5.5516,-5.5951,-5.6663,-5.668,-5.668,-5.668,-5.668,-5.668,-5.668,-5.668,-5.668,-5.668,-5.668,-5.668,-4.7603,-4.8001,-4.8001,-4.8001,-4.8001,-4.8001,-4.8001,-4.8001,-4.8001,0.0,-4.8001,0.0,0.0,0.0,0.0,0.0,0.0,0.0,0.0,0.0,0.0,0.0,0.0,0.0,0.0,0.0,0.0,0.0,0.0,0.0,-5.1498,-5.1464,-5.1131,-5.0518,-5.0502,-5.0452,-5.0353,-5.0353,-5.0303,-5.022,-5.022,-5.0289,-5.0409,-5.0811,-5.1111,-5.1343,-5.1457,-5.1522,-5.1522,-5.1522,-5.1522,-5.1589,-5.2215,-5.2469,-5.2536,-5.3247,-5.3501,-5.3501,-5.3501,-5.3551,-5.3783,-5.4922,-5.5325,-5.5618,-5.674,-5.7087,-5.7087,-5.7163,-5.7188,-5.7188,-5.7188,-5.7188,-5.7188,-5.7188,-5.7188,-5.7188,-5.7188,-5.6794,-5.6519,-5.6742,-5.6365,-5.5947,-5.5918,-5.5289,-5.4974,-5.5448,-5.5113,-5.4586,-5.3977,-5.3912,-5.3533,-5.2516,-5.2473,-5.2523,-5.2523,-5.3169,-5.3881,-5.4589,-5.5234,-5.5951,-5.6663,-5.668,-5.668,-5.668,-5.668,-5.668,-5.668,-5.668,-5.668,-5.668,-5.668,-5.668,-4.7603,-4.8001,-4.8001,-4.8001,-4.8001,-4.8001,-4.8001,-4.8001,-4.8001,-4.8001,0.0,0.0,0.0,0.0,0.0,0.0,0.0,0.0,0.0,0.0,0.0,0.0,0.0,0.0,0.0,0.0,0.0,0.0,0.0,-5.1032,-5.0701,-5.0684,-5.0535,-5.022,-5.022,-5.0005,-4.9607,-4.9591,-4.9392,-4.8978,-4.8978,-4.8995,-4.9061,-4.9324,-5.0021,-5.1024,-5.112,-5.1185,-5.1185,-5.1185,-5.1185,-5.1219,-5.1572,-5.1691,-5.1742,-5.2097,-5.2469,-5.2841,-5.2841,-5.3343,-5.4091,-5.4658,-5.5308,-5.5989,-5.6528,-5.6915,-5.7188,-5.7188,-5.7188,-5.7188,-5.7188,-5.7188,-5.7163,-5.7028,-5.6873,-5.6742,-5.6742,-5.6573,-5.6328,-5.6106,-5.585,-5.5695,-5.5695,-5.5109,-5.4772,-5.5022,-5.4617,-5.4042,-5.3499,-5.3432,-5.3196,-5.248,-5.2409,-5.2409,-5.2409,-5.2655,-5.3135,-5.3864,-5.4556,-5.5301,-5.6067,-5.6481,-5.668,-5.668,-5.668,-5.668,-5.668,-5.668,-5.668,-5.668,-5.668,-5.668,-4.7653,-4.8001,-4.8001,-4.8001,-4.8001,-4.8001,0.0,0.0,-4.8001,0.0,0.0,0.0,0.0,0.0,0.0,0.0,0.0,0.0,0.0,0.0,0.0,0.0,0.0,0.0,0.0,0.0,0.0,0.0,0.0,-5.0137,-4.9939,-4.9939,-4.9839,-4.9657,-4.9657,-4.9392,-4.8845,-4.8829,-4.8547,-4.8001,-4.8001,-4.8001,-4.8001,-4.834,-4.9182,-5.0369,-5.0563,-5.0659,-5.0659,-5.0659,-5.0659,-5.0676,-5.0862,-5.093,-5.0947,-5.1117,-5.1555,-5.2029,-5.2029,-5.2726,-5.3633,-5.396,-5.4834,-5.5826,-5.6143,-5.6675,-5.7188,-5.7188,-5.7188,-5.7163,-5.713,-5.7105,-5.7028,-5.6768,-5.6546,-5.6373,-5.6189,-5.6217,-5.6106,-5.5596,-5.5507,-5.5448,-5.5312,-5.4834,-5.4506,-5.4506,-5.4042,-5.355,-5.3145,-5.3111,-5.2922,-5.2445,-5.2409,-5.2409,-5.2409,-5.2409,-5.2672,-5.3367,-5.4113,-5.4821,-5.5565,-5.6316,-5.668,-5.668,-5.668,-5.668,-5.668,-5.668,-5.668,-5.668,-5.668,-5.668,-4.7785,-4.8001,-4.8001,-4.8001,-4.8001,-4.8001,0.0,0.0,0.0,0.0,0.0,0.0,0.0,0.0,0.0,0.0,0.0,0.0,0.0,0.0,0.0,0.0,0.0,0.0,0.0,0.0,0.0,0.0,0.0,-4.9906,-4.9193,-4.9177,-4.8845,-4.815,-4.8117,-4.81,-4.8067,-4.8067,-4.8034,-4.8001,-4.8001,-4.8001,-4.8001,-4.834,-4.8565,-4.8664,-4.8979,-4.912,-4.912,-4.912,-4.912,-4.9187,-4.9881,-5.0152,-5.0236,-5.0947,-5.1202,-5.1268,-5.1268,-5.1302,-5.1558,-5.2695,-5.3647,-5.4529,-5.5659,-5.6566,-5.7188,-5.7188,-5.7188,-5.7138,-5.6899,-5.6821,-5.6742,-5.6465,-5.6428,-5.6235,-5.5683,-5.5735,-5.5833,-5.5566,-5.5507,-5.5341,-5.4834,-5.4316,-5.3945,-5.3945,-5.3483,-5.3145,-5.3111,-5.3111,-5.2922,-5.2445,-5.2409,-5.2409,-5.2409,-5.2409,-5.2672,-5.3367,-5.4113,-5.4821,-5.5565,-5.6316,-5.668,-5.668,-5.668,-5.668,-5.668,-5.668,-5.668,-5.668,-5.668,-5.668,-4.709,-4.7636,-4.8001,-4.8001,-4.8001,-4.8001,-4.8001,-4.8001,-4.8001,0.0,0.0,0.0,0.0,0.0,0.0,0.0,0.0,0.0,0.0,0.0,0.0,0.0,0.0,0.0,0.0,0.0,0.0,0.0,0.0,0.0,-4.8415,-4.8398,-4.8266,-4.8017,-4.8001,-4.8001,-4.8001,-4.8001,-4.8001,-4.8001,-4.8001,-4.8066,-4.8147,-4.8388,-4.8564,-4.869,-4.8909,-4.9001,-4.9001,-4.9001,-4.9001,-4.9035,-4.9289,-4.939,-4.9424,-4.9695,-5.0101,-5.049,-5.049,-5.0811,-5.1265,-5.1688,-5.2455,-5.3253,-5.3707,-5.4438,-5.5235,-5.5755,-5.5917,-5.5998,-5.643,-5.6546,-5.6465,-5.6144,-5.5936,-5.5753,-5.5537,-5.5706,-5.5804,-5.5566,-5.5507,-5.5448,-5.5252,-5.4474,-5.3912,-5.3912,-5.3213,-5.2659,-5.2659,-5.2659,-5.2605,-5.2409,-5.2409,-5.2409,-5.2409,-5.2409,-5.2489,-5.2738,-5.3864,-5.4605,-5.487,-5.6067,-5.668,-5.668,-5.668,-5.668,-5.668,-5.668,-5.668,-5.668,-5.668,-5.668,-4.6692,-4.7438,-4.8001,-4.8001,-4.8001,-4.8001,-4.8001,0.0,0.0,0.0,0.0,0.0,0.0,0.0,0.0,0.0,0.0,0.0,0.0,0.0,0.0,0.0,0.0,0.0,0.0,0.0,0.0,0.0,0.0,0.0,-4.8001,-4.8001,-4.8001,-4.8001,-4.8001,-4.8001,-4.8001,-4.8001,-4.8001,-4.8001,-4.8001,-4.8066,-4.8147,-4.8324,-4.8532,-4.8707,-4.8846,-4.894,-4.9001,-4.9001,-4.9001,-4.9001,-4.9001,-4.9001,-4.9001,-4.9001,-4.9306,-4.9729,-4.9729,-5.005,-5.0519,-5.0905,-5.1647,-5.242,-5.2737,-5.3469,-5.4247,-5.4705,-5.4803,-5.4902,-5.5347,-5.5575,-5.5702,-5.5751,-5.5637,-5.5507,-5.5507,-5.5637,-5.5706,-5.5537,-5.5341,-5.5174,-5.4974,-5.4203,-5.3583,-5.3433,-5.2834,-5.2409,-5.2409,-5.2409,-5.2409,-5.2409,-5.2409,-5.2409,-5.2409,-5.2409,-5.2409,-5.2409,-5.3732,-5.449,-5.449,-5.5918,-5.668,-5.668,-5.668,-5.668,-5.668,-5.668,-5.668,-5.668,-5.668,-5.6796,0.0,0.0,0.0,-4.8001,0.0,0.0,-4.8001,0.0,0.0,0.0,0.0,0.0,0.0,0.0,0.0,0.0,0.0,0.0,0.0,0.0,0.0,0.0,0.0,0.0,0.0,0.0,0.0,0.0,0.0,-4.8001,-4.8001,-4.8001,-4.8001,-4.8001,-4.8001,-4.8001,-4.8001,-4.8001,-4.8001,-4.8001,-4.8001,-4.8001,-4.8001,-4.8147,-4.8324,-4.8515,-4.8707,-4.8863,-4.9001,-4.9001,-4.9001,-4.9001,-4.9001,-4.9001,-4.9001,-4.9001,-4.9001,-4.9001,-4.9001,-4.9001,-4.9212,-5.0331,-5.1234,-5.2057,-5.2949,-5.3767,-5.4345,-5.4106,-5.3992,-5.3877,-5.3636,-5.3943,-5.4472,-5.5279,-5.5472,-5.549,-5.5507,-5.5478,-5.5478,-5.5478,-5.5083,-5.4537,-5.4009,-5.3483,-5.2957,-5.2499,-5.2409,-5.2409,-5.2409,-5.2409,-5.2409,-5.2409,-5.2409,-5.2409,-5.2409,-5.2409,-5.2409,-5.2409,-5.3732,-5.449,-5.449,-5.5918,-5.668,-5.668,-5.668,-5.6735,-5.6735,-5.6735,-5.668,-5.668,-5.6719,-5.7025,-4.5897,0.0,0.0,0.0,0.0,0.0,0.0,0.0,0.0,0.0,0.0,0.0,0.0,0.0,0.0,0.0,0.0,0.0,0.0,0.0,0.0,0.0,0.0,0.0,0.0,0.0,0.0,0.0,-4.8001,-4.8001,-4.8001,-4.8001,-4.8001,-4.8001,-4.8001,-4.8001,-4.8001,-4.8001,-4.8001,-4.8001,-4.8001,-4.8066,-4.8147,-4.8195,-4.8405,-4.8707,-4.8786,-4.8863,-4.9001,-4.9001,-4.9001,-4.9001,-4.9001,-4.9001,-4.9001,-4.9001,-4.9001,-4.9001,-4.9001,-4.929,-4.9686,-5.0017,-5.07,-5.1405,-5.1467,-5.182,-5.2243,-5.2501,-5.2578,-5.2657,-5.32,-5.3415,-5.3682,-5.4454,-5.4647,-5.4805,-5.5385,-5.5221,-5.5053,-5.5419,-5.5083,-5.4648,-5.4506,-5.3715,-5.3043,-5.2939,-5.2624,-5.2409,-5.2409,-5.2409,-5.2409,-5.2409,-5.2409,-5.2409,-5.2409,-5.2409,-5.2409,-5.2409,-5.3732,-5.449,-5.449,-5.5918,-5.668,-5.668,-5.668,-5.6911,-5.7364,-5.6911,-5.668,-5.6719,-5.7139,-5.7439,-4.5156,-4.6096,-4.7007,-4.7438,0.0,0.0,-4.8001,-4.8001,0.0,0.0,0.0,0.0,0.0,0.0,0.0,0.0,0.0,0.0,0.0,0.0,0.0,0.0,0.0,0.0,0.0,0.0,0.0,-4.8001,-4.8001,-4.8001,-4.8001,-4.8001,-4.8001,-4.8001,-4.8001,-4.8001,-4.8001,-4.8001,-4.8001,-4.8001,-4.8001,-4.8033,-4.8115,-4.8163,-4.8356,-4.8675,-4.8769,-4.8863,-4.9001,-4.9001,-4.9001,-4.9001,-4.9001,-4.9001,-4.9001,-4.9001,-4.9001,-4.9001,-4.9001,-4.9303,-4.9762,-4.9988,-5.0495,-5.1044,-5.1008,-5.1149,-5.1334,-5.1499,-5.154,-5.1716,-5.2506,-5.2699,-5.2892,-5.3647,-5.384,-5.405,-5.484,-5.4578,-5.4374,-5.5044,-5.4537,-5.4042,-5.4042,-5.3365,-5.28,-5.28,-5.257,-5.2409,-5.2409,-5.2409,-5.2409,-5.2409,-5.2409,-5.2409,-5.2409,-5.2409,-5.2506,-5.2788,-5.3897,-5.4622,-5.4936,-5.6084,-5.6834,-5.7063,-5.6834,-5.6987,-5.7588,-5.6987,-5.6834,-5.7101,-5.7439,-5.7865,-4.441,-4.5618,-4.6676,-4.6758,-4.7338,0.0,-4.7885,-4.7934,-4.8001,0.0,0.0,0.0,0.0,0.0,0.0,0.0,0.0,0.0,0.0,0.0,0.0,0.0,0.0,0.0,0.0,-4.8001,-4.8001,-4.8001,-4.8001,-4.8001,-4.8001,-4.8001,-4.8001,-4.8001,-4.8001,-4.8001,-4.8001,-4.8001,-4.8001,-4.8001,-4.8001,-4.8001,-4.8001,-4.8115,-4.8292,-4.8515,-4.8707,-4.8863,-4.9001,-4.9001,-4.9001,-4.9001,-4.9001,-4.9001,-4.9001,-4.9001,-4.9001,-4.897,-4.9032,-4.9277,-4.9661,-5.017,-5.0605,-5.0955,-5.1228,-5.1298,-5.1246,-5.0972,-5.0891,-5.1049,-5.1716,-5.1891,-5.2084,-5.2874,-5.3078,-5.326,-5.3958,-5.3739,-5.3618,-5.4278,-5.368,-5.3111,-5.3111,-5.2712,-5.2409,-5.2409,-5.2409,-5.2409,-5.2409,-5.2409,-5.2409,-5.2409,-5.2409,-5.2409,-5.2409,-5.2409,-5.2672,-5.3367,-5.4113,-5.4821,-5.5565,-5.6376,-5.7063,-5.7588,-5.7197,-5.7197,-5.7698,-5.7101,-5.7101,-5.7698,-5.7698,-5.8261,-4.3699,-4.4516,-4.5251,-4.5864,-4.656,0.0,-4.7106,-4.757,-4.8001,0.0,0.0,0.0,0.0,0.0,0.0,0.0,0.0,0.0,0.0,0.0,0.0,0.0,0.0,0.0,0.0,-4.8001,-4.8001,-4.8001,-4.8001,-4.8001,-4.8001,-4.8001,-4.8001,-4.8001,-4.8001,-4.8001,-4.8001,-4.8001,-4.8001,-4.8001,-4.8001,-4.8001,-4.8001,-4.8033,-4.8212,-4.8515,-4.8547,-4.8721,-4.9001,-4.9001,-4.9001,-4.9001,-4.9001,-4.9001,-4.9001,-4.9001,-4.8925,-4.8894,-4.9277,-4.9661,-5.0062,-5.054,-5.1088,-5.1513,-5.135,-5.1298,-5.1246,-5.0972,-5.0891,-5.0926,-5.1066,-5.1101,-5.1294,-5.2067,-5.2242,-5.2341,-5.2776,-5.2891,-5.2868,-5.2567,-5.2825,-5.3111,-5.3111,-5.2712,-5.2409,-5.2409,-5.2409,-5.2409,-5.2409,-5.2409,-5.2409,-5.2409,-5.2409,-5.2409,-5.2409,-5.2409,-5.2672,-5.3367,-5.4113,-5.4821,-5.5565,-5.6755,-5.7476,-5.7588,-5.8386,-5.8597,-5.8244,-5.7681,-5.7718,-5.8244,-5.8244,-5.8632,-4.2864,-4.368,0.0,-4.509,0.0,0.0,0.0,-4.7189,-4.7554,-4.7918,0.0,0.0,0.0,0.0,0.0,0.0,0.0,0.0,0.0,0.0,0.0,0.0,0.0,0.0,0.0,-4.8001,-4.8001,-4.8001,-4.8001,-4.8001,-4.8001,-4.8001,-4.8001,-4.8001,-4.8001,-4.8001,-4.8001,-4.8001,-4.8001,-4.8001,-4.8001,-4.8001,-4.8001,-4.8049,-4.8179,-4.8356,-4.8564,-4.8721,-4.8894,-4.8894,-4.8894,-4.8894,-4.897,-4.894,-4.8894,-4.8894,-4.894,-4.9046,-4.9273,-4.9732,-5.0296,-5.0519,-5.0919,-5.1272,-5.1141,-5.1088,-5.1061,-5.0945,-5.0891,-5.0891,-5.0891,-5.0891,-5.0978,-5.1365,-5.1452,-5.1535,-5.183,-5.1756,-5.1707,-5.1932,-5.2117,-5.2313,-5.268,-5.257,-5.2409,-5.2409,-5.2409,-5.2409,-5.2409,-5.2409,-5.2409,-5.2409,-5.2409,-5.2409,-5.2409,-5.2705,-5.3202,-5.3914,-5.4622,-5.5501,-5.6571,-5.7238,-5.7735,-5.7993,-5.9114,-5.9434,-5.8841,-5.8562,-5.8597,-5.8841,-5.8841,-5.9148,0.0,0.0,0.0,0.0,0.0,-4.5575,0.0,0.0,0.0,-4.7454,0.0,0.0,0.0,0.0,0.0,0.0,0.0,0.0,0.0,0.0,0.0,0.0,0.0,0.0,0.0,-4.8001,-4.8001,-4.8001,-4.8001,-4.8001,-4.8001,-4.8001,-4.8001,-4.8001,-4.8001,-4.8001,-4.8001,-4.8001,-4.8001,-4.8001,-4.8001,-4.8001,-4.8001,-4.8115,-4.8179,-4.8227,-4.8532,-4.8707,-4.8738,-4.8738,-4.8738,-4.8738,-4.8846,-4.8832,-4.8738,-4.8738,-4.8923,-4.9165,-4.9256,-4.9762,-5.0369,-5.0471,-5.0682,-5.0891,-5.0891,-5.0891,-5.0891,-5.0891,-5.0891,-5.0891,-5.0891,-5.0891,-5.0891,-5.0891,-5.0891,-5.0912,-5.0934,-5.0704,-5.0689,-5.1311,-5.1342,-5.1547,-5.2293,-5.2409,-5.2409,-5.2409,-5.2409,-5.2409,-5.2409,-5.2409,-5.2409,-5.2409,-5.2409,-5.2409,-5.2409,-5.3019,-5.3732,-5.444,-5.5281,-5.6313,-5.7554,-5.7792,-5.8173,-5.8737,-5.9633,-5.9896,-5.9434,-5.9434,-5.9434,-5.9451,-5.9334,-5.9584,0.0,0.0,0.0,0.0,-4.3846,0.0,0.0,0.0,-4.5947,-4.603,0.0,0.0,0.0,0.0,0.0,0.0,0.0,0.0,0.0,0.0,0.0,0.0,0.0,0.0,0.0,0.0,-4.8001,-4.8001,-4.8001,-4.8001,-4.8001,-4.8001,-4.8001,-4.8001,-4.8001,-4.8001,-4.8001,-4.8001,-4.8001,-4.8001,-4.8001,-4.8001,-4.8001,-4.8001,-4.8082,-4.8195,-4.826,-4.8356,-4.8547,-4.8547,-4.8547,-4.8547,-4.8547,-4.8547,-4.8547,-4.8547,-4.8736,-4.9077,-4.95,-4.9849,-5.0205,-5.0692,-5.0863,-5.0891,-5.0891,-5.0891,-5.0891,-5.0891,-5.0891,-5.0891,-5.0891,-5.0891,-5.0891,-5.0891,-5.0891,-5.0655,-4.9789,-5.0068,-5.0289,-4.956,-5.0454,-5.1547,-5.2293,-5.2409,-5.2409,-5.2409,-5.2409,-5.2409,-5.2409,-5.2409,-5.2409,-5.2409,-5.2409,-5.2409,-5.2409,-5.3019,-5.3732,-5.444,-5.5693,-5.6777,-5.7554,-5.8562,-5.9367,-5.9879,-6.0025,-6.0057,-6.0025,-6.0025,-6.0025,-5.9993,-5.9501,-5.9584,0.0,0.0,0.0,0.0,0.0,0.0,-4.3954,0.0,-4.5268,0.0,0.0,0.0,0.0,0.0,0.0,0.0,-4.6725,0.0,0.0,0.0,0.0,0.0,0.0,0.0,0.0,0.0,0.0,0.0,0.0,-4.8001,-4.8001,-4.8001,-4.8001,-4.8001,-4.8001,-4.8001,-4.8001,-4.8001,-4.8001,-4.8001,-4.8001,-4.8001,-4.8001,-4.8001,-4.8033,-4.8082,-4.8179,-4.826,-4.8324,-4.8324,-4.8324,-4.8324,-4.8244,-4.8276,-4.8324,-4.8324,-4.8547,-4.8875,-4.9376,-4.9774,-5.0176,-5.0719,-5.0891,-5.0891,-5.0891,-5.0891,-5.0891,-5.0891,-5.0891,-5.0891,-5.0891,-5.0891,-5.0891,-5.0891,-5.0665,-5.025,-4.9551,-4.9416,-4.9403,-4.9144,-4.9955,-5.0899,-5.1647,-5.2127,-5.2409,-5.2409,-5.2409,-5.2409,-5.2409,-5.2409,-5.2409,-5.2409,-5.2409,-5.2539,-5.2953,-5.3649,-5.4341,-5.5085,-5.6696,-5.7921,-5.8562,-5.9334,-5.9846,-6.0107,-6.0089,-6.0089,-6.0089,-6.0089,-6.0089,-6.0089,-5.9846,-5.9879,-4.0216,0.0,0.0,0.0,0.0,0.0,0.0,0.0,0.0,0.0,0.0,0.0,0.0,0.0,-4.5593,-4.575,0.0,-4.5798,0.0,0.0,0.0,0.0,0.0,0.0,0.0,0.0,0.0,-4.8001,-4.8001,-4.8001,-4.8001,-4.8001,-4.8001,-4.8001,-4.8001,-4.8001,-4.8001,-4.8001,-4.8001,-4.8001,-4.8001,-4.8001,-4.8001,-4.8001,-4.8001,-4.8001,-4.8115,-4.8147,-4.8147,-4.8147,-4.8147,-4.8147,-4.8033,-4.8049,-4.8147,-4.8147,-4.8467,-4.8934,-4.9282,-4.9786,-5.0363,-5.0764,-5.0891,-5.0891,-5.0891,-5.0891,-5.0891,-5.0891,-5.0891,-5.0891,-5.0891,-5.0891,-5.0891,-5.0891,-5.0492,-4.9959,-4.9492,-4.9026,-4.8713,-4.8796,-4.9574,-5.0369,-5.0899,-5.1761,-5.2409,-5.2409,-5.2409,-5.2409,-5.2409,-5.2409,-5.2409,-5.2409,-5.2409,-5.2655,-5.3351,-5.4096,-5.502,-5.6287,-5.7795,-5.8909,-5.9518,-5.9879,-6.0089,-6.0089,-6.0089,-6.0089,-6.0089,-6.0089,-6.0089,-6.0089,-6.0089,-6.0089,0.0,0.0,0.0,-4.116,0.0,0.0,0.0,0.0,-4.2649,0.0,0.0,0.0,0.0,-4.4784,-4.5033,-4.5687,-4.5798,0.0,0.0,0.0,0.0,0.0,0.0,0.0,0.0,0.0,0.0,-4.8001,-4.8001,-4.8001,-4.8001,-4.8001,-4.8001,-4.8001,-4.8001,-4.8001,-4.8001,-4.8001,-4.8001,-4.8001,-4.8001,-4.8001,-4.8001,-4.8001,-4.8001,-4.8001,-4.8001,-4.8001,-4.8001,-4.8001,-4.8001,-4.8001,-4.8001,-4.8001,-4.8001,-4.8001,-4.8593,-4.9372,-4.9402,-5.0051,-5.0891,-5.0891,-5.0891,-5.0891,-5.0891,-5.0891,-5.0891,-5.0891,-5.0891,-5.0891,-5.0891,-5.0891,-5.0891,-5.0891,-5.0492,-4.9959,-4.9492,-4.9026,-4.8562,-4.8115,-4.9226,-5.022,-5.0237,-5.1429,-5.2409,-5.2409,-5.2409,-5.2409,-5.2409,-5.2409,-5.2409,-5.2409,-5.2409,-5.2655,-5.3351,-5.4096,-5.5589,-5.8144,-5.8892,-5.9501,-6.0057,-6.0089,-6.0089,-6.0089,-6.0089,-6.0089,-6.0089,-6.0089,-6.0089,-6.0089,-6.0089,-6.0089,0.0,0.0,-3.9451,-4.0566,0.0,0.0,0.0,0.0,0.0,0.0,0.0,0.0,0.0,-4.3342,-4.3409,-4.3661,-4.405,-4.4357,0.0,0.0,0.0,0.0,0.0,0.0,0.0,0.0,0.0,-4.7239,-4.7272,-4.7487,0.0,-4.8001,-4.8001,-4.8001,-4.8001,-4.8001,-4.8001,-4.8001,-4.8001,-4.8001,-4.8001,-4.8001,-4.8001,-4.8001,-4.8001,-4.8001,-4.8001,-4.8001,-4.8001,-4.8001,-4.8001,-4.8001,-4.8001,-4.8001,-4.8033,-4.8356,-4.8671,-4.9026,-4.9639,-5.0324,-5.0891,-5.0891,-5.0891,-5.0891,-5.0891,-5.0891,-5.0891,-5.0891,-5.0891,-5.0891,-5.0891,-5.0891,-5.0891,-5.0891,-5.0268,-4.958,-4.9432,-4.8796,-4.8179,-4.8033,-4.9193,-5.022,-5.022,-5.1413,-5.2409,-5.2409,-5.2409,-5.2409,-5.2409,-5.2659,-5.287,-5.287,-5.3305,-5.3872,-5.4608,-5.5833,-5.7251,-5.8875,-5.9199,-5.9551,-6.0089,-6.0089,-6.0089,-6.0089,-6.0089,-6.0089,-6.0089,-6.0089,-6.0089,-6.0089,-6.0089,-6.0089,-3.8943,-3.9068,0.0,-3.995,-4.0111,0.0,-4.0634,0.0,0.0,0.0,0.0,0.0,0.0,-4.2029,-4.2029,-4.2522,-4.2741,-4.2834,0.0,-4.3116,0.0,0.0,0.0,0.0,0.0,0.0,-4.5728,-4.6477,-4.651,-4.6709,0.0,0.0,-4.7222,-4.7222,-4.7222,-4.7222,-4.7222,-4.7222,-4.7355,-4.7603,-4.7603,-4.7752,-4.8001,-4.8001,-4.8001,-4.8001,-4.8001,-4.8001,-4.8001,-4.8001,-4.8001,-4.8001,-4.8001,-4.8082,-4.8292,-4.8593,-4.8903,-4.9312,-5.0091,-5.0592,-5.0891,-5.0891,-5.0891,-5.0891,-5.0891,-5.0891,-5.0943,-5.1207,-5.1101,-5.0943,-5.1224,-5.1101,-5.0891,-5.0891,-5.0137,-4.9402,-4.9402,-4.8671,-4.8001,-4.8001,-4.9193,-5.022,-5.022,-5.1413,-5.2409,-5.2409,-5.2409,-5.248,-5.2624,-5.2922,-5.3179,-5.3382,-5.4059,-5.4921,-5.5936,-5.7369,-5.8509,-5.9267,-5.9467,-5.9748,-6.0107,-6.0089,-6.0089,-6.0089,-6.0089,-6.0089,-6.0089,-6.0089,-6.0089,-6.0089,-6.0089,-6.0153]},{"header":{"parameterUnit":"m.s-1","parameterCategory":1,"la1":30.6,"la2":29.2853,"lo1":-89.7004,"lo2":-87.6739,"dy":0.0162,"dx":0.0183,"nx":112,"ny":82,"refTime":"2023-06-19T06:00:00:Z","depth":0,"parameterNumber":3,"parameterNumberName":"V-component_of_WINDS"},"data":[0.0,0.0,0.0,0.0,0.0,0.0,0.0,0.0,0.0,0.0,0.0,0.0,0.0,0.0,0.0,0.0,0.0,0.0,0.0,0.0,0.0,0.0,0.0,0.0,0.0,0.0,0.0,0.0,0.0,0.0,0.0,0.0,0.0,0.0,0.0,0.0,0.0,0.0,0.0,0.0,0.0,0.0,0.0,0.0,0.0,0.0,0.0,0.0,0.0,0.0,0.0,0.0,0.0,0.0,0.0,0.0,0.0,0.0,0.0,0.0,0.0,0.0,0.0,0.0,0.0,0.0,0.0,0.0,0.0,0.0,0.0,0.0,0.0,0.0,0.0,0.0,0.0,0.0,0.0,0.0,0.0,0.0,0.0,0.0,0.0,0.0,0.0,0.0,0.0,0.0,-2.4658,-2.4454,-2.3551,-2.2974,-2.3013,-2.1006,-2.0226,-2.1248,0.0,0.0,0.0,0.0,0.0,0.0,0.0,0.0,0.0,0.0,0.0,0.0,0.0,0.0,0.0,0.0,0.0,0.0,0.0,0.0,0.0,0.0,0.0,0.0,0.0,0.0,0.0,0.0,0.0,0.0,0.0,0.0,0.0,0.0,0.0,0.0,0.0,0.0,0.0,0.0,0.0,0.0,0.0,0.0,0.0,0.0,0.0,0.0,0.0,0.0,0.0,0.0,0.0,0.0,0.0,0.0,0.0,0.0,0.0,0.0,0.0,0.0,0.0,0.0,0.0,0.0,0.0,0.0,0.0,0.0,0.0,0.0,0.0,0.0,0.0,0.0,0.0,0.0,0.0,0.0,0.0,0.0,0.0,0.0,0.0,0.0,0.0,0.0,0.0,0.0,0.0,0.0,0.0,0.0,0.0,0.0,0.0,0.0,0.0,0.0,0.0,0.0,0.0,0.0,-2.5253,-2.4325,-2.4229,-2.4143,-2.398,-2.3216,-2.2725,-2.2689,0.0,0.0,0.0,0.0,0.0,0.0,0.0,0.0,0.0,0.0,0.0,0.0,0.0,0.0,0.0,0.0,0.0,0.0,0.0,0.0,0.0,0.0,0.0,0.0,0.0,0.0,0.0,0.0,0.0,0.0,0.0,0.0,0.0,0.0,0.0,0.0,0.0,0.0,0.0,0.0,0.0,0.0,0.0,0.0,0.0,0.0,0.0,0.0,0.0,0.0,0.0,0.0,0.0,0.0,0.0,0.0,0.0,0.0,0.0,0.0,0.0,0.0,0.0,0.0,0.0,0.0,0.0,0.0,0.0,0.0,0.0,0.0,0.0,0.0,0.0,0.0,0.0,0.0,0.0,0.0,0.0,0.0,0.0,0.0,0.0,0.0,0.0,0.0,0.0,0.0,0.0,0.0,0.0,0.0,0.0,0.0,0.0,0.0,0.0,0.0,0.0,0.0,0.0,-2.5777,-2.5421,-2.4454,-2.4681,-2.4792,-2.4617,-2.4092,-2.3818,-2.3965,-2.1635,0.0,0.0,0.0,0.0,0.0,0.0,0.0,0.0,0.0,0.0,0.0,0.0,0.0,0.0,0.0,0.0,0.0,0.0,0.0,0.0,0.0,0.0,0.0,0.0,0.0,0.0,0.0,0.0,0.0,0.0,0.0,0.0,0.0,0.0,0.0,0.0,0.0,0.0,0.0,0.0,0.0,0.0,0.0,0.0,0.0,0.0,0.0,0.0,0.0,0.0,0.0,0.0,0.0,0.0,0.0,0.0,0.0,0.0,0.0,0.0,0.0,0.0,0.0,0.0,0.0,0.0,0.0,0.0,0.0,0.0,0.0,0.0,0.0,0.0,0.0,0.0,0.0,0.0,0.0,0.0,0.0,0.0,0.0,0.0,0.0,0.0,0.0,0.0,0.0,0.0,0.0,0.0,0.0,0.0,0.0,0.0,0.0,0.0,0.0,0.0,0.0,0.0,-2.5844,-2.5392,-2.4738,-2.5075,-2.53,-2.5166,-2.4866,-2.4838,-2.5089,-2.3649,0.0,0.0,0.0,0.0,0.0,0.0,0.0,0.0,0.0,0.0,0.0,0.0,0.0,0.0,0.0,0.0,0.0,0.0,0.0,0.0,0.0,0.0,0.0,0.0,0.0,0.0,0.0,0.0,0.0,0.0,0.0,0.0,0.0,0.0,0.0,0.0,0.0,0.0,0.0,0.0,0.0,0.0,0.0,0.0,0.0,0.0,0.0,0.0,0.0,0.0,0.0,0.0,0.0,0.0,0.0,0.0,0.0,0.0,0.0,0.0,0.0,0.0,0.0,0.0,0.0,0.0,0.0,0.0,0.0,0.0,0.0,0.0,0.0,0.0,0.0,0.0,0.0,0.0,0.0,0.0,0.0,0.0,0.0,0.0,0.0,0.0,0.0,0.0,0.0,0.0,0.0,0.0,0.0,0.0,0.0,0.0,0.0,0.0,0.0,0.0,0.0,0.0,-2.5947,-2.5225,-2.5137,-2.5575,-2.5834,-2.5834,-2.6212,-2.6341,-2.6129,-2.6157,0.0,0.0,0.0,0.0,0.0,0.0,0.0,0.0,0.0,0.0,0.0,0.0,0.0,0.0,0.0,0.0,0.0,0.0,0.0,0.0,0.0,0.0,0.0,0.0,0.0,0.0,0.0,0.0,0.0,0.0,0.0,0.0,0.0,0.0,0.0,0.0,0.0,0.0,0.0,0.0,0.0,0.0,0.0,0.0,0.0,0.0,0.0,0.0,0.0,0.0,0.0,0.0,0.0,0.0,0.0,0.0,0.0,0.0,0.0,0.0,0.0,0.0,0.0,0.0,0.0,0.0,0.0,0.0,0.0,0.0,0.0,0.0,0.0,0.0,0.0,0.0,0.0,0.0,0.0,0.0,0.0,0.0,0.0,0.0,0.0,0.0,0.0,0.0,0.0,0.0,0.0,0.0,0.0,0.0,0.0,0.0,0.0,0.0,0.0,0.0,0.0,0.0,-2.6726,-2.625,0.0,-2.6041,-2.6356,-2.6356,-2.6781,-2.6909,-2.6645,0.0,0.0,0.0,0.0,0.0,0.0,0.0,0.0,0.0,0.0,0.0,0.0,0.0,0.0,0.0,0.0,0.0,0.0,0.0,0.0,0.0,0.0,0.0,0.0,0.0,0.0,0.0,0.0,0.0,0.0,0.0,0.0,0.0,0.0,0.0,0.0,0.0,0.0,0.0,0.0,0.0,0.0,0.0,0.0,0.0,0.0,0.0,0.0,0.0,0.0,0.0,0.0,0.0,0.0,0.0,0.0,0.0,0.0,0.0,0.0,0.0,0.0,0.0,0.0,0.0,0.0,0.0,0.0,0.0,0.0,0.0,0.0,0.0,0.0,0.0,0.0,0.0,0.0,0.0,0.0,0.0,0.0,0.0,0.0,0.0,0.0,0.0,0.0,0.0,0.0,0.0,0.0,0.0,0.0,0.0,0.0,0.0,0.0,0.0,0.0,0.0,0.0,-2.7831,-2.728,-2.6761,0.0,-2.6563,-2.6832,-2.6832,-2.7123,-2.7214,-2.7034,0.0,0.0,0.0,0.0,0.0,0.0,0.0,0.0,0.0,0.0,0.0,0.0,0.0,0.0,0.0,0.0,0.0,0.0,0.0,0.0,0.0,0.0,0.0,0.0,0.0,0.0,0.0,0.0,0.0,0.0,0.0,0.0,0.0,0.0,0.0,0.0,0.0,0.0,0.0,0.0,0.0,0.0,0.0,0.0,0.0,0.0,0.0,0.0,0.0,0.0,0.0,0.0,0.0,0.0,0.0,0.0,0.0,0.0,0.0,0.0,0.0,0.0,0.0,0.0,0.0,0.0,0.0,0.0,0.0,0.0,0.0,0.0,0.0,0.0,0.0,0.0,0.0,0.0,0.0,0.0,0.0,0.0,0.0,0.0,0.0,0.0,0.0,0.0,0.0,0.0,0.0,0.0,0.0,0.0,0.0,0.0,0.0,0.0,0.0,0.0,0.0,0.0,-2.8666,-2.7484,-2.6625,-2.6625,-2.7029,-2.7309,-2.7309,-2.7309,-2.7309,0.0,0.0,0.0,0.0,0.0,0.0,0.0,0.0,0.0,0.0,0.0,0.0,0.0,0.0,0.0,0.0,0.0,0.0,0.0,0.0,0.0,0.0,0.0,0.0,0.0,0.0,0.0,0.0,0.0,0.0,0.0,0.0,0.0,0.0,0.0,0.0,0.0,0.0,0.0,0.0,0.0,0.0,0.0,0.0,0.0,0.0,0.0,0.0,0.0,0.0,0.0,0.0,0.0,0.0,0.0,0.0,0.0,0.0,0.0,0.0,0.0,0.0,0.0,0.0,0.0,0.0,0.0,0.0,0.0,0.0,0.0,0.0,0.0,0.0,0.0,0.0,0.0,0.0,0.0,0.0,0.0,0.0,0.0,0.0,0.0,0.0,0.0,0.0,0.0,0.0,0.0,0.0,0.0,0.0,0.0,0.0,0.0,0.0,0.0,0.0,0.0,0.0,0.0,-2.7885,-2.7337,-2.7102,-2.7102,-2.7226,-2.7309,-2.7309,-2.7309,-2.7309,-2.7309,0.0,0.0,0.0,0.0,0.0,0.0,0.0,0.0,0.0,0.0,0.0,0.0,0.0,0.0,0.0,0.0,0.0,0.0,0.0,0.0,0.0,0.0,0.0,0.0,0.0,0.0,0.0,0.0,0.0,0.0,0.0,0.0,0.0,0.0,0.0,0.0,0.0,0.0,0.0,0.0,0.0,0.0,0.0,0.0,0.0,0.0,0.0,0.0,0.0,0.0,0.0,0.0,0.0,0.0,0.0,0.0,0.0,0.0,0.0,0.0,0.0,0.0,0.0,0.0,0.0,0.0,0.0,0.0,0.0,0.0,0.0,0.0,0.0,0.0,0.0,0.0,0.0,0.0,0.0,0.0,0.0,0.0,0.0,0.0,0.0,0.0,0.0,0.0,0.0,0.0,0.0,0.0,0.0,0.0,0.0,0.0,0.0,0.0,0.0,0.0,0.0,0.0,-2.862,-2.7762,-2.7309,-2.7309,-2.7309,-2.7309,-2.7309,-2.7309,-2.7309,-2.7309,0.0,0.0,0.0,0.0,0.0,0.0,0.0,0.0,0.0,0.0,0.0,0.0,0.0,0.0,0.0,0.0,0.0,0.0,0.0,0.0,0.0,0.0,0.0,0.0,0.0,0.0,0.0,0.0,0.0,0.0,0.0,0.0,0.0,0.0,0.0,0.0,0.0,0.0,0.0,0.0,0.0,0.0,0.0,0.0,0.0,0.0,0.0,0.0,0.0,0.0,0.0,0.0,0.0,0.0,0.0,0.0,0.0,0.0,0.0,0.0,0.0,0.0,0.0,0.0,0.0,0.0,0.0,0.0,0.0,0.0,0.0,0.0,0.0,0.0,0.0,0.0,0.0,0.0,0.0,0.0,0.0,0.0,0.0,0.0,0.0,0.0,0.0,0.0,0.0,0.0,0.0,0.0,0.0,0.0,0.0,0.0,0.0,0.0,0.0,0.0,0.0,0.0,-3.008,-2.8528,-2.7434,-2.7434,-2.7434,-2.7434,-2.7434,-2.7434,-2.7434,-2.7434,0.0,0.0,0.0,0.0,0.0,0.0,0.0,0.0,0.0,0.0,0.0,0.0,0.0,0.0,0.0,0.0,0.0,0.0,0.0,0.0,0.0,0.0,0.0,0.0,0.0,0.0,0.0,0.0,0.0,0.0,0.0,0.0,0.0,0.0,0.0,0.0,0.0,0.0,0.0,0.0,0.0,0.0,0.0,0.0,0.0,0.0,0.0,0.0,0.0,0.0,0.0,0.0,0.0,0.0,0.0,0.0,0.0,0.0,0.0,0.0,-2.5508,0.0,0.0,0.0,0.0,0.0,0.0,0.0,0.0,0.0,0.0,0.0,0.0,0.0,0.0,0.0,0.0,0.0,0.0,0.0,0.0,0.0,0.0,0.0,0.0,0.0,0.0,0.0,0.0,0.0,0.0,0.0,0.0,0.0,0.0,0.0,0.0,0.0,0.0,0.0,0.0,0.0,-2.9034,-2.8554,-2.8328,-2.8328,-2.8328,-2.8328,-2.8328,-2.8328,-2.8328,-2.8328,-2.8328,0.0,0.0,0.0,0.0,0.0,0.0,0.0,0.0,0.0,0.0,0.0,0.0,0.0,0.0,0.0,0.0,0.0,0.0,0.0,0.0,0.0,0.0,0.0,0.0,0.0,0.0,0.0,0.0,0.0,0.0,0.0,0.0,0.0,0.0,0.0,0.0,0.0,0.0,0.0,0.0,0.0,0.0,0.0,0.0,0.0,0.0,0.0,0.0,0.0,0.0,0.0,0.0,0.0,0.0,0.0,0.0,0.0,0.0,0.0,0.0,-2.5693,0.0,0.0,0.0,0.0,0.0,0.0,0.0,0.0,0.0,0.0,0.0,0.0,0.0,0.0,0.0,0.0,0.0,0.0,0.0,0.0,0.0,0.0,0.0,0.0,0.0,0.0,0.0,0.0,0.0,0.0,0.0,0.0,0.0,0.0,0.0,0.0,0.0,0.0,0.0,0.0,-2.9391,-2.8906,-2.8618,-2.8618,-2.8618,-2.8618,-2.8618,-2.8618,-2.8618,-2.8618,-2.8618,0.0,0.0,0.0,0.0,0.0,0.0,0.0,0.0,0.0,0.0,0.0,0.0,0.0,0.0,0.0,0.0,0.0,0.0,0.0,0.0,0.0,0.0,0.0,0.0,0.0,0.0,0.0,0.0,0.0,0.0,0.0,0.0,0.0,0.0,0.0,0.0,0.0,0.0,0.0,0.0,0.0,0.0,0.0,0.0,0.0,0.0,0.0,0.0,0.0,0.0,0.0,0.0,0.0,-2.5762,-2.5801,-2.5801,-2.5879,-2.5908,-2.5908,-2.5908,-2.5869,-2.581,0.0,0.0,0.0,0.0,0.0,0.0,0.0,0.0,0.0,0.0,0.0,0.0,0.0,0.0,0.0,0.0,0.0,0.0,0.0,0.0,0.0,0.0,0.0,0.0,0.0,-2.9485,-2.9063,0.0,0.0,0.0,0.0,0.0,0.0,0.0,0.0,0.0,0.0,0.0,0.0,-3.0093,-2.9347,-2.8856,-2.8856,-2.8856,-2.8856,-2.8856,-2.8856,-2.8856,-2.8856,-2.8856,-2.8856,0.0,0.0,0.0,0.0,0.0,0.0,0.0,0.0,0.0,0.0,0.0,0.0,0.0,0.0,0.0,0.0,0.0,0.0,0.0,0.0,0.0,0.0,0.0,0.0,0.0,0.0,0.0,0.0,0.0,0.0,0.0,0.0,-1.7243,-1.7739,0.0,0.0,0.0,0.0,0.0,0.0,0.0,0.0,0.0,0.0,0.0,0.0,0.0,-2.5693,-2.5693,-2.5693,-2.5693,-2.5693,-2.6123,-2.6309,-2.6318,-2.668,-2.6846,-2.6846,-2.6846,0.0,-2.6328,-2.6699,0.0,0.0,0.0,0.0,0.0,0.0,0.0,0.0,0.0,0.0,0.0,0.0,0.0,0.0,0.0,0.0,0.0,0.0,0.0,0.0,0.0,0.0,-2.9172,-2.8653,-2.8404,-2.8384,0.0,-2.9504,-3.0378,-3.1226,0.0,0.0,0.0,0.0,0.0,0.0,0.0,0.0,-3.0016,-2.9922,-2.9818,-2.9818,-2.9818,-2.9818,-2.9818,-2.9818,-2.9818,-2.9818,-2.9818,-2.9818,-2.9818,-2.9652,0.0,0.0,0.0,0.0,0.0,0.0,0.0,0.0,0.0,0.0,0.0,0.0,0.0,0.0,0.0,0.0,0.0,0.0,0.0,0.0,0.0,0.0,0.0,0.0,0.0,0.0,0.0,0.0,0.0,-1.8189,-1.8832,-1.9806,-2.0713,-2.1682,0.0,0.0,0.0,0.0,0.0,0.0,0.0,0.0,0.0,-2.5693,-2.5977,-2.6103,-2.6103,-2.6338,-2.6405,-2.6405,-2.665,-2.6738,-2.6748,-2.6934,-2.7012,-2.7021,-2.7275,-2.7275,-2.71,-2.7041,-2.7051,-2.7253,0.0,0.0,0.0,0.0,-3.0241,-3.0673,-2.9946,-3.0116,0.0,0.0,0.0,0.0,0.0,0.0,0.0,0.0,0.0,0.0,0.0,0.0,0.0,-2.8776,-2.8696,-2.891,-2.9281,-2.9742,-3.0115,0.0,-2.9935,-2.987,-3.0518,0.0,0.0,0.0,0.0,-2.9994,-2.9994,-2.9994,-2.9994,-2.9994,-2.9994,-2.9994,-2.9994,-2.9994,-2.9994,-2.9994,-2.9994,-2.9994,-2.9994,-2.9994,-2.9942,0.0,0.0,0.0,0.0,0.0,0.0,0.0,0.0,0.0,0.0,0.0,0.0,0.0,0.0,0.0,0.0,0.0,0.0,0.0,0.0,0.0,0.0,0.0,0.0,0.0,0.0,0.0,0.0,-1.9565,-2.0179,-2.1578,-2.1822,-2.246,0.0,0.0,0.0,0.0,0.0,0.0,-2.5849,-2.5908,-2.5908,-2.6015,-2.6377,-2.6543,-2.6543,-2.6865,-2.7012,-2.7012,-2.7129,-2.7178,-2.7187,-2.7295,-2.7344,-2.7353,-2.7685,-2.7822,-2.7855,-2.748,-2.7539,-2.798,-2.9332,-3.0096,-3.04,-3.1171,-3.1899,-3.2385,-3.097,-3.1203,-3.2124,-3.1997,0.0,-3.23,-3.3086,0.0,0.0,0.0,0.0,-3.2364,-3.0778,-3.0406,-3.0266,-2.9619,-2.9466,-2.957,-2.9922,-2.9994,-2.9891,0.0,-2.9477,-2.9591,-2.9942,0.0,0.0,0.0,0.0,-3.0036,-3.016,-3.017,-3.0222,-3.0336,-3.0346,-3.0346,-3.0346,-3.0346,-3.0346,-3.0346,-3.0346,-3.0346,-3.0346,-3.0346,-3.0178,-2.978,0.0,0.0,0.0,0.0,0.0,0.0,0.0,0.0,0.0,0.0,0.0,0.0,0.0,0.0,0.0,0.0,0.0,0.0,0.0,0.0,0.0,0.0,0.0,0.0,0.0,0.0,0.0,0.0,0.0,-2.2297,-2.2691,0.0,0.0,0.0,0.0,-2.5284,-2.5538,-2.5869,-2.6338,-2.6357,-2.6543,-2.6943,-2.6973,-2.6982,-2.6982,-2.7002,-2.7012,-2.7021,-2.7432,-2.7679,-2.7699,-2.8047,-2.8223,-2.8232,-2.8252,-2.8262,-2.8262,-2.8232,-2.8242,-2.8465,-3.0618,-3.1502,-3.1626,-3.2666,-3.3116,-3.3005,-3.1916,-3.2219,-3.3051,-3.252,-3.2745,-3.3238,-3.3284,-3.3621,0.0,0.0,-3.427,-3.4447,-3.3627,-3.2833,-3.2039,-3.1297,-3.0505,-2.9963,-2.9984,-2.9994,-2.9984,0.0,-2.9953,-2.9973,-2.9994,0.0,-2.9994,-2.9994,-2.9994,-3.0149,-3.0594,-3.0646,-3.0822,-3.1257,-3.1309,-3.1309,-3.1309,-3.1309,-3.1309,-3.1309,-3.1309,-3.1309,-3.1309,-3.1309,-3.0972,-3.0186,-3.0176,0.0,0.0,0.0,0.0,0.0,0.0,0.0,0.0,0.0,0.0,0.0,0.0,0.0,0.0,0.0,0.0,0.0,0.0,0.0,0.0,0.0,0.0,0.0,0.0,0.0,0.0,0.0,0.0,-2.3956,-2.411,0.0,-2.5069,-2.5235,-2.5497,-2.5984,-2.6103,-2.6348,-2.6768,-2.6797,-2.6865,-2.7012,-2.7285,-2.7432,-2.7432,-2.7705,-2.7842,-2.7842,-2.7998,-2.8066,-2.8076,-2.8223,-2.8291,-2.8291,-2.8291,-2.8291,-2.8291,-2.8291,-2.8291,-2.8451,-2.9932,-3.0494,-3.0546,-3.0949,-3.1971,-3.3051,-3.1982,-3.275,-3.419,-3.4,-3.4077,-3.4282,-3.4282,-3.4402,-3.4341,-3.3686,-3.3618,-3.3449,-3.192,-3.1483,-3.1187,-3.037,-3.0078,-3.0077,-3.0377,-3.0439,-3.0532,-3.0822,-3.0398,-3.0087,-3.0387,-3.0439,-3.0543,-3.0843,-3.0884,-3.0946,-3.1112,-3.1133,-3.1195,-3.136,-3.1381,-3.1381,-3.1381,-3.1381,-3.1381,-3.1381,-3.1381,-3.1316,-3.1076,-3.1316,-3.1069,-3.0393,-3.0537,-3.0411,0.0,0.0,0.0,0.0,0.0,0.0,0.0,0.0,0.0,0.0,0.0,0.0,0.0,0.0,0.0,0.0,0.0,0.0,0.0,0.0,0.0,0.0,0.0,0.0,0.0,0.0,-2.4726,-2.5001,-2.5137,-2.5235,-2.544,-2.5566,-2.5877,-2.6367,-2.6523,-2.6787,-2.7207,-2.7236,-2.7305,-2.7441,-2.7725,-2.7881,-2.7881,-2.8154,-2.8291,-2.8291,-2.8291,-2.8291,-2.8291,-2.8291,-2.8291,-2.8291,-2.8291,-2.8291,-2.8291,-2.8291,-2.8291,-2.8441,-2.9869,-3.0494,-3.0546,-3.1308,-3.2224,-3.3101,-3.2387,-3.3312,-3.4775,-3.4775,-3.4775,-3.4775,-3.4775,-3.4775,-3.4677,-3.3967,-3.3758,-3.3449,-3.2336,-3.2104,-3.1929,-3.1112,-3.0989,-3.1053,-3.095,-3.0915,-3.1008,-3.1319,-3.0884,-3.0563,-3.0864,-3.0915,-3.1029,-3.1329,-3.1381,-3.1433,-3.1578,-3.1598,-3.1661,-3.1816,-3.1836,-3.1836,-3.1836,-3.1836,-3.1836,-3.1836,-3.1771,-3.1593,-3.1406,-3.1593,-3.1365,-3.0589,-3.0475,-3.0404,-3.0304,0.0,0.0,0.0,0.0,0.0,0.0,0.0,0.0,0.0,0.0,0.0,0.0,0.0,0.0,0.0,0.0,0.0,0.0,0.0,0.0,0.0,0.0,0.0,-2.4007,-2.4734,-2.5333,-2.5333,-2.5547,-2.5703,-2.5703,-2.6152,-2.6406,-2.6426,-2.6807,-2.7226,-2.7708,-2.7738,-2.7924,-2.8281,-2.8291,-2.8291,-2.8291,-2.8291,-2.8291,-2.8291,-2.8291,-2.8291,-2.8291,-2.8291,-2.8291,-2.8291,-2.8291,-2.8291,-2.8291,-2.8291,-2.8291,-2.8504,-3.0701,-3.1575,-3.183,-3.3918,-3.4066,-3.3201,-3.325,-3.3918,-3.4775,-3.4775,-3.4775,-3.4775,-3.4775,-3.4775,-3.4775,-3.4799,-3.4799,-3.4859,-3.5066,-3.4936,-3.454,-3.3634,-3.3215,-3.2717,-3.1655,-3.1402,-3.1402,-3.1412,-3.1422,-3.1412,-3.1402,-3.1391,-3.1402,-3.1422,-3.1422,0.0,-3.1946,-3.2008,-3.2184,-3.2628,-3.2669,-3.2669,-3.2669,-3.2669,-3.2669,-3.2669,-3.243,-3.2315,-3.2305,-3.2315,-3.1825,-3.0777,-3.0003,-2.9787,-3.002,0.0,0.0,0.0,0.0,0.0,0.0,0.0,0.0,0.0,0.0,0.0,0.0,0.0,0.0,0.0,0.0,0.0,0.0,0.0,0.0,0.0,0.0,-2.4698,-2.4887,-2.5314,-2.5586,-2.5586,-2.5966,-2.6211,-2.6211,-2.6592,-2.6973,-2.7337,-2.7474,-2.7676,-2.8096,-2.8125,-2.8174,-2.8291,-2.8291,-2.8291,-2.8291,-2.8291,-2.8291,-2.8291,-2.8291,-2.8291,-2.8291,-2.8291,-2.8291,-2.8291,-2.8291,-2.8291,-2.8291,-2.8291,-2.8291,-2.8451,-2.9828,-3.0856,-3.1677,-3.2286,-3.2801,-3.33,-3.4066,-3.4568,-3.4775,-3.4775,-3.4775,-3.4775,-3.4775,-3.4775,-3.4859,-3.5292,-3.54,-3.5125,-3.3919,-3.3709,-3.3285,-3.1394,-3.1226,-3.1522,-3.1542,-3.169,-3.1961,-3.2292,-3.2364,-3.225,-3.1919,-3.1857,-3.1971,-3.2302,-3.2364,0.0,-3.2463,-3.2483,-3.2535,-3.2659,-3.2669,-3.2669,-3.2669,-3.2669,-3.2669,-3.2669,-3.2612,-3.2487,-3.2315,-3.2498,-3.2264,-3.1502,-3.1085,-3.0738,0.0,0.0,0.0,0.0,0.0,0.0,0.0,0.0,0.0,0.0,0.0,0.0,0.0,0.0,0.0,0.0,0.0,0.0,0.0,0.0,0.0,0.0,-2.4578,-2.4833,-2.5235,-2.543,-2.5654,-2.5937,-2.623,-2.6455,-2.6631,-2.7041,-2.7393,-2.7699,-2.7885,-2.8037,-2.8281,-2.8291,-2.8291,-2.8291,-2.8291,-2.8291,-2.8291,-2.8291,-2.8291,-2.8291,-2.8291,-2.8291,-2.8291,-2.8291,-2.8291,0.0,-2.8291,-2.8291,-2.8344,-2.8804,-2.8953,0.0,0.0,0.0,0.0,0.0,-3.2538,-3.3918,-3.4066,-3.4421,-3.4775,-3.4775,-3.4931,-3.516,-3.516,-3.5267,-3.5445,-3.523,-3.5199,-3.4851,-3.3343,-3.3308,-3.3257,-3.1543,-3.1577,-3.1996,-3.1902,-3.203,-3.2226,-3.2493,0.0,0.0,-3.2318,-3.2277,-3.237,-3.2638,-3.2669,-3.2669,-3.2669,-3.2669,-3.2669,-3.2669,-3.2669,-3.2669,-3.2669,-3.2612,0.0,0.0,0.0,-3.2028,-3.1903,-3.1923,0.0,0.0,0.0,-3.1054,-3.0889,0.0,0.0,0.0,-3.0571,-3.0571,0.0,0.0,0.0,0.0,0.0,0.0,0.0,0.0,0.0,0.0,0.0,0.0,0.0,0.0,0.0,0.0,-2.4686,-2.5,-2.5351,-2.5361,-2.5653,-2.6338,-2.6475,-2.668,-2.7051,-2.748,-2.7787,-2.7787,-2.8086,-2.8291,-2.8291,0.0,0.0,0.0,0.0,-2.8291,-2.8291,-2.8291,-2.8291,-2.8291,-2.8291,-2.8291,-2.8291,-2.8291,-2.8291,-2.8291,-2.8291,-2.8291,-2.8398,-2.9313,-2.9775,-2.9922,-3.0026,-3.0078,-3.0235,-3.137,-3.3001,-3.4531,-3.3729,0.0,0.0,-3.4943,-3.5328,-3.5701,-3.5701,-3.6038,-3.6144,-3.5022,-3.471,-3.4418,-3.3201,-3.3421,-3.3693,-3.2789,-3.2917,-3.3077,-3.2352,-3.219,-3.2248,-3.2248,-3.243,-3.2633,-3.2684,-3.2711,-3.2669,-3.2669,-3.2768,-3.2799,-3.2799,-3.2851,-3.2882,-3.2882,0.0,0.0,-3.2882,-3.2642,-3.2516,-3.2459,-3.188,-3.1473,-3.1473,-3.1259,-3.1201,-3.1415,-3.1201,-3.1035,-3.1035,-3.1035,-3.1035,-3.1035,-3.121,-3.1112,0.0,0.0,0.0,0.0,0.0,0.0,0.0,0.0,0.0,0.0,0.0,0.0,0.0,0.0,0.0,-2.4489,-2.4529,-2.4897,-2.5754,-2.5852,-2.599,-2.6377,-2.7002,-2.7503,-2.7581,-2.792,-2.8174,-2.8174,-2.8252,-2.8291,-2.8291,-2.8291,0.0,-2.8291,-2.8291,-2.8291,-2.8291,-2.8291,-2.8291,-2.8291,0.0,0.0,-2.8291,-2.8291,-2.8291,-2.8291,-2.8291,-2.8291,-2.8291,-2.8495,-2.9112,-2.9974,-3.0908,-3.1268,-3.1421,-3.2488,-3.3151,-3.3668,-3.4748,-3.5262,-3.5533,-3.5966,-3.617,-3.6254,-3.6254,-3.6326,0.0,-3.545,-3.5237,-3.4849,-3.3189,-3.2864,-3.2654,-3.1552,-3.1486,-3.1652,-3.1556,-3.173,-3.1903,-3.1903,-3.196,-3.2129,-3.2776,-3.2792,-3.2669,-3.2669,-3.3027,-3.3254,-3.3254,-3.3586,-3.3803,-3.3803,-3.3803,-3.3803,-3.3803,-3.3803,-3.3626,-3.3389,-3.2973,-3.2734,-3.2734,-3.2435,-3.2315,-3.2375,-3.2095,-3.1924,-3.1924,-3.1924,-3.1924,-3.1904,-3.127,-3.0947,0.0,0.0,0.0,0.0,0.0,0.0,0.0,0.0,0.0,0.0,0.0,-2.4202,0.0,0.0,-2.4316,-2.4759,-2.4946,-2.5346,-2.6177,-2.663,-2.6919,-2.7031,-2.7454,-2.7796,-2.7959,-2.8164,-2.8291,-2.8291,-2.8291,-2.8291,-2.8291,-2.8291,-2.8291,-2.8291,-2.8291,-2.8291,-2.8291,-2.8291,-2.8291,-2.8291,-2.8291,-2.8291,-2.8291,-2.8291,-2.8291,-2.8301,-2.8516,-2.8603,-2.8731,-3.0095,-3.1286,-3.2326,-3.296,-3.3032,-3.2858,-3.3428,-3.4094,-3.4928,-3.5705,-3.6014,-3.605,-3.6314,-3.6157,-3.588,-3.588,-3.5689,-3.5187,-3.4285,-3.4032,-3.3698,-3.2176,-3.1787,-3.1682,-3.1228,-3.1112,-3.116,-3.1267,-3.162,-3.1896,-3.1896,-3.2183,-3.2581,-3.297,-3.2946,-3.298,-3.3341,-3.3586,-3.372,-3.372,-3.3927,-3.4132,-3.4132,-3.3943,-3.3824,-3.3824,-3.3525,-3.3235,-3.2935,-3.2754,-3.2633,-3.2633,-3.2522,-3.2401,-3.2401,-3.2289,-3.2229,-3.2229,-3.2229,-3.2229,-3.2219,-3.1728,-3.1533,0.0,0.0,0.0,0.0,0.0,0.0,0.0,-2.4152,-2.4202,-2.4202,-2.4202,-2.4202,-2.4202,-2.4266,-2.4531,-2.5097,-2.5481,-2.5984,-2.666,-2.7286,-2.7748,-2.7836,-2.7836,-2.792,-2.8262,-2.8291,-2.8291,-2.8291,-2.8291,-2.8291,-2.8291,-2.8291,-2.8291,-2.8291,-2.8291,-2.8291,-2.8291,-2.8291,-2.8291,-2.8291,-2.8291,-2.8291,-2.8291,-2.8291,-2.834,-2.8437,-2.8857,-2.9153,-2.9545,-3.1502,-3.309,-3.4264,-3.417,-3.4186,-3.4285,-3.4182,-3.4988,-3.6156,-3.6468,-3.6402,-3.6196,-3.6304,-3.5859,-3.5213,-3.5213,-3.4844,-3.4168,-3.3016,-3.2685,-3.241,-3.1228,-3.0889,-3.0947,-3.116,-3.1113,-3.1064,-3.1288,-3.1683,-3.2058,-3.2058,-3.2515,-3.2955,-3.3095,-3.3115,-3.3326,-3.3844,-3.3966,-3.4017,-3.4017,-3.4099,-3.4151,-3.4151,-3.391,-3.379,-3.379,-3.3175,-3.2759,-3.2534,-3.2473,-3.2412,-3.2412,-3.2412,-3.2412,-3.2412,-3.2412,-3.2412,-3.2412,-3.2412,-3.2412,-3.2412,-3.2412,-3.2324,-2.2248,-2.2594,-2.2695,-2.2946,-2.3197,-2.3497,0.0,-2.4053,-2.4202,-2.4202,-2.4202,-2.4202,-2.4202,-2.4505,-2.4822,-2.5153,-2.5707,-2.6412,-2.7102,-2.7522,-2.7855,-2.8174,-2.8223,-2.8242,-2.8291,-2.8291,-2.8291,-2.8291,-2.8291,-2.8291,-2.8291,-2.8291,-2.8291,-2.8291,-2.8291,-2.8291,-2.8291,-2.8291,-2.8291,-2.8291,-2.8291,-2.8291,-2.8291,-2.8291,-2.8496,-2.8877,-2.9307,-3.0138,-3.1052,-3.0309,-3.1233,-3.309,-3.2028,-3.3095,-3.5221,-3.4837,-3.4815,-3.519,-3.6617,-3.6395,-3.5599,-3.6071,-3.544,-3.4526,-3.4526,-3.4459,-3.4168,-3.3016,-3.2685,-3.241,-3.1228,-3.0889,-3.0889,-3.0947,-3.1172,-3.1445,-3.1445,-3.1847,-3.215,-3.215,-3.225,-3.2529,-3.3149,-3.3269,-3.3263,-3.3226,-3.3569,-3.3821,-3.3821,-3.4164,-3.4334,-3.4334,-3.4334,-3.4334,-3.4334,-3.396,-3.371,-3.372,-3.3407,-3.3281,-3.3281,-3.3281,-3.3281,-3.3281,-3.3281,-3.3281,-3.3281,-3.3281,-3.3281,-3.3281,-3.3281,-3.2881,-2.245,-2.2695,-2.2896,-2.3147,-2.3447,-2.3696,-2.3954,-2.4102,-2.4202,-2.4202,-2.4202,-2.4275,-2.4523,-2.4808,-2.527,0.0,-2.6541,-2.706,-2.78,-2.7974,-2.8096,-2.8271,-2.8291,-2.8291,-2.8291,-2.8291,-2.8291,-2.8291,-2.8291,-2.8291,-2.8291,-2.8291,-2.8291,-2.8291,-2.8291,-2.8291,-2.8291,-2.8291,-2.8291,-2.8291,-2.8291,-2.8291,-2.8301,-2.8545,-2.9023,-2.9678,-2.9853,-3.0362,-3.1111,-3.1327,-3.1993,-3.2921,-3.3792,-3.4394,-3.4843,-3.5047,-3.5324,-3.5741,-3.6389,-3.5845,-3.4823,-3.5101,-3.4336,-3.3402,-3.3402,-3.2903,-3.2285,-3.1787,-3.1682,-3.1508,-3.1005,-3.1074,-3.126,-3.126,-3.1582,-3.1894,-3.1894,-3.2236,-3.2529,-3.2529,-3.2734,-3.3011,-3.3322,-3.3342,-3.3345,-3.3282,-3.3783,-3.4151,-3.4151,-3.4312,-3.436,-3.411,-3.411,-3.4047,-3.3859,-3.367,-3.3607,-3.3607,-3.3481,-3.3418,-3.3418,-3.3418,-3.3418,-3.3418,-3.3418,-3.3418,-3.3418,-3.3418,-3.3418,-3.3418,-3.3418,-3.3232,-2.2695,-2.2846,-2.3097,-2.3397,-2.3646,-2.3845,-2.4152,-2.4202,-2.4238,-2.4358,-2.4376,-2.4505,-2.4867,-2.5279,-2.5797,-2.6669,-2.7175,-2.7665,-2.8242,-2.8291,-2.8291,-2.8291,-2.8291,-2.8291,-2.8291,-2.8291,-2.8291,-2.8291,-2.8291,-2.8291,-2.8291,-2.8291,-2.8291,-2.8291,-2.8291,-2.8291,-2.8291,-2.8291,-2.8291,-2.8291,-2.8408,-2.8467,-2.8486,-2.9023,-2.9609,-3.0205,-3.0332,-3.0749,-3.145,-3.196,-3.241,-3.2856,-3.4179,-3.4402,-3.3968,-3.4482,-3.5074,-3.5674,-3.5674,-3.4958,-3.3955,-3.3955,-3.313,-3.218,-3.218,-3.1566,-3.0889,-3.0889,-3.0976,-3.1064,-3.1064,-3.1377,-3.1699,-3.1699,-3.2031,-3.2344,-3.2344,-3.2666,-3.2969,-3.2969,-3.3213,-3.3418,-3.3418,-3.3418,-3.3418,-3.3418,-3.3796,-3.411,-3.411,-3.411,-3.4047,-3.3796,-3.3733,-3.367,-3.3418,-3.3418,-3.3418,-3.3418,-3.3418,-3.3418,-3.3418,-3.3418,-3.3418,-3.3418,-3.3418,-3.3418,-3.3418,-3.3418,-3.3418,-3.3418,-3.3418,-3.3418,-2.2896,-2.2996,-2.3147,-2.3646,-2.3795,-2.3845,-2.4152,-2.4202,-2.4321,-2.4675,-2.4757,-2.4886,-2.5332,-2.5928,-2.6471,-2.6763,-2.7414,-2.8004,-2.8237,-2.8291,-2.8291,-2.8291,-2.8291,-2.8291,0.0,-2.8291,-2.8291,-2.8291,-2.8291,-2.8291,-2.8291,-2.8291,-2.8291,-2.8291,-2.8291,-2.8291,-2.8291,-2.8291,-2.8291,-2.8301,-2.8701,-2.8896,-2.8926,-2.9775,-3.0176,-3.0225,-3.0674,-3.1546,-3.2581,-3.1392,-3.1614,-3.2571,-3.1508,-3.173,-3.2742,-3.2778,-3.3494,-3.4447,-3.4447,-3.373,-3.2742,-3.2742,-3.196,-3.0947,-3.0947,-3.0947,-3.0889,-3.0889,-3.1182,-3.1504,-3.1504,-3.1816,-3.2148,-3.2148,-3.2471,-3.2773,-3.2773,-3.3105,-3.3408,-3.3408,-3.3408,-3.3418,-3.3418,-3.3418,-3.3418,-3.3418,-3.3418,-3.3418,-3.3418,-3.3418,-3.3418,-3.3418,-3.3418,-3.3418,-3.3418,-3.3418,-3.3418,-3.3418,-3.3418,-3.3418,-3.3418,-3.3418,-3.3418,-3.3418,-3.3418,-3.3418,-3.3418,-3.3418,-3.3418,-3.3418,-3.3418,-3.3418,-2.2996,-2.3247,-2.3546,-2.3746,-2.3954,-2.4176,-2.451,-2.4624,-2.4735,-2.5139,-2.5221,-2.5298,-2.5736,-2.6247,-2.6805,-2.7132,-2.7766,-2.8184,-2.8291,-2.8291,-2.8291,-2.8291,-2.8291,0.0,0.0,0.0,0.0,-2.8291,-2.8291,-2.8291,-2.8291,-2.8291,-2.8291,-2.8291,-2.8291,-2.8291,-2.8291,-2.8574,-2.8711,-2.8711,-2.915,-2.9502,-2.9775,-3.0068,-3.0361,-3.0664,-3.082,-3.1122,-3.145,-3.1064,-3.1112,-3.1566,-3.196,-3.1845,-3.1624,-3.241,-3.2457,-3.217,-3.3006,-3.2514,-3.1508,-3.1508,-3.1228,-3.0889,-3.0889,-3.1084,-3.1309,-3.1309,-3.1621,-3.1953,-3.1953,-3.2266,-3.2588,-3.2588,-3.29,-3.3213,-3.3213,-3.332,-3.3418,-3.3418,-3.3418,-3.3418,-3.3418,-3.3418,-3.3418,-3.3418,-3.3418,-3.3418,-3.3418,-3.3418,-3.3418,-3.3418,-3.3418,-3.3418,-3.3418,-3.3418,-3.3418,-3.3418,-3.3418,-3.3418,-3.3418,-3.3418,-3.3418,-3.3418,-3.3418,-3.3418,-3.3418,-3.3418,-3.3418,-3.3418,-3.3418,-3.3418,-2.3247,-2.3546,-2.3841,-2.4085,-2.4272,-2.4532,-2.4904,-2.4986,-2.5157,-2.5552,-2.5635,-2.5764,-2.6168,-2.6661,-2.7128,-2.7384,-2.7916,-2.8291,-2.8291,-2.8291,-2.8291,-2.8291,-2.8291,-2.8291,0.0,0.0,0.0,-2.8291,-2.8291,-2.8291,-2.8291,-2.8291,-2.8291,-2.8291,-2.8437,-2.8516,-2.8516,-2.8935,-2.9228,-2.9375,-2.9658,-3.0019,-3.0449,-3.0449,-3.0605,-3.0889,-3.0889,-3.0889,-3.0889,-3.0889,-3.0889,-3.1005,-3.173,-3.1566,-3.1005,-3.1787,-3.1566,-3.1005,-3.1787,-3.1566,-3.0889,-3.0889,-3.0889,-3.0918,-3.1064,-3.1299,-3.1543,-3.1709,-3.206,-3.2393,-3.2393,-3.2705,-3.3018,-3.3018,-3.3223,-3.3418,-3.3418,-3.3418,-3.3418,-3.3418,-3.3418,-3.3418,-3.3418,-3.3418,-3.3418,-3.3418,-3.3418,-3.3418,-3.3418,-3.3418,-3.3418,-3.3418,-3.3418,-3.3418,-3.3418,-3.3418,-3.3418,-3.3418,-3.3418,-3.3418,-3.3418,-3.3418,-3.3418,-3.3418,-3.3418,-3.3418,-3.3418,-3.3418,-3.3418,-3.3418,-3.3418,-3.3418,-2.3673,-2.3832,-2.4031,-2.4661,-2.4812,-2.4913,-2.5359,-2.5451,-2.5561,-2.5966,-2.6039,-2.6168,0.0,0.0,-2.7377,-2.7377,-2.7916,-2.8291,-2.8291,-2.8291,-2.8291,0.0,0.0,0.0,0.0,0.0,0.0,-2.8291,0.0,-2.8291,-2.8291,-2.831,-2.833,-2.833,-2.873,-2.8955,-2.8955,-2.9385,-2.9814,-3.0234,-3.0234,-3.0459,-3.0889,-3.0889,-3.0889,-3.0889,-3.0889,-3.0889,-3.0889,-3.0889,-3.0889,-3.0889,-3.0889,-3.0889,-3.0889,-3.0889,-3.0889,-3.0889,-3.0889,-3.0889,-3.0898,-3.0918,-3.0928,-3.0996,-3.1426,-3.1562,-3.167,-3.209,-3.25,-3.2832,-3.2832,-3.3125,-3.3418,-3.3418,-3.3418,-3.3418,-3.3418,-3.3418,-3.3418,-3.3418,-3.3418,-3.3418,-3.3418,-3.3418,-3.3418,-3.3418,-3.3418,-3.3418,-3.3418,-3.3418,-3.3418,-3.3418,-3.3418,-3.3418,-3.3418,-3.3418,-3.3418,-3.3418,-3.3418,-3.3418,-3.3418,-3.3418,-3.3418,-3.3418,-3.3418,-3.3418,-3.3418,-3.3418,-3.3418,-3.3418,-3.3418,-3.3418,-2.4125,-2.4367,-2.467,-2.5124,-2.5277,-2.5378,-2.5773,-2.5865,-2.5975,-2.6344,-2.6426,-2.6463,-2.6564,-2.7062,-2.7377,-2.7377,-2.7916,0.0,-2.8291,-2.8291,0.0,-2.8291,-2.8291,-2.8291,-2.8291,-2.8291,0.0,0.0,-2.8291,-2.8291,-2.8291,-2.8584,-2.876,-2.876,-2.918,-2.9404,-2.9404,-2.9824,-3.0264,-3.0713,-3.0713,-3.0771,-3.0889,-3.0889,-3.0889,-3.0889,-3.0889,-3.0889,-3.0889,-3.0889,-3.0889,-3.0889,-3.0889,-3.0889,-3.0889,-3.0889,-3.0889,-3.0889,-3.0889,-3.0889,-3.0947,-3.126,-3.1357,-3.1435,-3.1875,-3.2217,-3.249,-3.2607,-3.2939,-3.3262,-3.3262,-3.334,-3.3418,-3.3418,-3.3418,-3.3418,-3.3418,-3.3418,-3.3418,-3.3418,-3.3418,-3.3418,-3.3418,-3.3418,-3.3418,-3.3418,-3.3418,-3.3418,-3.3418,-3.3418,-3.3418,-3.3418,-3.3418,-3.3418,-3.3418,-3.3418,-3.3418,-3.3418,-3.3418,-3.3418,-3.3418,-3.3418,-3.3418,-3.3418,-3.3418,-3.3418,-3.3418,-3.3418,-3.3418,-3.3418,-3.3418,-3.3418,-2.4467,-2.4802,-2.5133,-2.558,-2.5681,-2.5791,-2.6195,-2.6233,-2.6352,-2.6536,-2.6591,-2.6636,-2.6736,-2.7107,-2.7431,-2.7584,0.0,0.0,-2.8291,-2.8291,-2.8291,0.0,-2.8291,0.0,-2.8555,-2.8564,-2.8652,0.0,-2.8682,-2.8564,-2.8564,-2.8975,-2.9209,-2.9209,-2.9619,-2.9941,-3.0146,-3.0381,-3.0635,-3.0889,-3.0889,-3.0889,-3.0889,-3.0889,-3.0889,-3.0889,0.0,-3.0889,-3.0889,-3.0889,-3.0889,-3.0889,-3.0889,-3.0889,-3.0889,-3.0889,-3.0889,-3.0889,-3.0889,-3.1016,-3.1201,-3.1445,-3.165,-3.1885,-3.2314,-3.2607,-3.2832,-3.3018,-3.3242,-3.3418,-3.3418,-3.3418,-3.3418,-3.3418,-3.3418,-3.3418,-3.3418,-3.3418,-3.3418,-3.3418,-3.3418,-3.3418,-3.3418,-3.3418,-3.3418,-3.3418,-3.3418,-3.3418,-3.3418,-3.3418,-3.3418,-3.3418,-3.3418,-3.3418,-3.3418,-3.3418,-3.3418,-3.3418,-3.3418,-3.3418,-3.3418,-3.3418,-3.3418,-3.3418,-3.3418,-3.3418,-3.3418,-3.3418,-3.3418,-3.3418,-3.3418,-3.3418,-2.4862,-2.5188,-2.5598,-2.5993,-2.6094,-2.6195,-2.6509,-2.6591,-2.6591,-2.6591,-2.6646,-2.6745,-2.6935,-2.726,-2.7584,-2.7853,0.0,-2.8291,-2.8291,-2.8291,-2.831,-2.8369,-2.8379,-2.8545,-2.8965,-2.9004,-2.916,-2.9597,-2.9268,-2.9062,-2.9014,-2.9424,-2.9734,-2.9746,-3.0098,-3.0478,-3.0889,-3.0889,-3.0889,-3.0889,-3.0889,-3.0889,-3.0889,-3.0889,-3.0889,-3.0889,0.0,0.0,-3.0889,-3.0889,-3.0889,-3.0889,-3.0889,-3.0889,-3.0889,-3.0889,-3.0889,-3.0898,-3.0957,-3.125,-3.1601,-3.1601,-3.1894,-3.2324,-3.2754,-3.2881,-3.2949,-3.332,-3.3418,-3.3418,-3.3418,-3.3418,-3.3418,-3.3418,-3.3418,-3.3418,-3.3418,-3.3418,-3.3418,-3.3418,-3.3418,-3.3418,-3.3418,-3.3418,-3.3418,-3.3418,-3.3418,-3.3418,-3.3418,-3.3418,-3.3418,-3.3418,-3.3418,-3.3418,-3.3418,-3.3418,-3.3418,-3.3418,-3.3418,-3.3418,-3.3418,-3.3418,-3.3418,-3.3418,-3.3418,-3.3418,-3.3418,-3.3418,-3.3418,-3.3418,-3.3418,-3.3418,-2.5573,-2.5855,-2.6012,-2.6371,-2.6481,-2.6499,-2.6573,-2.6591,-2.6591,-2.6591,-2.6791,-2.6935,-2.6989,-2.7476,-2.7853,-2.7906,-2.813,-2.8291,-2.8291,-2.8291,-2.8418,0.0,-2.8809,-2.8984,-2.9414,-2.9453,0.0,0.0,0.0,-2.9824,-2.9473,-2.9863,-3.0264,-3.0644,-3.0732,-3.081,-3.0889,-3.0889,-3.0889,-3.0889,-3.0889,-3.0889,-3.0889,-3.0889,-3.0889,-3.0889,-3.0889,0.0,-3.0889,-3.0889,-3.0889,-3.0889,-3.0889,-3.0889,-3.0889,-3.0889,-3.0889,-3.0947,-3.1289,-3.1689,-3.206,-3.206,-3.2344,-3.2764,-3.3184,-3.331,-3.333,-3.3398,-3.3418,-3.3418,-3.3418,-3.3418,-3.3418,-3.3418,-3.3418,-3.3418,-3.3418,-3.3418,-3.3418,-3.3418,-3.3418,-3.3418,-3.3418,-3.3418,-3.3418,-3.3418,-3.3418,-3.3418,-3.3418,-3.3418,-3.3418,-3.3418,-3.3418,-3.3418,-3.3418,-3.3418,-3.3418,-3.3418,-3.3418,-3.3418,-3.3418,-3.3418,-3.3418,-3.3418,-3.3418,-3.3418,-3.3418,-3.3418,-3.3418,-3.3418,-3.3418,-3.3418,-2.5855,-2.6177,-2.6334,-2.6536,-2.6591,-2.6591,-2.6591,-2.6591,-2.6636,-2.6791,-2.689,-2.7098,-2.7422,-2.7691,-2.8028,-2.8358,-2.832,-2.8369,-2.8584,-2.8613,-2.8691,-2.8896,-2.9121,-2.9424,-2.9853,-2.9893,-3.0,0.0,0.0,-3.0361,-2.9922,-3.0312,-3.0664,-3.0889,-3.0889,-3.0889,-3.0889,-3.0889,-3.0889,-3.0889,-3.0889,-3.0889,-3.0889,-3.0889,-3.0889,-3.0889,-3.0889,0.0,-3.0889,-3.0889,-3.0889,-3.0889,-3.0889,-3.0889,-3.0889,-3.0889,-3.0889,-3.0957,-3.1367,-3.1807,-3.2207,-3.2422,-3.2773,-3.3164,-3.3359,-3.3418,-3.3418,-3.3418,-3.3418,-3.3418,-3.3418,-3.3418,-3.3418,-3.3418,-3.3418,-3.3418,-3.3418,-3.3418,-3.3418,-3.3418,-3.3418,-3.3418,-3.3418,-3.3418,-3.3418,-3.3418,-3.3418,-3.3418,-3.3418,-3.3418,-3.3418,-3.3418,-3.3418,-3.3418,-3.3418,-3.3418,-3.3418,-3.3418,-3.3418,-3.3418,-3.3418,-3.3418,-3.3418,-3.3418,-3.3418,-3.3418,-3.3418,-3.3418,-3.3418,-3.3418,-3.3418,-3.3418,-2.6021,-2.6334,-2.6591,-2.6591,-2.6591,-2.6591,-2.6591,-2.6636,-2.6736,-2.6935,-2.7098,-2.7368,-2.7799,-2.796,-2.8203,-2.8793,-2.8643,-2.8574,-2.8994,-2.9062,-2.9092,-2.918,-2.9492,0.0,-3.0303,-3.0342,0.0,0.0,0.0,0.0,-3.0361,-3.0693,-3.0889,-3.0889,-3.0889,-3.0889,-3.0889,-3.0889,-3.0889,-3.0889,-3.0889,-3.0889,-3.0889,-3.0889,-3.0889,-3.0889,-3.0889,0.0,0.0,-3.0889,-3.0889,-3.0889,-3.0889,-3.0889,-3.0889,-3.0889,-3.0889,-3.0967,-3.1484,-3.1885,-3.2256,-3.2764,-3.3154,-3.3418,-3.3418,-3.3418,-3.3418,-3.3418,-3.3418,-3.3418,-3.3418,-3.3418,-3.3418,-3.3418,-3.3418,-3.3418,-3.3418,-3.3418,-3.3418,-3.3418,-3.3418,-3.3418,-3.3418,-3.3418,-3.3418,-3.3418,-3.3418,-3.3418,-3.3418,-3.3418,-3.3418,-3.3418,-3.3418,-3.3418,-3.3418,-3.3418,-3.3418,-3.3418,-3.3418,-3.3418,-3.3418,-3.3418,-3.3418,-3.3418,-3.3418,-3.3418,-3.3418,-3.3418,-3.3418,-3.3418,-3.3481,-3.3491,-2.6316,-2.6554,-2.6591,-2.6591,-2.6591,-2.6591,-2.6591,-2.6791,-2.6989,-2.6989,-2.7422,-2.7853,-2.7906,-2.8121,-2.8374,-2.8848,-2.8887,-2.9014,-2.9453,-2.9567,-2.9648,-3.0039,0.0,0.0,-3.0781,-3.083,0.0,0.0,0.0,0.0,-3.083,-3.0869,-3.0889,-3.0889,-3.0889,-3.0889,-3.0889,-3.0889,-3.0889,-3.0889,-3.0889,-3.0889,-3.0889,-3.0889,-3.0889,-3.0889,-3.0889,0.0,0.0,-3.0889,-3.0889,-3.0889,-3.0889,-3.0889,-3.0889,-3.0889,-3.0889,-3.1006,-3.1826,-3.2129,-3.2305,-3.3105,-3.3389,-3.3418,-3.3418,-3.3418,-3.3418,-3.3418,-3.3418,-3.3418,-3.3418,-3.3418,-3.3418,-3.3418,-3.3418,-3.3418,-3.3418,-3.3418,-3.3418,-3.3418,-3.3418,-3.3418,-3.3418,-3.3418,-3.3418,-3.3418,-3.3418,-3.3418,-3.3418,-3.3418,-3.3418,-3.3418,-3.3418,-3.3418,-3.3418,-3.3418,-3.3418,-3.3418,-3.3418,-3.3418,-3.3418,-3.3418,-3.3418,-3.3418,-3.3418,-3.3418,-3.3418,-3.3418,-3.3418,-3.3428,-3.3733,-3.3859,-2.6435,-2.6591,-2.6591,-2.6591,-2.6591,-2.6636,-2.6791,-2.6944,-2.7098,-2.7476,-2.7745,-2.796,-2.8121,-2.8442,-2.8809,-2.9238,-2.9307,-2.9463,-2.9893,-2.9941,-3.001,-3.0176,-3.0449,0.0,0.0,0.0,0.0,0.0,0.0,0.0,-3.0889,-3.0889,-3.0889,-3.0889,-3.0889,-3.0889,-3.0889,-3.0889,-3.0889,-3.0889,-3.0889,-3.0889,-3.0889,-3.0889,-3.0889,-3.0889,-3.0889,0.0,0.0,-3.0889,-3.0889,-3.0889,-3.0889,-3.0889,-3.0889,-3.0889,-3.0889,-3.1016,-3.1875,-3.2229,-3.2305,-3.3144,-3.3418,-3.3418,-3.3418,-3.3418,-3.3418,-3.3418,-3.3418,-3.3418,-3.3418,-3.3418,-3.3418,-3.3418,-3.3418,-3.3418,-3.3418,-3.3418,-3.3418,-3.3418,-3.3418,-3.3418,-3.3418,-3.3418,-3.3418,-3.3418,-3.3418,-3.3418,-3.3418,-3.3418,-3.3418,-3.3418,-3.3418,-3.3418,-3.3418,-3.3418,-3.3418,-3.3418,-3.3418,-3.3418,-3.3418,-3.3418,-3.3418,-3.3418,-3.3418,-3.3418,-3.3418,-3.3418,-3.3481,-3.367,-3.3859,-3.3985,-2.6472,-2.6591,-2.6591,-2.6591,-2.6636,-2.6791,-2.6935,-2.7152,-2.7368,-2.7799,-2.796,-2.8067,-2.8291,-2.8633,-2.9062,-2.9502,-2.9678,-2.9902,-3.0342,-3.04,-3.04,-3.04,0.0,-3.0889,0.0,0.0,0.0,0.0,0.0,0.0,0.0,-3.0889,-3.0889,-3.0889,-3.0889,-3.0889,-3.0889,-3.0889,-3.0889,-3.0889,-3.0889,-3.0889,-3.0889,-3.0889,-3.0889,-3.0889,0.0,0.0,0.0,-3.0889,-3.0889,-3.0889,-3.0889,-3.0889,-3.0889,-3.0889,-3.0889,-3.1016,-3.1875,-3.2229,-3.2305,-3.3144,-3.3418,-3.3418,-3.3418,-3.3418,-3.3418,-3.3418,-3.3418,-3.3418,-3.3418,-3.3418,-3.3418,-3.3418,-3.3418,-3.3418,-3.3418,-3.3418,-3.3418,-3.3418,-3.3418,-3.3418,-3.3418,-3.3418,-3.3418,-3.3418,-3.3418,-3.3418,-3.3418,-3.3418,-3.3418,-3.3418,-3.3029,-3.2965,-3.3355,-3.3418,-3.3418,-3.3418,-3.3418,-3.3418,-3.3418,-3.3418,-3.3418,-3.3418,-3.3418,-3.3418,-3.3418,-3.3418,-3.3544,-3.3733,-3.3985,-3.4298,-2.6472,-2.6591,-2.6591,-2.6591,-2.6791,-2.6989,-2.6989,-2.7476,-2.7906,-2.7906,-2.8121,-2.8291,-2.8291,-2.8633,-2.9062,-2.9502,-2.9912,-3.0351,-3.082,-3.0889,-3.0889,0.0,0.0,-3.0889,0.0,0.0,0.0,0.0,0.0,0.0,0.0,-3.0889,-3.0889,-3.0889,-3.0889,-3.0889,-3.0889,-3.0889,-3.0889,-3.0889,-3.0889,-3.0889,-3.0889,-3.0889,-3.0889,0.0,0.0,0.0,0.0,-3.0889,-3.0889,-3.0889,-3.0889,-3.0889,-3.0889,-3.0889,-3.0889,-3.1016,-3.1875,-3.2229,-3.2305,-3.3144,-3.3418,-3.3418,-3.3418,-3.3418,-3.3418,-3.3418,-3.3418,-3.3418,-3.3418,-3.3418,-3.3418,-3.3418,-3.3418,-3.3418,-3.3418,-3.3418,-3.3418,-3.3418,-3.3418,-3.3418,-3.3418,-3.3418,-3.3418,-3.3418,-3.3418,-3.3418,-3.3418,-3.3418,-3.3418,-3.3418,-3.2164,-3.1909,-3.3292,-3.3418,-3.3418,-3.3418,-3.3418,-3.3418,-3.3418,-3.3418,-3.3418,-3.3418,-3.3418,-3.3418,-3.3418,-3.3418,-3.3418,-3.3418,-3.411,-3.4735,-2.6799,-2.6745,-2.6691,-2.7062,-2.7053,-2.7098,-2.753,-2.7745,-2.796,-2.813,-2.8237,-2.8291,-2.8291,-2.8877,-2.9414,-2.9607,-3.0185,-3.0723,0.0,0.0,0.0,-3.0889,-3.0889,-3.0889,0.0,0.0,0.0,0.0,0.0,0.0,0.0,-3.0889,-3.0889,-3.0889,-3.0889,-3.0889,-3.0889,-3.0889,-3.0889,-3.0889,-3.0889,-3.0889,-3.0889,-3.0889,0.0,0.0,0.0,0.0,0.0,-3.0889,-3.0889,-3.0889,-3.0889,-3.0889,-3.0889,-3.0889,-3.0889,-3.1016,-3.1875,-3.2229,-3.2305,-3.3144,-3.3418,-3.3418,-3.3418,-3.3418,-3.3418,-3.3418,-3.3418,-3.3418,-3.3418,-3.3418,-3.3418,-3.3418,-3.3418,-3.3418,-3.3418,-3.3418,-3.3418,-3.3418,-3.2629,-3.2301,-3.3228,-3.179,-3.0872,-3.1845,-3.113,-3.0558,-3.0558,-3.0558,-3.0558,-3.0558,-3.016,-3.041,-3.1845,-3.1973,-3.1973,-3.1973,-3.2892,-3.3418,-3.3418,-3.3418,-3.3418,-3.3418,-3.3418,-3.3418,-3.3418,-3.3418,-3.3607,-3.411,-3.4797,-3.517,-2.6935,-2.689,-2.6845,-2.7269,-2.7368,-2.7422,-2.7799,-2.796,-2.8121,-2.8291,-2.8291,-2.8291,-2.8291,-2.8994,-2.9626,-2.9626,-3.0312,-3.0889,0.0,0.0,0.0,-3.0889,0.0,0.0,0.0,0.0,0.0,0.0,0.0,0.0,0.0,-3.0889,-3.0889,-3.0889,-3.0889,-3.0889,-3.0889,-3.0889,-3.0889,-3.0889,-3.0889,-3.0889,-3.0889,-3.0889,0.0,0.0,0.0,0.0,0.0,-3.0889,-3.0889,-3.0889,-3.0889,-3.0889,-3.0889,-3.0889,-3.0889,-3.0986,-3.168,-3.2031,-3.2285,-3.2969,-3.3291,-3.3418,-3.3418,-3.3418,-3.3418,-3.3418,-3.3418,-3.3418,-3.3418,-3.3418,-3.3418,-3.3418,-3.3418,-3.3418,-3.3418,-3.2965,-3.2629,-3.2629,-3.1451,-3.0807,-3.1653,-3.0354,-2.9509,-3.041,-2.977,-2.9182,-2.9182,-2.9182,-2.9182,-2.9182,-2.8732,-2.8789,-2.9622,-3.0216,-3.0734,-3.1249,-3.21,-3.2829,-3.3355,-3.3418,-3.3418,-3.3418,-3.3544,-3.3607,-3.3607,-3.3733,-3.4047,-3.461,-3.5046,-3.5294,0.0,-2.7043,-2.7098,-2.7377,-2.7691,-2.7906,-2.7906,-2.813,0.0,-2.8291,-2.8291,-2.8291,-2.8291,-2.8994,-2.9626,-2.9626,-3.0312,-3.0889,0.0,-3.0889,0.0,0.0,-3.0947,0.0,0.0,0.0,0.0,0.0,0.0,0.0,0.0,-3.0889,-3.0889,-3.0889,-3.0889,-3.0889,-3.0889,-3.0889,-3.0889,-3.0889,-3.0889,-3.0889,-3.0889,-3.0889,0.0,0.0,0.0,0.0,0.0,-3.0889,-3.0889,-3.0889,-3.0889,-3.0889,-3.0889,-3.0889,-3.0889,-3.0957,-3.1367,-3.1787,-3.2197,-3.2646,-3.3076,-3.3418,-3.3418,-3.3418,-3.3418,-3.3418,-3.3418,-3.3418,-3.3418,-3.3418,-3.3418,-3.3418,-3.3418,-3.3355,-3.3292,-3.2237,-3.1249,-3.1185,-3.0021,-2.906,-2.9182,-2.906,-2.8928,-2.906,-2.8986,-2.892,-2.892,-2.892,-2.892,-2.892,-2.7816,-2.7028,-2.6953,-2.8328,-2.977,-3.1056,-3.1313,-3.2036,-3.3355,-3.3418,-3.3418,-3.3418,-3.3733,-3.3859,-3.3922,-3.4235,-3.4548,-3.4922,-3.4859,-3.5046,-2.7638,0.0,-2.7431,-2.797,-2.796,-2.796,0.0,-2.8237,-2.8291,-2.8291,-2.8291,-2.8291,-2.8291,-2.8994,-2.9626,-2.9626,-3.0312,-3.0889,-3.0889,0.0,0.0,-3.1218,0.0,0.0,0.0,0.0,0.0,0.0,0.0,0.0,0.0,-3.0889,-3.0889,-3.0889,-3.0889,-3.0889,-3.0889,-3.0889,-3.0889,-3.0889,-3.0889,-3.0889,-3.0889,-3.0889,0.0,0.0,0.0,0.0,-3.0889,-3.0889,-3.0889,-3.0889,-3.0889,-3.0889,-3.0889,-3.0889,-3.0889,-3.0957,-3.1367,-3.1582,-3.1797,-3.2549,-3.3076,-3.3418,-3.3418,-3.3418,-3.3418,-3.3418,-3.3418,-3.3418,-3.3418,-3.3418,-3.3418,-3.3418,-3.3418,-3.3092,-3.2036,-3.1515,-3.0992,-2.9891,-2.8526,-2.7941,-2.8986,-2.7485,-2.6435,-2.7411,-2.6694,-2.604,-2.604,-2.604,-2.604,-2.604,-2.5779,-2.5584,-2.5577,-2.7808,-2.9313,-2.9705,-3.1726,-3.3029,-3.3364,-3.3418,-3.3418,-3.3418,-3.3481,-3.367,-3.3922,-3.4235,-3.4548,-3.4859,-3.436,-3.461,-2.8014,-2.7853,-2.7745,-2.8184,-2.8184,-2.813,-2.8291,-2.8291,-2.8291,-2.8291,-2.8291,-2.8291,-2.8291,-2.8994,-2.9626,-2.9626,-3.0312,0.0,0.0,0.0,-3.1112,-3.1112,0.0,0.0,0.0,0.0,0.0,0.0,0.0,0.0,0.0,-3.0889,-3.0889,-3.0889,-3.0889,-3.0889,-3.0889,-3.0889,-3.0889,-3.0889,-3.0889,-3.0889,-3.0889,-3.0889,-3.0889,0.0,0.0,0.0,-3.0889,-3.0889,-3.0889,-3.0889,-3.0889,-3.0889,-3.0889,-3.0889,-3.0889,-3.0928,-3.1152,-3.1357,-3.166,-3.2519,-3.2949,-3.3174,-3.3359,-3.3418,-3.3418,-3.3418,-3.3418,-3.3418,-3.3418,-3.3418,-3.3418,-3.3418,-3.2892,-3.2237,-3.1442,-3.0272,-2.9165,-2.8394,-2.7153,-2.6435,-2.7219,-2.6107,-2.5322,-2.61,-2.5584,-2.5127,-2.5127,-2.5127,-2.5127,-2.5127,-2.5127,-2.5322,-2.5973,-2.7352,-2.8526,-2.9191,-3.1387,-3.2946,-3.3607,-3.3796,-3.3922,-3.411,-3.411,-3.4235,-3.461,-3.4797,-3.4735,-3.4423,-3.4047,-3.4173,-2.8218,-2.8121,-2.8014,-2.8237,-2.8291,-2.8291,-2.8291,-2.8291,-2.8291,-2.8291,-2.8291,-2.8291,-2.8344,-2.9049,-2.9682,-2.9682,0.0,0.0,-3.1122,-3.1112,-3.1112,0.0,0.0,0.0,0.0,0.0,0.0,0.0,0.0,0.0,0.0,-3.0889,-3.0889,-3.0889,-3.0889,-3.0889,-3.0889,-3.0889,-3.0889,-3.0889,-3.0889,-3.0889,-3.0889,-3.0889,-3.0889,0.0,0.0,0.0,-3.0889,-3.0889,-3.0889,-3.0889,-3.0889,-3.0889,-3.0889,-3.0889,-3.0889,-3.0889,-3.0889,-3.1162,-3.1641,-3.2363,-3.2685,-3.2861,-3.3223,-3.3369,-3.3418,-3.3418,-3.3418,-3.3418,-3.3418,-3.3418,-3.3418,-3.3418,-3.2301,-3.1249,-3.1056,-2.8912,-2.702,-2.682,-2.5906,-2.5127,-2.5127,-2.5127,-2.5127,-2.5127,-2.5127,-2.5127,-2.5127,-2.5127,-2.5127,-2.5127,-2.5127,-2.5644,-2.702,-2.7286,-2.8065,-2.95,-3.0983,-3.2473,-3.3922,-3.4235,-3.4548,-3.4797,-3.4797,-3.4922,-3.5108,-3.5108,-3.46,-3.366,-3.366,-3.3733,-2.8203,-2.8291,-2.8237,-2.8291,-2.8291,-2.8291,-2.8291,-2.8291,-2.8291,-2.8291,-2.8291,-2.8354,-2.8621,-2.9332,-2.9915,-2.9915,0.0,-3.145,0.0,0.0,0.0,0.0,0.0,0.0,0.0,0.0,0.0,0.0,0.0,0.0,0.0,0.0,-3.0889,-3.0889,-3.0889,-3.0889,-3.0889,-3.0889,-3.0889,-3.0889,-3.0889,-3.0889,-3.0889,-3.0889,-3.0889,0.0,0.0,-3.0889,-3.0889,-3.0889,-3.0889,-3.0889,-3.0889,-3.0889,-3.0889,-3.0889,-3.0889,-3.0889,-3.0889,-3.1162,-3.1543,-3.167,-3.2207,-3.2803,-3.2871,-3.3135,-3.3418,-3.3418,-3.3418,-3.3418,-3.3418,-3.3418,-3.3418,-3.3418,-3.2301,-3.0992,-2.977,-2.8262,-2.6753,-2.5652,-2.5255,-2.5127,-2.5127,-2.5127,-2.5127,-2.5127,-2.5127,-2.5127,-2.5127,-2.5127,-2.5127,-2.5127,-2.5127,-2.5644,-2.702,-2.8196,-2.9631,-3.1295,-3.1625,-3.2527,-3.4225,-3.436,-3.4423,-3.4485,-3.4485,-3.4235,-3.3733,-3.3733,-3.3345,-3.2638,-3.2638,-3.3082,-2.8174,-2.8291,-2.8291,-2.8291,-2.8291,-2.8291,-2.8291,-2.8398,-2.8514,-2.8514,-2.8611,-2.8761,-2.8877,-2.9459,-3.0048,-3.0518,0.0,-3.1672,0.0,0.0,0.0,0.0,0.0,0.0,0.0,0.0,0.0,0.0,0.0,0.0,0.0,0.0,-3.1112,-3.1112,-3.1005,-3.0947,-3.1112,-3.0947,-3.0889,-3.0889,-3.0889,-3.0889,-3.0889,-3.0889,-3.0889,-3.0889,0.0,-3.0889,-3.0889,-3.0889,-3.0889,-3.0889,-3.0889,-3.0889,-3.0889,-3.0889,-3.0889,-3.0889,-3.0889,-3.1016,-3.1211,-3.1445,-3.1787,-3.2187,-3.2656,-3.2773,-3.2842,-3.3301,-3.3418,-3.3418,-3.3418,-3.3418,-3.3228,-3.2428,-3.1194,-2.9761,-2.8394,-2.6961,-2.5846,-2.5187,-2.5127,-2.5127,-2.5127,-2.5127,-2.5127,-2.5127,-2.5127,-2.5127,-2.5127,-2.5127,-2.5255,-2.5584,-2.61,-2.7145,-2.8986,-2.9492,-3.0725,-3.3053,-3.3369,-3.3955,-3.4922,-3.4922,-3.4673,-3.411,-3.411,-3.3723,-3.2838,-3.2838,-3.2384,-3.1552,-3.2119,-3.2638,-2.8144,-2.8291,-2.8291,-2.8291,-2.8291,-2.8291,-2.8398,-2.8568,-2.8737,-2.8781,-2.8983,-2.9132,-2.9185,-2.9692,0.0,-3.1303,-3.1738,0.0,0.0,0.0,0.0,0.0,0.0,0.0,0.0,0.0,0.0,0.0,0.0,0.0,0.0,0.0,-3.1325,-3.1325,-3.117,-3.1228,-3.1441,-3.1228,-3.1112,-3.1112,-3.1005,-3.1005,-3.1112,-3.1005,-3.0995,-3.0995,-3.0947,-3.0889,-3.0889,-3.0889,-3.0889,-3.0889,-3.0889,-3.0889,-3.0889,-3.0889,-3.0889,-3.0889,-3.0889,-3.0889,-3.0947,-3.1269,-3.1435,-3.1641,-3.2295,-3.2344,-3.2305,-3.2949,-3.3125,-3.3174,-3.3369,-3.3165,-3.2629,-3.1579,-2.9956,-2.8394,-2.7344,-2.604,-2.5127,-2.5127,-2.5127,-2.5127,-2.5127,-2.5127,-2.5119,-2.5322,-2.5187,-2.5194,-2.5524,-2.5457,-2.5584,-2.6308,-2.7278,-2.8763,-3.0927,-3.124,-3.22,-3.435,-3.4735,-3.5046,-3.5366,-3.5418,-3.4922,-3.3922,-3.411,-3.3534,-3.2065,-3.2256,-3.1873,-3.0861,-3.1873,-3.2511,-2.8066,-2.8291,-2.8291,-2.8291,-2.8291,-2.8354,-2.8621,-2.8684,-2.8781,-2.9026,-2.9079,-2.9185,-2.9501,-3.0258,-3.1201,-3.2416,-3.241,0.0,0.0,0.0,0.0,0.0,0.0,0.0,0.0,0.0,0.0,0.0,0.0,0.0,0.0,0.0,0.0,-3.1325,-3.1556,-3.173,-3.1787,-3.173,-3.173,-3.174,-3.1441,-3.1441,-3.173,-3.1392,-3.1267,-3.1276,-3.1005,-3.0889,-3.0889,-3.0889,-3.0889,-3.0889,-3.0889,-3.0889,-3.0889,-3.0889,-3.0889,-3.0889,-3.0889,-3.0889,-3.0898,-3.0928,-3.1201,-3.1533,-3.1592,-3.1875,-3.2178,-3.2246,-3.2256,-3.2441,-3.3223,-3.2428,-3.1442,-3.1313,-2.923,-2.7211,-2.7145,-2.604,-2.5127,-2.5127,-2.5127,-2.5127,-2.5127,-2.5127,-2.5322,-2.5906,-2.5517,-2.5592,-2.6867,-2.645,-2.6316,-2.7067,-2.8015,-2.9613,-3.199,-3.3621,-3.4662,-3.4859,-3.4859,-3.5046,-3.5366,-3.5418,-3.4922,-3.3922,-3.4797,-3.3839,-3.0917,-3.1927,-3.1873,-3.0861,-3.1873,-3.2892,-2.8057,-2.8408,-2.8568,-2.8568,-2.8664,-2.8771,-2.8727,-2.8993,-2.93,-2.9396,-2.9564,-2.9814,-3.0208,0.0,-3.1457,-3.2142,0.0,0.0,0.0,0.0,0.0,0.0,0.0,0.0,0.0,0.0,0.0,0.0,0.0,0.0,0.0,0.0,0.0,-3.1903,-3.1845,-3.1903,-3.2133,-3.1903,-3.1971,-3.2373,-3.1855,-3.1556,-3.1498,-3.1392,-3.1218,-3.1054,-3.0947,-3.0889,-3.0889,-3.0889,-3.0889,-3.0889,-3.0889,-3.0889,-3.0889,-3.0889,-3.0889,-3.0889,-3.0889,-3.0889,-3.0889,-3.0889,-3.0996,-3.1172,-3.1435,-3.1445,-3.1484,-3.2082,-3.1973,-3.1714,-3.1456,-3.1018,-3.0257,-2.8772,-2.7605,-2.6701,-2.5994,-2.545,-2.5127,-2.5127,-2.5127,-2.5127,-2.5127,-2.5127,-2.5194,-2.545,-2.5644,-2.5913,-2.645,-2.6651,-2.731,-2.8683,-3.0678,-3.2537,-3.4123,-3.4839,-3.5232,-3.5232,-3.5232,-3.5294,-3.5418,-3.5418,-3.46,-3.3019,-3.3975,-3.3272,-3.0788,-3.1873,-3.2192,-3.1809,-3.2829,-3.3534,-2.8321,-2.8664,-2.8834,-2.8834,-2.9036,-2.9185,-2.9046,-2.93,-2.9606,-2.9722,-2.9879,-3.0139,-3.0594,-3.106,0.0,0.0,0.0,0.0,0.0,0.0,0.0,0.0,0.0,0.0,0.0,0.0,0.0,0.0,0.0,0.0,0.0,0.0,0.0,0.0,-3.2143,-3.2201,-3.243,-3.2201,-3.2258,-3.2669,-3.2201,-3.1845,-3.1614,-3.1498,-3.1276,-3.0995,-3.0947,-3.0889,-3.0889,-3.0889,-3.0889,-3.0889,-3.0889,-3.0889,-3.0889,-3.0889,-3.0889,-3.0889,-3.0889,-3.0889,-3.0889,-3.0889,-3.0889,-3.0947,-3.123,-3.1123,-3.1016,-3.1601,-3.1235,-3.0455,-2.9428,-2.9375,-2.9002,-2.7051,-2.621,-2.5701,-2.496,-2.4744,-2.4744,-2.4744,-2.4744,-2.4744,-2.4744,-2.4899,-2.5032,-2.5234,-2.5577,-2.5913,-2.6383,-2.6859,-2.8106,-3.0363,-3.2565,-3.4298,-3.5294,-3.5418,-3.5418,-3.5418,-3.5418,-3.5418,-3.5418,-3.5418,-3.46,-3.2892,-3.3849,-3.3335,-3.1295,-3.2384,-3.2892,-3.2892,-3.3597,-3.4047,-2.8838,-2.9079,-2.9079,-2.9079,-2.9343,-2.9606,-2.9606,-2.9606,-2.9659,-2.9942,-2.9994,-3.0139,-3.0594,-3.106,0.0,0.0,0.0,0.0,0.0,0.0,0.0,0.0,0.0,0.0,0.0,0.0,0.0,0.0,0.0,0.0,0.0,0.0,0.0,0.0,-3.2555,-3.2669,-3.2669,-3.2669,-3.2669,-3.2669,-3.243,-3.2305,-3.2305,-3.196,-3.1614,-3.1267,-3.0995,-3.0889,-3.0889,-3.0889,-3.0889,-3.0889,-3.0889,-3.0889,-3.0889,-3.0889,-3.0889,-3.0889,-3.0889,-3.0889,-3.0889,-3.0889,-3.0889,-3.0889,-3.0889,-3.0889,-3.0889,-3.0889,-2.9903,-2.8564,-2.7315,-2.7508,-2.7748,-2.6479,-2.5092,-2.4079,-2.4086,-2.4086,-2.4086,-2.4086,-2.4086,-2.4086,-2.4086,-2.4349,-2.4827,-2.5464,-2.5293,-2.5584,-2.6992,-2.72,-2.8559,-3.2046,-3.3335,-3.4298,-3.5294,-3.5418,-3.5418,-3.5418,-3.5418,-3.5418,-3.5418,-3.5418,-3.4922,-3.3922,-3.4859,-3.4403,-3.2438,-3.3408,-3.3922,-3.3922,-3.3922,-3.4423,-2.8838,-2.929,-2.9448,-2.9448,-2.9669,-2.9879,-2.9879,-2.9879,-2.9889,-2.9994,-2.9994,-3.0139,-3.0594,-3.0801,0.0,0.0,0.0,0.0,0.0,0.0,0.0,0.0,0.0,0.0,0.0,0.0,0.0,0.0,0.0,0.0,0.0,0.0,0.0,0.0,-3.2669,-3.2669,-3.2669,-3.2669,-3.2669,-3.2669,-3.2612,-3.2373,-3.196,-3.1614,-3.1276,-3.0995,-3.0947,-3.0889,-3.0889,-3.0889,-3.0889,-3.0889,-3.0889,-3.0889,-3.0889,-3.0889,-3.0889,-3.0889,-3.0889,-3.0889,-3.0889,-3.0889,-3.0889,-3.0889,-3.0889,-3.0216,-2.9471,-2.9471,-2.8573,-2.7254,-2.5981,-2.5839,-2.5748,-2.4624,-2.4055,-2.3801,-2.4035,-2.4086,-2.4086,-2.4086,-2.4086,-2.4086,-2.4086,-2.4166,-2.429,-2.4479,-2.4887,-2.5666,-2.7028,-2.9101,-3.0801,-3.1885,-3.3786,-3.5108,-3.5356,-3.5418,-3.5418,-3.5418,-3.5418,-3.5418,-3.5418,-3.5418,-3.4922,-3.3922,-3.4859,-3.4735,-3.3471,-3.4475,-3.4984,-3.4984,-3.4984,-3.5108,-2.9215,-2.9617,-2.9774,-2.9774,-2.9879,-2.9994,-2.9994,-2.9994,-2.9994,-2.9994,-2.9994,-3.0087,-3.0356,-3.0563,0.0,0.0,0.0,0.0,0.0,0.0,0.0,0.0,0.0,0.0,0.0,0.0,0.0,0.0,0.0,0.0,0.0,0.0,0.0,0.0,-3.2669,-3.2669,-3.2669,-3.2669,-3.2669,-3.2669,-3.2612,-3.2373,-3.196,-3.1672,-3.1334,-3.1054,-3.0947,-3.0889,-3.0889,-3.0889,-3.0889,-3.0889,-3.0889,-3.0889,-3.0889,-3.0889,-3.0889,-3.0889,-3.0889,-3.0889,-3.0889,-3.0889,-3.0889,-3.082,-3.0274,-2.953,-2.8801,-2.8265,-2.7246,-2.6042,-2.5317,-2.4702,-2.4138,-2.3543,-2.3398,-2.3457,-2.3654,-2.3698,-2.3698,-2.3698,-2.3698,-2.3762,-2.4082,-2.4186,-2.4403,-2.4668,-2.5216,-2.6056,-2.752,-2.9717,-3.1379,-3.2007,-3.3951,-3.5159,-3.5159,-3.5324,-3.5418,-3.5418,-3.5418,-3.5418,-3.5418,-3.5418,-3.5108,-3.4485,-3.5108,-3.5108,-3.4485,-3.5108,-3.5418,-3.5418,-3.5418,-3.5418,-2.9746,-2.9994,-2.9994,-2.9994,-2.9994,-2.9994,-2.9994,-2.9994,-2.9994,-2.9994,-2.9994,-2.9994,-2.9994,-3.0336,0.0,0.0,0.0,0.0,0.0,0.0,0.0,0.0,0.0,0.0,0.0,0.0,0.0,0.0,0.0,0.0,0.0,0.0,0.0,0.0,-3.2669,-3.2669,-3.2669,-3.2669,-3.2669,0.0,-3.243,-3.2373,-3.2305,-3.1903,-3.1556,-3.1276,-3.1005,-3.0889,-3.0889,-3.0889,-3.0889,-3.0889,-3.0889,-3.0889,-3.0889,-3.0889,-3.0889,-3.0889,-3.0889,-3.0889,-3.0889,-3.0762,-3.0704,-3.046,-2.9107,-2.8623,-2.8316,-2.7134,-2.5928,-2.4949,-2.4949,-2.4031,-2.3106,-2.3106,-2.3106,-2.3106,-2.3106,-2.3106,-2.3106,-2.3106,-2.3106,-2.3293,-2.3984,-2.4367,-2.4763,-2.5462,-2.5842,-2.6661,-2.822,-2.9412,-3.0733,-3.2293,-3.3801,-3.4754,-3.4754,-3.5107,-3.5366,-3.5366,-3.5397,-3.5418,-3.5418,-3.5418,-3.5418,-3.5418,-3.5418,-3.5418,-3.5418,-3.5418,-3.5418,-3.5418,-3.5418,-3.5418,-2.9746,-2.9994,-2.9994,-2.9994,-2.9994,-2.9994,-2.9994,-2.9994,-2.9994,-2.9994,-2.9994,-2.9994,-2.9994,0.0,0.0,0.0,0.0,0.0,0.0,0.0,0.0,0.0,0.0,0.0,0.0,0.0,0.0,0.0,0.0,0.0,0.0,0.0,0.0,-3.2669,-3.2669,-3.2669,-3.2669,-3.2669,-3.2669,0.0,-3.2612,-3.2612,-3.2612,-3.1797,-3.1276,-3.1005,-3.0947,-3.0889,-3.0889,-3.0889,-3.0889,-3.0889,-3.0889,-3.0889,-3.0889,-3.0889,-3.0889,-3.0889,-3.0889,-3.0889,-3.0704,-2.9658,-2.9353,-2.9107,-2.7796,-2.6702,-2.5851,-2.5623,-2.4579,-2.3542,-2.3542,-2.3293,-2.3106,-2.3106,-2.3106,-2.3106,-2.3106,-2.3106,-2.3106,-2.3106,-2.3106,-2.3293,-2.3984,-2.4169,-2.4471,-2.5099,-2.5711,-2.6474,-2.7609,-2.9331,-3.0942,-3.1959,-3.3393,-3.4277,-3.4277,-3.4702,-3.49,-3.49,-3.5231,-3.5418,-3.5418,-3.5418,-3.5418,-3.5418,-3.5418,-3.5418,-3.5418,-3.5418,-3.5418,-3.5418,-3.5418,-3.5418,-2.9746,-2.9994,-2.9994,-2.9994,-2.9994,-2.9994,-2.9994,-2.9994,-2.9994,-2.9994,-2.9994,-2.9994,0.0,0.0,0.0,0.0,0.0,0.0,0.0,0.0,0.0,0.0,0.0,0.0,0.0,0.0,0.0,0.0,0.0,0.0,0.0,-3.2669,-3.2669,-3.2669,-3.2669,-3.2566,-3.2349,-3.2339,-3.2292,-3.2085,-3.2085,-3.2019,-3.185,-3.1654,-3.1334,-3.0889,-3.0889,-3.0889,-3.0889,-3.0889,-3.0889,-3.0889,-3.0889,-3.0889,-3.0889,-3.0889,-3.0889,-3.0889,-3.0889,-3.046,-2.9844,-2.9107,-2.8504,-2.7727,-2.6468,-2.5623,-2.4949,-2.4332,-2.3666,-2.3106,-2.3106,-2.3106,-2.3106,-2.3106,-2.3106,-2.3106,-2.3106,-2.3362,-2.3611,-2.3611,-2.386,-2.4293,-2.4964,-2.5341,-2.5656,-2.6031,-2.6327,-2.7099,-2.8444,-2.9589,-3.0808,-3.2178,-3.3169,-3.3731,-3.3731,-3.4225,-3.4577,-3.4805,-3.4973,-3.52,-3.5418,-3.5418,-3.5418,-3.5418,-3.5418,-3.5418,-3.5418,-3.5418,-3.5418,-3.5418,-3.5418,-3.5418,-2.9746,-2.9994,-2.9994,-2.9994,-2.9994,-2.9994,-2.9994,-2.9994,-2.9994,-2.9994,-2.9994,-2.9994,0.0,0.0,0.0,0.0,0.0,0.0,0.0,0.0,0.0,0.0,0.0,0.0,0.0,0.0,0.0,0.0,0.0,0.0,-3.2556,-3.2556,-3.2571,-3.2499,-3.2499,-3.2313,-3.1874,-3.193,-3.1743,-3.1381,-3.1381,-3.1196,-3.0921,-3.1394,-3.1279,-3.0722,-3.0722,-3.0664,-3.0664,-3.0664,-3.0664,-3.0674,-3.0742,-3.0771,-3.0781,-3.0859,-3.0889,-3.0889,-3.0889,-3.0147,-2.9166,-2.8742,-2.7847,-2.671,-2.5194,-2.4764,-2.4517,-2.3417,-2.3106,-2.3106,-2.3106,-2.3106,-2.3106,-2.3106,-2.3106,-2.3106,-2.3106,-2.3736,-2.4232,-2.4108,-2.4734,-2.5472,-2.6014,-2.6813,-2.7306,-2.7133,-2.7254,-2.7951,-2.9648,-2.9884,-3.0597,-3.2498,-3.3058,-3.3265,-3.3265,-3.3689,-3.4204,-3.4671,-3.4774,-3.4962,-3.5407,-3.5418,-3.5418,-3.5418,-3.5418,-3.5418,-3.5418,-3.5418,-3.5418,-3.5418,-3.5418,-3.5418,-2.9746,-2.9994,-2.9994,-2.9994,-2.9994,-2.9994,-2.9994,-2.9994,-2.9994,0.0,-2.9994,0.0,0.0,0.0,0.0,0.0,0.0,0.0,0.0,0.0,0.0,0.0,0.0,0.0,0.0,0.0,0.0,0.0,0.0,0.0,-3.2101,-3.2081,-3.195,-3.1567,-3.1557,-3.1526,-3.1464,-3.1464,-3.1433,-3.1381,-3.1381,-3.1196,-3.0891,-3.0757,-3.0484,-3.0092,-2.9858,-2.9746,-2.9746,-2.9746,-2.9746,-2.9785,-3.0146,-3.0293,-3.0332,-3.0742,-3.0889,-3.0889,-3.0889,-3.0762,-3.0274,-2.7984,-2.7134,-2.6529,-2.4085,-2.3355,-2.3355,-2.3168,-2.3106,-2.3106,-2.3106,-2.3106,-2.3106,-2.3106,-2.3106,-2.3106,-2.3106,-2.4108,-2.4795,-2.4232,-2.5095,-2.6014,-2.6075,-2.734,-2.8011,-2.7194,-2.7779,-2.8719,-2.9766,-2.9884,-3.0597,-3.2498,-3.2789,-3.282,-3.282,-3.3223,-3.3668,-3.4194,-3.4598,-3.4962,-3.5407,-3.5418,-3.5418,-3.5418,-3.5418,-3.5418,-3.5418,-3.5418,-3.5418,-3.5418,-3.5418,-3.5418,-2.9746,-2.9994,-2.9994,-2.9994,-2.9994,-2.9994,-2.9994,-2.9994,-2.9994,-2.9994,0.0,0.0,0.0,0.0,0.0,0.0,0.0,0.0,0.0,0.0,0.0,0.0,0.0,0.0,0.0,0.0,0.0,0.0,0.0,-3.1888,-3.1681,-3.1671,-3.1578,-3.1381,-3.1381,-3.1247,-3.0998,-3.0988,-3.0864,-3.0605,-3.0605,-3.0541,-3.036,-2.9931,-2.9833,-2.998,-2.9738,-2.9626,-2.9626,-2.9626,-2.9626,-2.9646,-2.9775,-2.9844,-2.9873,-3.0078,-3.0293,-3.0508,-3.0508,-3.018,-2.9599,-2.8453,-2.7125,-2.5737,-2.4579,-2.372,-2.3106,-2.3106,-2.3106,-2.3106,-2.3106,-2.3106,-2.3168,-2.3549,-2.3922,-2.4232,-2.4232,-2.4672,-2.5226,-2.5717,-2.6266,-2.664,-2.664,-2.7702,-2.8361,-2.796,-2.8659,-2.9648,-3.0577,-3.0694,-3.1179,-3.2555,-3.2669,-3.2669,-3.2669,-3.2903,-3.3203,-3.3658,-3.4173,-3.464,-3.5035,-3.5293,-3.5418,-3.5418,-3.5418,-3.5418,-3.5418,-3.5418,-3.5418,-3.5418,-3.5418,-3.5418,-2.9777,-2.9994,-2.9994,-2.9994,-2.9994,-2.9994,0.0,0.0,-2.9994,0.0,0.0,0.0,0.0,0.0,0.0,0.0,0.0,0.0,0.0,0.0,0.0,0.0,0.0,0.0,0.0,0.0,0.0,0.0,0.0,-3.1329,-3.1205,-3.1205,-3.1143,-3.1029,-3.1029,-3.0864,-3.0522,-3.0512,-3.0336,-2.9994,-2.9994,-2.9994,-2.9994,-2.9406,-2.9333,-2.9744,-2.9414,-2.9248,-2.9248,-2.9248,-2.9248,-2.9258,-2.9365,-2.9404,-2.9414,-2.9587,-2.9766,-3.0039,-3.0039,-2.9604,-2.8969,-2.8314,-2.6893,-2.5294,-2.4631,-2.3838,-2.3106,-2.3106,-2.3106,-2.3168,-2.33,-2.3362,-2.3549,-2.417,-2.4734,-2.5173,-2.5533,-2.5472,-2.5717,-2.6891,-2.7073,-2.7194,-2.7427,-2.8241,-2.8829,-2.8829,-2.9648,-3.0529,-3.1227,-3.1285,-3.1642,-3.2612,-3.2669,-3.2669,-3.2669,-3.2669,-3.2913,-3.3348,-3.3813,-3.4339,-3.4805,-3.519,-3.5418,-3.5418,-3.5418,-3.5418,-3.5418,-3.5418,-3.5418,-3.5418,-3.5418,-3.5418,-2.986,-2.9994,-2.9994,-2.9994,-2.9994,-2.9994,0.0,0.0,0.0,0.0,0.0,0.0,0.0,0.0,0.0,0.0,0.0,0.0,0.0,0.0,0.0,0.0,0.0,0.0,0.0,0.0,0.0,0.0,0.0,-3.1184,-3.0739,-3.0729,-3.0522,-3.0087,-3.0067,-3.0056,-3.0036,-3.0036,-3.0015,-2.9994,-2.9994,-2.9994,-2.9994,-2.9406,-2.9109,-2.9096,-2.8564,-2.8359,-2.8359,-2.8359,-2.8359,-2.8398,-2.8799,-2.8955,-2.9004,-2.9414,-2.9636,-2.96,-2.96,-2.9619,-2.917,-2.6849,-2.6165,-2.5863,-2.3483,-2.2926,-2.3106,-2.3106,-2.3106,-2.323,-2.386,-2.4046,-2.4232,-2.4919,-2.505,-2.548,-2.6709,-2.651,-2.6258,-2.6952,-2.7073,-2.7366,-2.8241,-2.9185,-2.9825,-2.9825,-3.0645,-3.1227,-3.1285,-3.1285,-3.1642,-3.2612,-3.2669,-3.2669,-3.2669,-3.2669,-3.2913,-3.3348,-3.3813,-3.4339,-3.4805,-3.519,-3.5418,-3.5418,-3.5418,-3.5418,-3.5418,-3.5418,-3.5418,-3.5418,-3.5418,-3.5418,-2.9425,-2.9766,-2.9994,-2.9994,-2.9994,-2.9994,-2.9994,-2.9994,-2.9994,0.0,0.0,0.0,0.0,0.0,0.0,0.0,0.0,0.0,0.0,0.0,0.0,0.0,0.0,0.0,0.0,0.0,0.0,0.0,0.0,0.0,-3.0253,-3.0243,-3.016,-3.0005,-2.9994,-2.9994,-2.9994,-2.9994,-2.9994,-2.9994,-2.9994,-2.9889,-2.9722,-2.929,-2.9036,-2.8824,-2.8451,-2.8291,-2.8291,-2.8291,-2.8291,-2.831,-2.8457,-2.8516,-2.8535,-2.8691,-2.8926,-2.915,-2.915,-2.9336,-2.9449,-2.8578,-2.7525,-2.6478,-2.5545,-2.4523,-2.3731,-2.3954,-2.4024,-2.4131,-2.461,-2.4734,-2.4919,-2.5586,-2.6083,-2.6518,-2.7012,-2.6571,-2.6319,-2.6952,-2.7073,-2.7194,-2.7547,-2.8888,-2.9884,-2.9884,-3.1189,-3.219,-3.219,-3.219,-3.2315,-3.2669,-3.2669,-3.2669,-3.2669,-3.2669,-3.2799,-3.2954,-3.3658,-3.4204,-3.437,-3.5035,-3.5418,-3.5418,-3.5418,-3.5418,-3.5418,-3.5418,-3.5418,-3.5418,-3.5418,-3.5418,-2.9177,-2.9642,-2.9994,-2.9994,-2.9994,-2.9994,-2.9994,0.0,0.0,0.0,0.0,0.0,0.0,0.0,0.0,0.0,0.0,0.0,0.0,0.0,0.0,0.0,0.0,0.0,0.0,0.0,0.0,0.0,0.0,0.0,-2.9994,-2.9994,-2.9994,-2.9994,-2.9994,-2.9994,-2.9994,-2.9994,-2.9994,-2.9994,-2.9994,-2.9889,-2.9722,-2.9396,-2.9089,-2.8834,-2.8558,-2.8398,-2.8291,-2.8291,-2.8291,-2.8291,-2.8291,-2.8291,-2.8291,-2.8291,-2.8467,-2.8711,-2.8711,-2.8896,-2.9021,-2.8217,-2.7173,-2.6136,-2.5579,-2.4579,-2.3799,-2.4213,-2.4328,-2.4444,-2.4932,-2.5327,-2.5753,-2.6294,-2.6761,-2.7073,-2.7073,-2.6761,-2.6571,-2.7012,-2.7366,-2.7659,-2.8011,-2.9353,-3.047,-3.0772,-3.1903,-3.2669,-3.2669,-3.2669,-3.2669,-3.2669,-3.2669,-3.2669,-3.2669,-3.2669,-3.2669,-3.2669,-3.3575,-3.4132,-3.4132,-3.4941,-3.5418,-3.5418,-3.5418,-3.5418,-3.5418,-3.5418,-3.5418,-3.5418,-3.5418,-3.5232,0.0,0.0,0.0,-2.9994,0.0,0.0,-2.9994,0.0,0.0,0.0,0.0,0.0,0.0,0.0,0.0,0.0,0.0,0.0,0.0,0.0,0.0,0.0,0.0,0.0,0.0,0.0,0.0,0.0,0.0,-2.9994,-2.9994,-2.9994,-2.9994,-2.9994,-2.9994,-2.9994,-2.9994,-2.9994,-2.9994,-2.9994,-2.9994,-2.9994,-2.9994,-2.9722,-2.9396,-2.9079,-2.8834,-2.8568,-2.8291,-2.8291,-2.8291,-2.8291,-2.8291,-2.8291,-2.8291,-2.8291,-2.8291,-2.8291,-2.8291,-2.8291,-2.7843,-2.5507,-2.4919,-2.483,-2.316,-2.2892,-2.3278,-2.3878,-2.4039,-2.4199,-2.4869,-2.573,-2.6568,-2.6961,-2.7056,-2.7064,-2.7073,-2.7133,-2.7133,-2.7133,-2.784,-2.8769,-2.9707,-3.0645,-3.1584,-3.2487,-3.2669,-3.2669,-3.2669,-3.2669,-3.2669,-3.2669,-3.2669,-3.2669,-3.2669,-3.2669,-3.2669,-3.2669,-3.3575,-3.4132,-3.4132,-3.4941,-3.5418,-3.5418,-3.5418,-3.5366,-3.5366,-3.5366,-3.5418,-3.5418,-3.5356,-3.4859,-2.868,0.0,0.0,0.0,0.0,0.0,0.0,0.0,0.0,0.0,0.0,0.0,0.0,0.0,0.0,0.0,0.0,0.0,0.0,0.0,0.0,0.0,0.0,0.0,0.0,0.0,0.0,0.0,-2.9994,-2.9994,-2.9994,-2.9994,-2.9994,-2.9994,-2.9994,-2.9994,-2.9994,-2.9994,-2.9994,-2.9994,-2.9994,-2.9889,-2.9722,-2.9606,-2.93,-2.8834,-2.8737,-2.8568,-2.8291,-2.8291,-2.8291,-2.8291,-2.8291,-2.8291,-2.8291,-2.8291,-2.8291,-2.8291,-2.8291,-2.7745,-2.6907,-2.6245,-2.5209,-2.4244,-2.4205,-2.3958,-2.3878,-2.4761,-2.5008,-2.5116,-2.5518,-2.5836,-2.6182,-2.6559,-2.6653,-2.673,-2.7013,-2.7608,-2.79,-2.7254,-2.784,-2.86,-2.8829,-3.0236,-3.1401,-3.1652,-3.2248,-3.2669,-3.2669,-3.2669,-3.2669,-3.2669,-3.2669,-3.2669,-3.2669,-3.2669,-3.2669,-3.2669,-3.3575,-3.4132,-3.4132,-3.4941,-3.5418,-3.5418,-3.5418,-3.5046,-3.4298,-3.5046,-3.5418,-3.5356,-3.4673,-3.4173,-2.8354,-2.8804,-2.9373,-2.9642,0.0,0.0,-2.9994,-2.9994,0.0,0.0,0.0,0.0,0.0,0.0,0.0,0.0,0.0,0.0,0.0,0.0,0.0,0.0,0.0,0.0,0.0,0.0,0.0,-2.9994,-2.9994,-2.9994,-2.9994,-2.9994,-2.9994,-2.9994,-2.9994,-2.9994,-2.9994,-2.9994,-2.9994,-2.9994,-2.9994,-2.9942,-2.9774,-2.9659,-2.9343,-2.8887,-2.8727,-2.8568,-2.8291,-2.8291,-2.8291,-2.8291,-2.8291,-2.8291,-2.8291,-2.8291,-2.8291,-2.8291,-2.8291,-2.7682,-2.6808,-2.63,-2.5313,-2.4278,-2.4398,-2.4192,-2.4074,-2.4909,-2.5138,-2.5223,-2.5609,-2.5703,-2.5797,-2.6165,-2.6259,-2.6362,-2.6747,-2.7584,-2.8154,-2.7744,-2.8769,-2.9648,-2.9648,-3.0888,-3.1883,-3.1883,-3.2373,-3.2669,-3.2669,-3.2669,-3.2669,-3.2669,-3.2669,-3.2669,-3.2669,-3.2669,-3.2809,-3.2985,-3.3679,-3.4214,-3.4411,-3.5045,-3.517,-3.4797,-3.517,-3.4922,-3.3922,-3.4922,-3.517,-3.4735,-3.4173,-3.3408,-2.8292,-2.8574,-2.9166,-2.9218,-2.958,0.0,-2.9922,-2.9953,-2.9994,0.0,0.0,0.0,0.0,0.0,0.0,0.0,0.0,0.0,0.0,0.0,0.0,0.0,0.0,0.0,0.0,-2.9994,-2.9994,-2.9994,-2.9994,-2.9994,-2.9994,-2.9994,-2.9994,-2.9994,-2.9994,-2.9994,-2.9994,-2.9994,-2.9994,-2.9994,-2.9994,-2.9994,-2.9994,-2.9774,-2.9448,-2.9079,-2.8834,-2.8568,-2.8291,-2.8291,-2.8291,-2.8291,-2.8291,-2.8291,-2.8291,-2.8291,-2.8291,-2.8344,-2.8237,-2.7809,-2.7034,-2.5908,-2.5093,-2.4509,-2.4024,-2.3921,-2.4033,-2.4654,-2.4821,-2.4898,-2.5223,-2.5309,-2.5403,-2.5788,-2.5816,-2.5977,-2.6463,-2.7381,-2.821,-2.8633,-3.0139,-3.1285,-3.1285,-3.2065,-3.2669,-3.2669,-3.2669,-3.2669,-3.2669,-3.2669,-3.2669,-3.2669,-3.2669,-3.2669,-3.2669,-3.2669,-3.2913,-3.3348,-3.3813,-3.4339,-3.4805,-3.5057,-3.4797,-3.3922,-3.4538,-3.4538,-3.3733,-3.4735,-3.4735,-3.3733,-3.3733,-3.2711,-2.9061,-2.8634,-2.8276,-2.8659,-2.9094,0.0,-2.9435,-2.9725,-2.9994,0.0,0.0,0.0,0.0,0.0,0.0,0.0,0.0,0.0,0.0,0.0,0.0,0.0,0.0,0.0,0.0,-2.9994,-2.9994,-2.9994,-2.9994,-2.9994,-2.9994,-2.9994,-2.9994,-2.9994,-2.9994,-2.9994,-2.9994,-2.9994,-2.9994,-2.9994,-2.9994,-2.9994,-2.9994,-2.9942,-2.9617,-2.9079,-2.9026,-2.8771,-2.8291,-2.8291,-2.8291,-2.8291,-2.8291,-2.8291,-2.8291,-2.8291,-2.8461,-2.8514,-2.7809,-2.7034,-2.62,-2.5267,-2.4231,-2.3408,-2.3809,-2.3921,-2.4033,-2.4654,-2.4821,-2.4838,-2.4907,-2.4924,-2.5018,-2.5395,-2.548,-2.5812,-2.6818,-2.8122,-2.923,-3.0044,-3.0807,-3.1285,-3.1285,-3.2065,-3.2669,-3.2669,-3.2669,-3.2669,-3.2669,-3.2669,-3.2669,-3.2669,-3.2669,-3.2669,-3.2669,-3.2669,-3.2913,-3.3348,-3.3813,-3.4339,-3.4805,-3.444,-3.411,-3.3922,-3.2447,-3.2065,-3.2702,-3.3723,-3.366,-3.2702,-3.2702,-3.2001,-2.9253,-2.8843,0.0,-2.8312,0.0,0.0,0.0,-2.9487,-2.9715,-2.9942,0.0,0.0,0.0,0.0,0.0,0.0,0.0,0.0,0.0,0.0,0.0,0.0,0.0,0.0,0.0,-2.9994,-2.9994,-2.9994,-2.9994,-2.9994,-2.9994,-2.9994,-2.9994,-2.9994,-2.9994,-2.9994,-2.9994,-2.9994,-2.9994,-2.9994,-2.9994,-2.9994,-2.9994,-2.9879,-2.9669,-2.9343,-2.9036,-2.8771,-2.8514,-2.8514,-2.8514,-2.8514,-2.8344,-2.8398,-2.8514,-2.8514,-2.8398,-2.8174,-2.7736,-2.6862,-2.5835,-2.5395,-2.4629,-2.3977,-2.4256,-2.4368,-2.4423,-2.471,-2.4821,-2.4821,-2.4821,-2.4821,-2.4864,-2.5052,-2.5095,-2.5414,-2.6694,-2.7882,-2.9106,-3.0362,-3.1161,-3.1744,-3.1967,-3.2373,-3.2669,-3.2669,-3.2669,-3.2669,-3.2669,-3.2669,-3.2669,-3.2669,-3.2669,-3.2669,-3.2669,-3.2934,-3.3244,-3.3689,-3.4214,-3.4429,-3.4328,-3.4053,-3.367,-3.3146,-3.1102,-3.0529,-3.1616,-3.2128,-3.2065,-3.1616,-3.1616,-3.1037,0.0,0.0,0.0,0.0,0.0,-2.8825,0.0,0.0,0.0,-2.9653,0.0,0.0,0.0,0.0,0.0,0.0,0.0,0.0,0.0,0.0,0.0,0.0,0.0,0.0,0.0,-2.9994,-2.9994,-2.9994,-2.9994,-2.9994,-2.9994,-2.9994,-2.9994,-2.9994,-2.9994,-2.9994,-2.9994,-2.9994,-2.9994,-2.9994,-2.9994,-2.9994,-2.9994,-2.9774,-2.9669,-2.9554,-2.9089,-2.8834,-2.8781,-2.8781,-2.8781,-2.8781,-2.8558,-2.8621,-2.8781,-2.8781,-2.8388,-2.7887,-2.7726,-2.6808,-2.5734,-2.5578,-2.52,-2.4821,-2.4821,-2.4821,-2.4821,-2.4821,-2.4821,-2.4821,-2.4821,-2.4821,-2.4821,-2.4821,-2.4821,-2.5176,-2.6514,-2.753,-2.8605,-3.03,-3.1386,-3.2132,-3.2597,-3.2669,-3.2669,-3.2669,-3.2669,-3.2669,-3.2669,-3.2669,-3.2669,-3.2669,-3.2669,-3.2669,-3.2669,-3.313,-3.3575,-3.41,-3.4376,-3.434,-3.3902,-3.3534,-3.2829,-3.1809,-3.0139,-2.97,-3.0529,-3.0529,-3.0529,-3.0538,-3.0723,-3.0278,0.0,0.0,0.0,0.0,-2.8338,0.0,0.0,0.0,-2.8711,-2.8763,0.0,0.0,0.0,0.0,0.0,0.0,0.0,0.0,0.0,0.0,0.0,0.0,0.0,0.0,0.0,0.0,-2.9994,-2.9994,-2.9994,-2.9994,-2.9994,-2.9994,-2.9994,-2.9994,-2.9994,-2.9994,-2.9994,-2.9994,-2.9994,-2.9994,-2.9994,-2.9994,-2.9994,-2.9994,-2.9827,-2.9606,-2.9501,-2.9343,-2.9026,-2.9026,-2.9026,-2.9026,-2.9026,-2.9026,-2.9026,-2.9026,-2.8708,-2.8121,-2.7368,-2.6645,-2.5926,-2.5136,-2.4876,-2.4821,-2.4821,-2.4821,-2.4821,-2.4821,-2.4821,-2.4821,-2.4821,-2.4821,-2.4821,-2.4821,-2.4821,-2.5255,-2.6963,-2.7753,-2.8597,-3.037,-3.1375,-3.2132,-3.2597,-3.2669,-3.2669,-3.2669,-3.2669,-3.2669,-3.2669,-3.2669,-3.2669,-3.2669,-3.2669,-3.2669,-3.2669,-3.313,-3.3575,-3.41,-3.3629,-3.3528,-3.3902,-3.2128,-3.0658,-2.9691,-2.9438,-2.9373,-2.9438,-2.9438,-2.9438,-2.9504,-3.0399,-3.0278,0.0,0.0,0.0,0.0,0.0,0.0,-2.8817,0.0,-2.8286,0.0,0.0,0.0,0.0,0.0,0.0,0.0,-2.9197,0.0,0.0,0.0,0.0,0.0,0.0,0.0,0.0,0.0,0.0,0.0,0.0,-2.9994,-2.9994,-2.9994,-2.9994,-2.9994,-2.9994,-2.9994,-2.9994,-2.9994,-2.9994,-2.9994,-2.9994,-2.9994,-2.9994,-2.9994,-2.9942,-2.9827,-2.9669,-2.9501,-2.9396,-2.9396,-2.9396,-2.9396,-2.9564,-2.9511,-2.9396,-2.9396,-2.9026,-2.8432,-2.7511,-2.6744,-2.5981,-2.5081,-2.4821,-2.4821,-2.4821,-2.4821,-2.4821,-2.4821,-2.4821,-2.4821,-2.4821,-2.4821,-2.4821,-2.4821,-2.5191,-2.5881,-2.7114,-2.7958,-2.8883,-3.0411,-3.1215,-3.1805,-3.2194,-3.2494,-3.2669,-3.2669,-3.2669,-3.2669,-3.2669,-3.2669,-3.2669,-3.2669,-3.2669,-3.283,-3.3089,-3.3524,-3.4038,-3.4505,-3.3396,-3.252,-3.2128,-3.0723,-2.9757,-2.9316,-2.9307,-2.9307,-2.9307,-2.9307,-2.9307,-2.9307,-2.9757,-2.9691,-3.1989,0.0,0.0,0.0,0.0,0.0,0.0,0.0,0.0,0.0,0.0,0.0,0.0,0.0,-2.8906,-2.8657,0.0,-2.8618,0.0,0.0,0.0,0.0,0.0,0.0,0.0,0.0,0.0,-2.9994,-2.9994,-2.9994,-2.9994,-2.9994,-2.9994,-2.9994,-2.9994,-2.9994,-2.9994,-2.9994,-2.9994,-2.9994,-2.9994,-2.9994,-2.9994,-2.9994,-2.9994,-2.9994,-2.9774,-2.9722,-2.9722,-2.9722,-2.9722,-2.9722,-2.9942,-2.9879,-2.9722,-2.9722,-2.9122,-2.8252,-2.7599,-2.6681,-2.5661,-2.5034,-2.4821,-2.4821,-2.4821,-2.4821,-2.4821,-2.4821,-2.4821,-2.4821,-2.4821,-2.4821,-2.4821,-2.4821,-2.545,-2.6354,-2.7222,-2.8092,-2.9053,-3.0269,-3.0977,-3.1474,-3.1805,-3.2344,-3.2669,-3.2669,-3.2669,-3.2669,-3.2669,-3.2669,-3.2669,-3.2669,-3.2669,-3.2903,-3.3337,-3.3803,-3.413,-3.4156,-3.2782,-3.1488,-3.0408,-2.9691,-2.9307,-2.9307,-2.9307,-2.9307,-2.9307,-2.9307,-2.9307,-2.9307,-2.9307,-2.9307,0.0,0.0,0.0,-3.0666,0.0,0.0,0.0,0.0,-2.8699,0.0,0.0,0.0,0.0,-2.9083,-2.9736,-2.8757,-2.8618,0.0,0.0,0.0,0.0,0.0,0.0,0.0,0.0,0.0,0.0,-2.9994,-2.9994,-2.9994,-2.9994,-2.9994,-2.9994,-2.9994,-2.9994,-2.9994,-2.9994,-2.9994,-2.9994,-2.9994,-2.9994,-2.9994,-2.9994,-2.9994,-2.9994,-2.9994,-2.9994,-2.9994,-2.9994,-2.9994,-2.9994,-2.9994,-2.9994,-2.9994,-2.9994,-2.9994,-2.891,-2.7438,-2.7384,-2.6263,-2.4821,-2.4821,-2.4821,-2.4821,-2.4821,-2.4821,-2.4821,-2.4821,-2.4821,-2.4821,-2.4821,-2.4821,-2.4821,-2.4821,-2.545,-2.6354,-2.7222,-2.8092,-2.8963,-2.9847,-3.076,-3.1381,-3.1391,-3.2137,-3.2669,-3.2669,-3.2669,-3.2669,-3.2669,-3.2669,-3.2669,-3.2669,-3.2669,-3.2903,-3.3337,-3.3803,-3.3649,-3.2562,-3.1479,-3.0399,-2.9373,-2.9307,-2.9307,-2.9307,-2.9307,-2.9307,-2.9307,-2.9307,-2.9307,-2.9307,-2.9307,-2.9307,0.0,0.0,-3.2957,-3.148,0.0,0.0,0.0,0.0,0.0,0.0,0.0,0.0,0.0,-2.8823,-2.9074,-2.8694,-2.813,-2.7717,0.0,0.0,0.0,0.0,0.0,0.0,0.0,0.0,0.0,-2.9518,-2.9539,-2.9673,0.0,-2.9994,-2.9994,-2.9994,-2.9994,-2.9994,-2.9994,-2.9994,-2.9994,-2.9994,-2.9994,-2.9994,-2.9994,-2.9994,-2.9994,-2.9994,-2.9994,-2.9994,-2.9994,-2.9994,-2.9994,-2.9994,-2.9994,-2.9994,-2.9942,-2.9343,-2.8741,-2.8092,-2.6952,-2.578,-2.4821,-2.4821,-2.4821,-2.4821,-2.4821,-2.4821,-2.4821,-2.4821,-2.4821,-2.4821,-2.4821,-2.4821,-2.4821,-2.4821,-2.5889,-2.706,-2.733,-2.8528,-2.9669,-2.9942,-3.0739,-3.1381,-3.1381,-3.2126,-3.2669,-3.2669,-3.2669,-3.2669,-3.2669,-3.219,-3.1767,-3.1767,-3.2029,-3.245,-3.2893,-3.3548,-3.3221,-3.1469,-3.0982,-3.0343,-2.9307,-2.9307,-2.9307,-2.9307,-2.9307,-2.9307,-2.9307,-2.9307,-2.9307,-2.9307,-2.9307,-2.9307,-3.3556,-3.3441,0.0,-3.2351,-3.212,0.0,-3.1392,0.0,0.0,0.0,0.0,0.0,0.0,-2.9498,-2.9498,-2.8817,-2.8491,-2.8351,0.0,-2.8809,0.0,0.0,0.0,0.0,0.0,0.0,-2.9132,-2.9042,-2.9063,-2.9187,0.0,0.0,-2.9508,-2.9508,-2.9508,-2.9508,-2.9508,-2.9508,-2.9591,-2.9746,-2.9746,-2.9839,-2.9994,-2.9994,-2.9994,-2.9994,-2.9994,-2.9994,-2.9994,-2.9994,-2.9994,-2.9994,-2.9994,-2.9827,-2.9448,-2.891,-2.8305,-2.7546,-2.6145,-2.5293,-2.4821,-2.4821,-2.4821,-2.4821,-2.4821,-2.4821,-2.4847,-2.4975,-2.4924,-2.4847,-2.4984,-2.4924,-2.4821,-2.4821,-2.61,-2.7384,-2.7384,-2.8741,-2.9994,-2.9994,-3.0739,-3.1381,-3.1381,-3.2126,-3.2669,-3.2669,-3.2669,-3.2555,-3.2248,-3.1642,-3.1169,-3.082,-3.1211,-3.1709,-3.2295,-3.2623,-3.2266,-3.0852,-3.0464,-2.9952,-2.9316,-2.9307,-2.9307,-2.9307,-2.9307,-2.9307,-2.9307,-2.9307,-2.9307,-2.9307,-2.9307,-2.9176]}]]